[[{"header":{"parameterUnit":"m.s-1","parameterCategory":1,"la1":30.6,"la2":28.766,"lo1":-90.7593,"lo2":-88.6598,"dy":0.0162,"dx":0.0183,"nx":116,"ny":114,"refTime":"2023-06-10T18:00:00:Z","depth":0,"parameterNumber":2,"parameterNumberName":"U-component_of_WINDS"},"data":[0.0,0.0,0.0,0.0,0.0,0.0,0.0,0.0,0.0,0.0,0.0,0.0,0.0,0.0,0.0,0.0,0.0,0.0,0.0,0.0,0.0,0.0,0.0,0.0,0.0,0.0,0.0,0.0,0.0,0.0,0.0,0.0,0.0,0.0,0.0,0.0,0.0,0.0,0.0,0.0,0.0,0.0,0.0,0.0,0.0,0.0,0.0,0.0,0.0,0.0,0.0,0.0,0.0,0.0,0.0,0.0,0.0,0.0,0.0,0.0,0.0,0.0,0.0,0.0,0.0,0.0,0.0,0.0,0.0,0.0,0.0,0.0,0.0,0.0,0.0,0.0,0.0,0.0,0.0,0.0,0.0,0.0,0.0,0.0,0.0,0.0,0.0,0.0,0.0,0.0,0.0,0.0,0.0,0.0,0.0,0.0,0.0,0.0,0.0,0.0,0.0,0.0,0.0,0.0,0.0,0.0,0.0,0.0,0.0,0.0,0.0,0.0,0.0,0.0,0.0,0.0,0.0,0.0,0.0,0.0,0.0,0.0,0.0,0.0,0.0,0.0,0.0,0.0,0.0,0.0,0.0,0.0,0.0,0.0,0.0,0.0,0.0,0.0,0.0,0.0,0.0,0.0,0.0,0.0,0.0,0.0,0.0,0.0,0.0,0.0,0.0,0.0,0.0,0.0,0.0,0.0,0.0,0.0,0.0,0.0,0.0,0.0,0.0,0.0,0.0,0.0,0.0,0.0,0.0,0.0,0.0,0.0,0.0,0.0,0.0,0.0,0.0,0.0,0.0,0.0,0.0,0.0,0.0,0.0,0.0,0.0,0.0,0.0,0.0,0.0,0.0,0.0,0.0,0.0,0.0,0.0,0.0,0.0,0.0,0.0,0.0,0.0,0.0,0.0,0.0,0.0,0.0,0.0,0.0,0.0,0.0,0.0,0.0,0.0,0.0,0.0,0.0,0.0,0.0,0.0,0.0,0.0,0.0,0.0,0.0,0.0,0.0,0.0,0.0,0.0,0.0,0.0,0.0,0.0,0.0,0.0,0.0,0.0,0.0,0.0,0.0,0.0,0.0,0.0,0.0,0.0,0.0,0.0,0.0,0.0,0.0,0.0,0.0,0.0,0.0,0.0,0.0,0.0,0.0,0.0,0.0,0.0,0.0,0.0,0.0,0.0,0.0,0.0,0.0,0.0,0.0,0.0,0.0,0.0,0.0,0.0,0.0,0.0,0.0,0.0,0.0,0.0,0.0,0.0,0.0,0.0,0.0,0.0,0.0,0.0,0.0,0.0,0.0,0.0,0.0,0.0,0.0,0.0,0.0,0.0,0.0,0.0,0.0,0.0,0.0,0.0,0.0,0.0,0.0,0.0,0.0,0.0,0.0,0.0,0.0,0.0,0.0,0.0,0.0,0.0,0.0,0.0,0.0,0.0,0.0,0.0,0.0,0.0,0.0,0.0,0.0,0.0,0.0,0.0,0.0,0.0,0.0,0.0,0.0,0.0,0.0,0.0,0.0,0.0,0.0,0.0,0.0,0.0,0.0,0.0,0.0,0.0,0.0,0.0,0.0,0.0,0.0,0.0,0.0,0.0,0.0,0.0,0.0,0.0,0.0,0.0,0.0,0.0,0.0,0.0,0.0,0.0,0.0,0.0,0.0,0.0,0.0,0.0,0.0,0.0,0.0,0.0,0.0,0.0,0.0,0.0,0.0,0.0,0.0,0.0,0.0,0.0,0.0,0.0,0.0,0.0,0.0,0.0,0.0,0.0,0.0,0.0,0.0,0.0,0.0,0.0,0.0,0.0,0.0,0.0,0.0,0.0,0.0,0.0,0.0,0.0,0.0,0.0,0.0,0.0,0.0,0.0,0.0,0.0,0.0,0.0,0.0,0.0,0.0,0.0,0.0,0.0,0.0,0.0,0.0,0.0,0.0,0.0,0.0,0.0,0.0,0.0,0.0,0.0,0.0,0.0,0.0,0.0,0.0,0.0,0.0,0.0,0.0,0.0,0.0,0.0,0.0,0.0,0.0,0.0,0.0,0.0,0.0,0.0,0.0,0.0,0.0,0.0,0.0,0.0,0.0,0.0,0.0,0.0,0.0,0.0,0.0,0.0,0.0,0.0,0.0,0.0,0.0,0.0,0.0,0.0,0.0,0.0,0.0,0.0,0.0,0.0,0.0,0.0,0.0,0.0,0.0,0.0,0.0,0.0,0.0,0.0,0.0,0.0,0.0,0.0,0.0,0.0,0.0,0.0,0.0,0.0,0.0,0.0,0.0,0.0,0.0,0.0,0.0,0.0,0.0,0.0,0.0,0.0,0.0,0.0,0.0,0.0,0.0,0.0,0.0,0.0,0.0,0.0,0.0,0.0,0.0,0.0,0.0,0.0,0.0,0.0,0.0,0.0,0.0,0.0,0.0,0.0,0.0,0.0,0.0,0.0,0.0,0.0,0.0,0.0,0.0,0.0,0.0,0.0,0.0,0.0,0.0,0.0,0.0,0.0,0.0,0.0,0.0,0.0,0.0,0.0,0.0,0.0,0.0,0.0,0.0,0.0,0.0,0.0,0.0,0.0,0.0,0.0,0.0,0.0,0.0,0.0,0.0,0.0,0.0,0.0,0.0,0.0,0.0,0.0,0.0,0.0,0.0,0.0,0.0,0.0,0.0,0.0,0.0,0.0,0.0,0.0,0.0,0.0,0.0,0.0,0.0,0.0,0.0,0.0,0.0,0.0,0.0,0.0,0.0,0.0,0.0,0.0,0.0,0.0,0.0,0.0,0.0,0.0,0.0,0.0,0.0,0.0,0.0,0.0,0.0,0.0,0.0,0.0,0.0,0.0,0.0,0.0,0.0,0.0,0.0,0.0,0.0,0.0,0.0,0.0,0.0,0.0,0.0,0.0,0.0,0.0,0.0,0.0,0.0,0.0,0.0,0.0,0.0,0.0,0.0,0.0,0.0,0.0,0.0,0.0,0.0,0.0,0.0,0.0,0.0,0.0,0.0,0.0,0.0,0.0,0.0,0.0,0.0,0.0,0.0,0.0,0.0,0.0,0.0,0.0,0.0,0.0,0.0,0.0,0.0,0.0,0.0,0.0,0.0,0.0,0.0,0.0,0.0,0.0,0.0,0.0,0.0,0.0,0.0,0.0,0.0,0.0,0.0,0.0,0.0,0.0,0.0,0.0,0.0,0.0,0.0,0.0,0.0,0.0,0.0,0.0,0.0,0.0,0.0,0.0,0.0,0.0,0.0,0.0,0.0,0.0,0.0,0.0,0.0,0.0,0.0,0.0,0.0,0.0,0.0,0.0,0.0,0.0,0.0,0.0,0.0,0.0,0.0,0.0,0.0,0.0,0.0,0.0,0.0,0.0,0.0,0.0,0.0,0.0,0.0,0.0,0.0,0.0,0.0,0.0,0.0,0.0,0.0,0.0,0.0,0.0,0.0,0.0,0.0,0.0,0.0,0.0,0.0,0.0,0.0,0.0,0.0,0.0,0.0,0.0,0.0,0.0,0.0,0.0,0.0,0.0,0.0,0.0,0.0,0.0,0.0,0.0,0.0,0.0,0.0,0.0,0.0,0.0,0.0,0.0,0.0,0.0,0.0,0.0,0.0,0.0,0.0,0.0,0.0,0.0,0.0,0.0,0.0,0.0,0.0,0.0,0.0,0.0,0.0,0.0,0.0,0.0,0.0,0.0,0.0,0.0,0.0,0.0,0.0,0.0,0.0,0.0,0.0,0.0,0.0,0.0,0.0,0.0,0.0,0.0,0.0,0.0,0.0,0.0,0.0,0.0,0.0,0.0,0.0,0.0,0.0,0.0,0.0,0.0,0.0,0.0,0.0,0.0,0.0,0.0,0.0,0.0,0.0,0.0,0.0,0.0,0.0,0.0,0.0,0.0,0.0,0.0,0.0,0.0,0.0,0.0,0.0,0.0,0.0,0.0,0.0,0.0,0.0,0.0,0.0,0.0,0.0,0.0,0.0,0.0,0.0,0.0,0.0,0.0,0.0,0.0,0.0,0.0,0.0,0.0,0.0,0.0,0.0,0.0,0.0,0.0,0.0,0.0,0.0,0.0,0.0,0.0,0.0,0.0,0.0,0.0,0.0,0.0,0.0,0.0,0.0,0.0,0.0,0.0,0.0,0.0,0.0,0.0,0.0,0.0,0.0,0.0,0.0,0.0,0.0,0.0,0.0,0.0,0.0,0.0,0.0,0.0,0.0,0.0,0.0,0.0,0.0,0.0,0.0,0.0,0.0,0.0,0.0,0.0,0.0,0.0,0.0,0.0,0.0,0.0,0.0,0.0,0.0,0.0,0.0,0.0,0.0,0.0,0.0,0.0,0.0,0.0,0.0,0.0,0.0,0.0,0.0,0.0,0.0,0.0,0.0,0.0,0.0,0.0,0.0,0.0,0.0,0.0,0.0,0.0,0.0,0.0,0.0,0.0,0.0,0.0,0.0,0.0,0.0,0.0,0.0,0.0,0.0,0.0,0.0,0.0,0.0,0.0,0.0,0.0,0.0,0.0,0.0,0.0,0.0,0.0,0.0,0.0,0.0,0.0,0.0,0.0,0.0,0.0,0.0,0.0,0.0,0.0,0.0,0.0,0.0,0.0,0.0,0.0,0.0,0.0,0.0,0.0,0.0,0.0,0.0,0.0,0.0,0.0,0.0,0.0,0.0,0.0,0.0,0.0,0.0,0.0,0.0,0.0,0.0,0.0,0.0,0.0,0.0,0.0,0.0,0.0,0.0,0.0,0.0,0.0,0.0,0.0,0.0,0.0,0.0,0.0,0.0,0.0,0.0,0.0,0.0,0.0,0.0,0.0,0.0,0.0,0.0,0.0,0.0,0.0,0.0,0.0,0.0,0.0,0.0,0.0,0.0,0.0,0.0,0.0,0.0,0.0,0.0,0.0,0.0,0.0,0.0,0.0,0.0,0.0,0.0,0.0,0.0,0.0,0.0,0.0,0.0,0.0,0.0,0.0,0.0,0.0,0.0,0.0,0.0,0.0,0.0,0.0,0.0,0.0,0.0,0.0,0.0,0.0,0.0,0.0,0.0,0.0,0.0,0.0,0.0,0.0,0.0,0.0,0.0,0.0,0.0,0.0,0.0,0.0,0.0,0.0,0.0,0.0,0.0,0.0,0.0,0.0,0.0,0.0,0.0,0.0,0.0,0.0,0.0,0.0,0.0,0.0,0.0,0.0,0.0,0.0,0.0,0.0,0.0,0.0,0.0,0.0,0.0,0.0,0.0,0.0,0.0,0.0,0.0,0.0,0.0,0.0,0.0,0.0,0.0,0.0,0.0,0.0,0.0,0.0,0.0,0.0,0.0,0.0,0.0,0.0,0.0,0.0,0.0,0.0,0.0,0.0,0.0,0.0,0.0,0.0,0.0,0.0,0.0,0.0,0.0,0.0,0.0,0.0,0.0,0.0,0.0,0.0,0.0,0.0,0.0,0.0,0.0,0.0,0.0,0.0,0.0,0.0,0.0,0.0,0.0,0.0,0.0,0.0,0.0,0.0,0.0,0.0,0.0,0.0,0.0,0.0,0.0,0.0,0.0,0.0,0.0,0.0,0.0,0.0,0.0,0.0,0.0,0.0,0.0,0.0,0.0,0.0,0.0,0.0,0.0,0.0,0.0,0.0,0.0,0.0,0.0,0.0,0.0,0.0,0.0,0.0,0.0,0.0,0.0,0.0,0.0,0.0,0.0,0.0,0.0,0.0,0.0,0.0,0.0,0.0,0.0,0.0,0.0,0.0,0.0,0.0,0.0,0.0,0.0,0.0,0.0,0.0,0.0,0.0,0.0,0.0,0.0,0.0,0.0,0.0,0.0,0.0,0.0,0.0,0.0,0.0,0.0,0.0,0.0,0.0,0.0,0.0,0.0,0.0,0.0,0.0,0.0,0.0,0.0,0.0,0.0,0.0,0.0,0.0,0.0,0.0,0.0,0.0,0.0,0.0,0.0,0.0,0.0,0.0,0.0,0.0,0.0,0.0,0.0,0.0,0.0,0.0,0.0,0.0,0.0,0.0,0.0,0.0,0.0,0.0,0.0,0.0,0.0,0.0,0.0,0.0,0.0,0.0,0.0,0.0,-2.7944,-2.7365,0.0,0.0,0.0,0.0,0.0,0.0,0.0,0.0,0.0,0.0,0.0,0.0,0.0,0.0,0.0,0.0,0.0,0.0,0.0,0.0,0.0,0.0,0.0,0.0,0.0,0.0,0.0,0.0,0.0,0.0,0.0,0.0,0.0,0.0,0.0,0.0,0.0,0.0,0.0,0.0,0.0,0.0,0.0,0.0,0.0,0.0,0.0,0.0,0.0,0.0,0.0,0.0,0.0,0.0,0.0,0.0,0.0,0.0,0.0,0.0,0.0,0.0,0.0,0.0,0.0,0.0,0.0,0.0,0.0,0.0,0.0,0.0,0.0,0.0,0.0,0.0,0.0,0.0,0.0,0.0,0.0,0.0,0.0,0.0,0.0,0.0,0.0,0.0,0.0,0.0,0.0,0.0,0.0,0.0,0.0,0.0,0.0,0.0,0.0,0.0,0.0,0.0,0.0,0.0,0.0,0.0,0.0,0.0,0.0,0.0,0.0,0.0,0.0,0.0,-2.8542,-2.8109,0.0,0.0,0.0,0.0,0.0,0.0,0.0,0.0,0.0,0.0,0.0,0.0,0.0,0.0,0.0,0.0,0.0,0.0,0.0,0.0,0.0,0.0,0.0,0.0,0.0,0.0,0.0,0.0,0.0,0.0,0.0,0.0,0.0,0.0,0.0,0.0,0.0,0.0,0.0,0.0,0.0,0.0,0.0,0.0,0.0,0.0,0.0,0.0,0.0,0.0,0.0,0.0,0.0,0.0,0.0,0.0,0.0,0.0,0.0,0.0,0.0,0.0,0.0,0.0,0.0,0.0,0.0,0.0,0.0,0.0,0.0,0.0,0.0,0.0,0.0,0.0,0.0,0.0,0.0,0.0,0.0,0.0,0.0,0.0,0.0,0.0,0.0,0.0,0.0,0.0,0.0,0.0,0.0,0.0,0.0,0.0,0.0,0.0,0.0,0.0,0.0,0.0,0.0,0.0,0.0,0.0,0.0,0.0,-3.151,-3.0665,-2.9608,-2.8687,-2.8451,-2.8678,-2.9115,-2.8916,-2.8291,-2.8291,0.0,0.0,0.0,0.0,0.0,0.0,0.0,0.0,0.0,0.0,0.0,0.0,0.0,0.0,0.0,0.0,0.0,0.0,0.0,0.0,0.0,0.0,0.0,0.0,0.0,0.0,0.0,0.0,0.0,0.0,0.0,0.0,0.0,0.0,0.0,0.0,0.0,0.0,-3.3124,-3.3124,-3.3124,-3.3124,0.0,0.0,0.0,0.0,0.0,0.0,0.0,0.0,0.0,0.0,0.0,0.0,0.0,0.0,0.0,0.0,0.0,0.0,0.0,0.0,0.0,0.0,0.0,0.0,0.0,0.0,0.0,0.0,0.0,0.0,0.0,0.0,0.0,0.0,0.0,0.0,0.0,0.0,0.0,0.0,0.0,0.0,0.0,0.0,-2.9863,-3.1033,0.0,0.0,0.0,0.0,0.0,0.0,0.0,0.0,0.0,0.0,0.0,0.0,0.0,-3.1572,-3.2077,-3.1247,-3.0557,-3.0095,-3.0008,-3.0049,-3.013,-2.887,-2.8953,-2.9964,-2.8946,0.0,-2.8291,-2.8291,0.0,0.0,0.0,0.0,0.0,0.0,0.0,0.0,0.0,0.0,0.0,0.0,0.0,0.0,0.0,0.0,0.0,0.0,0.0,0.0,0.0,0.0,0.0,0.0,0.0,0.0,0.0,0.0,0.0,0.0,0.0,0.0,0.0,0.0,0.0,0.0,-3.3124,-3.3124,-3.3124,-3.3124,-3.3124,-3.3124,-3.3124,-3.3124,-3.3124,-3.3124,0.0,0.0,0.0,0.0,0.0,0.0,0.0,0.0,0.0,0.0,0.0,0.0,0.0,0.0,0.0,0.0,0.0,0.0,0.0,0.0,0.0,0.0,0.0,0.0,0.0,0.0,0.0,0.0,0.0,0.0,0.0,0.0,0.0,0.0,0.0,0.0,0.0,0.0,0.0,-3.0406,-3.0866,-3.2096,-3.2283,-3.2283,0.0,0.0,0.0,0.0,0.0,0.0,0.0,0.0,0.0,-3.0938,-3.0492,-3.078,-3.1838,-3.0798,-3.0167,-3.0024,-3.0024,-2.9725,-2.9154,-2.8548,-2.8601,-2.9154,-2.8548,-2.8291,-2.8291,-2.8291,-2.8291,-2.8291,0.0,0.0,0.0,0.0,-2.8643,-2.8701,0.0,0.0,0.0,0.0,0.0,0.0,0.0,0.0,0.0,0.0,0.0,0.0,0.0,0.0,0.0,-3.3124,0.0,0.0,0.0,0.0,0.0,0.0,0.0,0.0,0.0,0.0,0.0,0.0,-3.3124,-3.3124,-3.3124,-3.3124,-3.3124,-3.3124,-3.3124,-3.3124,-3.3124,-3.3124,-3.3124,0.0,0.0,0.0,0.0,0.0,0.0,0.0,0.0,0.0,0.0,0.0,0.0,0.0,0.0,0.0,0.0,0.0,0.0,0.0,0.0,0.0,0.0,0.0,0.0,0.0,0.0,0.0,0.0,0.0,0.0,0.0,0.0,0.0,0.0,0.0,0.0,0.0,0.0,-3.1412,-3.1545,-3.2513,-3.2896,-3.2982,0.0,0.0,0.0,0.0,0.0,0.0,-3.2822,-3.2457,-3.2279,-3.2279,-3.0229,-3.0115,-3.2153,-3.0651,-3.0187,-3.0824,-3.0473,-2.9765,-2.8804,-2.8441,-2.8291,-2.8291,-2.8291,-2.8291,-2.8291,-2.8291,-2.8291,-2.8301,-2.8408,-2.8447,-2.8506,-2.8926,-2.9082,-2.915,0.0,0.0,0.0,0.0,0.0,0.0,0.0,0.0,0.0,0.0,0.0,0.0,0.0,0.0,-3.3124,-3.3124,-3.3124,-3.3124,0.0,0.0,0.0,0.0,0.0,0.0,0.0,0.0,0.0,-3.3124,-3.3124,-3.3124,-3.3124,-3.3124,-3.3124,-3.3124,-3.3124,-3.3124,-3.3124,-3.3124,-3.3124,-3.3124,0.0,0.0,0.0,0.0,0.0,0.0,0.0,0.0,0.0,0.0,0.0,0.0,0.0,0.0,0.0,0.0,0.0,0.0,0.0,0.0,0.0,0.0,0.0,0.0,0.0,0.0,0.0,0.0,0.0,0.0,0.0,0.0,0.0,0.0,0.0,0.0,0.0,0.0,0.0,-3.1311,-3.237,0.0,0.0,0.0,0.0,-3.3124,-3.3514,-3.3303,-3.2223,-3.2471,-3.271,-3.2873,-3.0685,-3.0738,-3.3374,-3.1308,-3.0906,-3.218,-3.0916,-3.0266,-3.0162,-2.89,-2.8291,-2.8291,-2.8291,-2.8291,-2.8291,-2.8291,-2.8291,-2.833,-2.873,-2.8887,-2.8935,-2.9375,-2.9531,-2.96,0.0,0.0,0.0,0.0,0.0,0.0,0.0,0.0,0.0,0.0,0.0,0.0,0.0,-3.3124,-3.3124,-3.3124,-3.3124,-3.3124,-3.3124,0.0,0.0,0.0,0.0,0.0,0.0,0.0,0.0,0.0,0.0,-3.3124,-3.3124,-3.3124,-3.3124,-3.3124,-3.3124,-3.3124,-3.3124,-3.3124,-3.3124,-3.3124,-3.3124,-3.3124,0.0,0.0,0.0,0.0,0.0,0.0,0.0,0.0,0.0,0.0,0.0,0.0,0.0,0.0,0.0,0.0,0.0,0.0,0.0,0.0,0.0,0.0,0.0,0.0,0.0,0.0,0.0,0.0,0.0,0.0,0.0,0.0,0.0,0.0,0.0,0.0,0.0,-3.1311,-3.2326,0.0,-3.1311,-3.1958,-3.2779,-3.3564,-3.3404,-3.3393,-3.3769,-3.3404,-3.3244,-3.3303,-3.1168,-3.0466,-3.142,-2.9839,-2.925,-2.9713,-2.926,-2.9006,-2.9006,-2.8495,-2.8291,-2.831,-2.8574,-2.8701,-2.8711,-2.8994,-2.8955,-2.874,-2.917,-2.9336,-2.9394,-2.9814,-2.9971,-3.0039,0.0,0.0,0.0,0.0,0.0,0.0,0.0,0.0,0.0,0.0,0.0,-3.3124,-3.3124,-3.3124,-3.3124,-3.3124,-3.3124,-3.3124,-3.3124,0.0,0.0,0.0,0.0,0.0,0.0,0.0,0.0,0.0,0.0,0.0,0.0,0.0,-3.3124,-3.3124,-3.3124,-3.3124,-3.3124,-3.3124,-3.3124,-3.3124,-3.3124,-3.3124,-3.3124,0.0,0.0,0.0,0.0,0.0,0.0,0.0,0.0,0.0,0.0,0.0,0.0,0.0,0.0,0.0,0.0,0.0,0.0,0.0,0.0,0.0,0.0,0.0,0.0,0.0,0.0,0.0,0.0,0.0,0.0,0.0,0.0,0.0,0.0,-3.284,-3.2612,-3.1356,-3.2486,-3.3028,-3.2176,-3.2641,-3.333,-3.4129,-3.3924,-3.3942,-3.4265,-3.4005,-3.379,-3.379,-3.1519,-3.0525,-3.0968,-2.9349,-2.8765,-2.9236,-2.8913,-2.8982,-2.9393,-2.8928,-2.8721,-2.874,-2.9014,-2.9141,-2.917,-2.9609,-2.9609,-2.9375,-2.9668,-2.9785,-2.9834,-3.0264,-3.043,-3.0478,0.0,0.0,0.0,0.0,0.0,0.0,0.0,0.0,0.0,0.0,0.0,-3.3124,-3.3124,-3.3124,-3.3124,-3.3124,-3.3124,-3.3124,-3.3124,-3.3124,0.0,0.0,0.0,0.0,0.0,0.0,0.0,0.0,0.0,0.0,0.0,0.0,0.0,-3.3124,-3.3124,-3.3124,-3.3124,-3.3124,-3.3124,-3.3124,-3.3124,-3.3124,-3.3124,0.0,0.0,0.0,0.0,0.0,0.0,0.0,0.0,0.0,0.0,0.0,0.0,0.0,0.0,0.0,0.0,0.0,0.0,0.0,0.0,0.0,0.0,0.0,0.0,0.0,0.0,0.0,0.0,0.0,0.0,0.0,0.0,0.0,-3.1247,-3.2307,-3.2636,-3.1403,-3.2843,-3.3922,-3.3878,-3.4335,-3.4693,-3.4705,-3.5161,-3.4831,-3.3601,-3.4063,-3.436,-3.4311,-3.1728,-3.097,-3.2224,-3.0025,-2.9623,-3.0946,-3.0008,-3.0254,-3.1475,-3.0208,-2.9626,-2.9626,-2.9636,-2.9646,-2.9675,-3.0049,-3.0215,-3.0215,-3.0215,-3.0215,-3.0273,-3.0723,-3.0889,-3.0889,0.0,0.0,0.0,0.0,0.0,0.0,0.0,0.0,0.0,0.0,-3.3124,-3.3124,-3.3124,-3.3124,-3.3124,-3.3124,-3.3124,-3.3124,-3.3124,0.0,0.0,0.0,0.0,0.0,0.0,0.0,0.0,0.0,0.0,0.0,0.0,0.0,0.0,0.0,-3.3124,-3.3124,-3.3124,-3.3124,-3.3124,-3.3124,-3.3124,-3.3124,-3.3124,0.0,0.0,0.0,0.0,0.0,0.0,0.0,0.0,0.0,0.0,0.0,0.0,0.0,0.0,0.0,0.0,0.0,0.0,0.0,0.0,0.0,0.0,0.0,0.0,0.0,0.0,0.0,0.0,0.0,0.0,0.0,-3.3217,-3.3281,-3.2046,-3.2929,-3.3355,-3.2524,-3.3642,-3.4115,-3.3259,-3.3592,-3.4235,-3.5224,-3.3995,-3.3441,-3.4111,-3.3754,-3.3044,-3.1962,-3.1572,-3.1056,-3.0374,-2.9703,-2.9606,-2.9983,-2.9725,-2.9784,-3.0153,-2.9784,-2.9626,-2.9646,-2.9893,-3.0029,-3.0059,-3.0518,-3.0703,-3.0703,-3.0703,-3.0703,-3.0713,-3.084,-3.0889,-3.0889,0.0,0.0,0.0,0.0,0.0,0.0,0.0,0.0,0.0,0.0,-3.3124,-3.3124,-3.3124,-3.3124,-3.3124,-3.3124,-3.3124,-3.3124,-3.3124,0.0,0.0,0.0,0.0,0.0,0.0,0.0,0.0,0.0,0.0,0.0,0.0,0.0,0.0,0.0,-3.3124,-3.2797,-3.2283,-3.2283,-3.2283,-3.2283,-3.2283,-3.2612,-3.3025,-3.2525,-3.1821,-3.1223,-3.1223,-3.0406,-2.9361,-2.9177,0.0,0.0,0.0,0.0,0.0,0.0,0.0,0.0,0.0,0.0,0.0,0.0,0.0,0.0,0.0,0.0,0.0,0.0,0.0,0.0,0.0,0.0,0.0,0.0,-3.1872,-3.2136,-3.1972,-3.3253,-3.3888,-3.3013,-3.4158,-3.4778,-3.4061,-3.4431,-3.4795,-3.501,-3.403,-3.3577,-3.39,-3.3538,-3.2978,-3.2188,-3.1879,-3.1322,-3.0475,-3.0063,-2.9834,-2.9834,-3.0029,-3.0117,-3.0117,-3.0117,-3.0117,-3.0137,-3.0381,-3.0488,-3.0508,-3.0781,-3.0889,-3.0889,0.0,0.0,0.0,0.0,-3.0889,-3.0889,0.0,0.0,0.0,0.0,0.0,0.0,0.0,0.0,0.0,0.0,0.0,-3.3124,-3.3124,-3.3124,-3.3124,-3.3124,-3.3124,-3.3124,0.0,0.0,0.0,0.0,0.0,0.0,0.0,0.0,0.0,0.0,0.0,0.0,0.0,0.0,0.0,0.0,0.0,-3.237,-3.1223,-3.1223,-3.1223,-3.1223,-3.1223,-3.1965,-3.2939,-3.1689,-3.1134,-3.0989,-3.0855,-2.9988,-2.9131,-3.0214,0.0,0.0,0.0,0.0,0.0,0.0,0.0,0.0,0.0,0.0,0.0,0.0,0.0,0.0,0.0,0.0,0.0,0.0,0.0,0.0,0.0,0.0,0.0,0.0,-2.9463,-2.9824,-3.1538,-3.3315,-3.4087,-3.3182,-3.4424,-3.5317,-3.5226,-3.572,-3.5525,-3.4393,-3.4507,-3.4157,-3.3079,-3.3462,0.0,0.0,0.0,-3.1686,-3.1532,-3.0681,-3.0273,-3.0273,-3.0693,-3.0889,-3.0889,-3.0889,-3.0889,-3.0889,-3.0889,-3.0889,-3.0889,-3.0889,-3.0889,-3.0889,-3.0889,-3.0889,-3.0889,-3.0889,-3.0889,-3.0889,0.0,0.0,0.0,0.0,0.0,0.0,0.0,0.0,0.0,-3.3124,-3.3124,-3.3124,-3.3124,-3.3124,-3.3124,-3.3124,-3.3124,-3.3124,0.0,0.0,0.0,0.0,0.0,0.0,0.0,0.0,0.0,0.0,0.0,0.0,0.0,0.0,0.0,0.0,0.0,-3.237,-3.1223,-3.1223,-3.1223,-3.1223,-3.1223,-3.1965,-3.2939,-3.1689,-3.0586,-2.9636,-2.8634,-2.7494,-2.6476,-2.6696,-2.6476,-2.6062,-2.6062,0.0,0.0,0.0,0.0,0.0,0.0,0.0,0.0,0.0,0.0,0.0,0.0,0.0,0.0,0.0,0.0,0.0,0.0,0.0,0.0,-3.0325,-3.1008,-3.1734,-3.2124,-3.2506,-3.3102,-3.4028,-3.4414,-3.4337,-3.3568,-3.3593,-3.3657,-3.3745,-3.2935,-3.2255,-3.1933,-3.3493,-3.3323,-3.0942,-3.2122,-3.2215,-3.1019,-3.0887,-3.0752,-3.0762,-3.085,0.0,-3.0889,-3.0889,-3.0889,-3.0889,-3.0889,-3.0889,-3.0889,-3.0889,-3.0889,-3.0889,-3.0889,-3.0889,-3.0889,-3.0889,-3.0889,-3.0889,0.0,0.0,0.0,0.0,0.0,0.0,0.0,0.0,0.0,0.0,-3.3124,-3.3124,-3.3124,-3.3124,-3.3124,-3.3124,-3.3124,0.0,0.0,0.0,0.0,0.0,0.0,0.0,0.0,0.0,0.0,0.0,0.0,0.0,0.0,0.0,0.0,0.0,0.0,-3.1456,-3.0271,-2.9636,-2.9407,-2.9453,-3.0045,-3.0687,-3.119,-3.0541,-2.9544,-2.8412,-2.7814,-2.6802,-2.5781,-2.6438,-2.6245,-2.5693,-2.5693,-2.5693,-2.5693,0.0,0.0,0.0,0.0,0.0,0.0,0.0,0.0,0.0,0.0,0.0,0.0,0.0,0.0,-2.885,-2.8412,0.0,-3.0057,-2.9408,-2.9859,-3.0514,-3.1224,-3.0912,-3.1546,-3.4115,-3.3995,-3.3788,-3.398,-3.3564,-3.3436,-3.3682,-3.2642,-3.2302,-3.3052,-3.2868,-3.2415,-3.168,-3.1856,-3.1662,-3.0889,-3.0889,-3.0889,-3.0889,-3.0889,-3.0889,-3.0889,-3.0889,-3.0889,-3.0889,-3.0889,-3.0889,-3.0908,-3.1123,-3.1201,-3.123,-3.1445,-3.1269,-3.0889,-3.0889,-3.0889,-3.0918,0.0,0.0,0.0,0.0,0.0,0.0,0.0,0.0,0.0,0.0,0.0,-3.3124,-3.3124,-3.3124,-3.3124,0.0,0.0,0.0,0.0,0.0,0.0,0.0,0.0,0.0,0.0,0.0,0.0,0.0,0.0,0.0,0.0,0.0,0.0,0.0,0.0,-3.0541,-2.9315,-2.8085,-2.7589,-2.7683,-2.868,-2.9039,-2.9039,-2.9039,-2.8459,-2.7589,-2.7315,-2.6572,-2.5878,-2.6897,-2.6572,-2.5693,-2.5693,-2.5878,-2.6062,-2.6062,-2.6062,0.0,0.0,0.0,0.0,0.0,0.0,0.0,0.0,-2.6865,-2.7493,-2.7529,-2.7871,-2.8193,-2.8281,-2.8291,-2.8291,-2.8291,-2.8291,-2.8674,-2.9878,-2.9373,-3.0118,-3.3437,-3.3186,-3.3209,-3.4393,-3.4023,-3.3724,-3.3663,-3.3105,-3.3099,-3.3825,-3.2231,-3.171,-3.2633,-3.1578,-3.1016,-3.1016,-3.1103,-3.1143,-3.1143,-3.1143,-3.1143,-3.1143,-3.1143,-3.1143,-3.1143,-3.1143,-3.1143,-3.1162,-3.1504,-3.1641,-3.168,-3.2031,-3.1748,-3.1143,-3.1143,-3.1143,-3.1191,0.0,0.0,0.0,0.0,0.0,0.0,0.0,0.0,0.0,0.0,0.0,0.0,0.0,0.0,0.0,0.0,0.0,0.0,0.0,0.0,0.0,0.0,0.0,0.0,0.0,0.0,0.0,0.0,0.0,0.0,0.0,0.0,0.0,0.0,0.0,-3.0541,-2.9315,-2.8085,-2.7589,-2.7589,-2.7767,-2.7814,-2.7814,-2.7814,-2.7731,-2.7447,-2.6342,-2.583,-2.5742,-2.5878,-2.583,-2.5693,-2.5693,-2.6476,-2.741,-2.741,-2.741,-2.7636,-2.8669,-2.8179,-2.7125,-2.5965,-2.582,-2.5947,0.0,-2.6182,-2.6641,-2.7012,-2.7432,-2.7904,-2.8223,-2.8291,-2.8291,-2.8291,-2.8291,-2.8472,-2.9006,-2.8996,-2.9669,-3.1654,-3.1847,-3.1983,-3.2604,-3.366,-3.3988,-3.3226,-3.4294,-3.3892,-3.1419,-3.2291,-3.2311,-3.116,-3.1309,-3.1445,-3.1445,-3.1836,-3.2021,-3.2021,-3.2021,-3.2021,-3.2021,-3.2021,-3.2021,-3.2021,-3.2021,-3.2021,-3.2031,-3.207,-3.21,-3.21,-3.2148,-3.2109,-3.2021,-3.2021,-3.2021,-3.2031,0.0,0.0,0.0,0.0,0.0,0.0,0.0,0.0,0.0,0.0,0.0,0.0,0.0,0.0,0.0,0.0,0.0,0.0,0.0,0.0,0.0,0.0,0.0,0.0,0.0,0.0,0.0,0.0,0.0,0.0,0.0,0.0,0.0,0.0,-3.1777,-3.0541,-2.9315,-2.8085,-2.7589,-2.7589,-2.7589,-2.7589,-2.7589,-2.7589,-2.7125,-2.6428,-2.5878,-2.5693,0.0,0.0,-2.5693,-2.583,-2.6572,-2.7173,-2.7731,-2.8448,-2.8634,-2.8588,-2.8412,-2.7447,-2.639,-2.583,-2.5928,-2.6055,-2.5742,-2.6465,-2.7109,-2.7031,-2.7559,-2.8086,-2.8262,-2.8291,-2.8291,-2.8291,-2.8496,-2.8721,-2.8896,-2.9346,-3.0266,-3.185,-3.1528,-3.1492,-3.2208,-3.3106,-3.3463,-3.3113,-3.2871,-3.2653,-3.2516,-3.2304,-3.2036,-3.1681,-3.1807,-3.1894,-3.1894,-3.208,-3.2229,-3.2229,-3.2229,-3.2229,-3.2229,-3.2229,-3.2229,-3.2229,-3.2229,-3.2229,-3.2248,-3.2432,-3.2529,-3.2559,-3.2803,-3.29,-3.2842,-3.2353,-3.2229,-3.2207,0.0,0.0,0.0,0.0,0.0,0.0,0.0,0.0,0.0,0.0,0.0,0.0,0.0,0.0,0.0,0.0,0.0,0.0,0.0,0.0,0.0,0.0,0.0,0.0,0.0,0.0,0.0,0.0,0.0,0.0,0.0,0.0,0.0,0.0,-3.1777,-3.0721,-2.9818,-2.8588,-2.8085,-2.8085,-2.772,-2.7589,-2.7589,-2.7589,-2.703,-2.6197,-2.583,-2.5927,0.0,0.0,-2.5917,-2.6342,-2.6897,-2.7542,-2.8272,-2.9131,-2.9407,-2.9039,-2.7494,-2.638,-2.5693,-2.5693,-2.5977,-2.6251,-2.6426,-2.7021,-2.7525,-2.7719,-2.8025,-2.8291,-2.8291,-2.8291,-2.833,-2.8447,-2.8721,-2.9004,-2.9238,-3.0132,-3.1113,-3.1902,-3.206,-3.2017,-3.183,-3.2596,-3.313,-3.3256,-3.2275,-3.2129,-3.3248,-3.2256,-3.1846,-3.2219,-3.2285,-3.2344,-3.2344,-3.2461,-3.2519,-3.2519,-3.2519,-3.2519,-3.2519,-3.2519,-3.2519,-3.2519,-3.2519,-3.2519,-3.2539,-3.2842,-3.2969,-3.2998,-3.3301,-3.3418,-3.335,-3.2744,-3.2519,-3.2559,0.0,0.0,0.0,0.0,0.0,0.0,0.0,0.0,0.0,0.0,0.0,0.0,0.0,0.0,0.0,0.0,0.0,0.0,0.0,0.0,0.0,0.0,0.0,0.0,0.0,0.0,0.0,0.0,0.0,0.0,0.0,0.0,0.0,0.0,-3.1777,-3.1166,-3.1089,-2.9863,-2.9361,-2.9223,-2.8085,-2.7589,-2.7589,-2.7589,-2.7589,-2.7352,-2.6159,0.0,0.0,0.0,-2.6524,-2.7305,-2.6149,-2.7389,0.0,-2.9407,-2.9407,-2.8855,-2.6428,-2.5732,-2.5693,-2.5693,-2.5703,-2.6191,-2.7925,-2.7671,-2.7538,-2.9237,-2.8894,-2.8291,-2.8291,-2.8291,-2.8428,-2.8838,-2.8916,-2.9209,-3.0039,-3.1426,-3.2014,-3.1043,-3.3417,-3.4024,-3.1199,-3.2254,-3.3256,-3.3628,-3.3612,-3.32,-3.2291,-3.2209,-3.2219,-3.2229,-3.2559,-3.2773,-3.2773,-3.3184,-3.3379,-3.3379,-3.3379,-3.3379,-3.3379,-3.3379,-3.3379,-3.3379,-3.3379,-3.3379,-3.3379,-3.3398,-3.3408,-3.3408,-3.3418,-3.3418,-3.3418,-3.3389,-3.3379,-3.3389,0.0,0.0,0.0,0.0,0.0,0.0,0.0,0.0,0.0,0.0,0.0,0.0,0.0,0.0,0.0,0.0,0.0,0.0,0.0,0.0,0.0,0.0,0.0,0.0,0.0,0.0,0.0,0.0,0.0,0.0,0.0,0.0,0.0,0.0,-3.2655,-3.2008,-3.1178,-3.0765,-3.0586,-3.0496,-2.9269,-2.8773,-2.8773,-2.8773,-2.8319,-2.7636,0.0,0.0,0.0,0.0,-2.7268,-2.7683,-2.8038,-2.8716,-2.9727,-3.1368,-3.0687,-2.9223,-2.8402,-2.6935,-2.5693,-2.5693,-2.5693,-2.6171,-2.7983,-2.7671,-2.7528,-2.9359,-2.9653,-2.9752,-3.0103,-3.0112,-3.0265,-3.0761,-3.1025,-3.1322,-3.162,-3.2367,-3.3124,-3.3733,-3.2985,-3.2492,-3.2721,-3.3184,-3.3141,-3.2283,-3.2515,-3.2644,-3.262,-3.2588,-3.2715,-3.2988,-3.3135,-3.3213,-3.3213,-3.335,-3.3418,-3.3418,-3.3418,-3.3418,-3.3418,-3.3418,-3.3418,-3.3418,-3.3418,-3.3418,-3.3418,-3.3418,-3.3418,-3.3418,-3.3418,-3.3418,-3.3418,-3.3418,-3.3418,-3.3418,0.0,0.0,0.0,0.0,0.0,0.0,0.0,0.0,0.0,0.0,0.0,0.0,0.0,0.0,0.0,0.0,0.0,0.0,0.0,0.0,0.0,0.0,0.0,0.0,0.0,0.0,0.0,0.0,0.0,0.0,0.0,0.0,0.0,0.0,-3.3124,-3.2655,-3.1877,-3.1877,-3.1877,-3.1777,-3.0541,-3.0045,-3.0045,-3.0045,-2.9544,0.0,0.0,0.0,0.0,0.0,-2.8179,-2.8855,-2.8762,-2.9361,-3.0271,-3.1424,-3.0643,-2.9315,-2.8855,-2.7579,-2.639,-2.639,-2.6876,-2.7524,-2.8408,-2.8294,-2.835,-2.964,-3.0118,-3.0454,-3.1021,-3.1063,-3.138,-3.2588,-3.257,-3.2482,-3.2605,-3.3383,-3.3856,-3.3754,-3.254,-3.1996,-3.2809,-3.3062,-3.2821,-3.2013,-3.2236,-3.2578,-3.2998,-3.3018,-3.3144,-3.3418,-3.3418,-3.3418,-3.3418,-3.3418,-3.3418,-3.3418,-3.3418,-3.3418,-3.3418,-3.3418,-3.3418,-3.3418,-3.3418,-3.3418,-3.3418,-3.3418,-3.3418,-3.3418,-3.3418,-3.3418,-3.3418,-3.3418,-3.3418,-3.3418,0.0,0.0,0.0,0.0,0.0,0.0,0.0,0.0,0.0,0.0,0.0,0.0,0.0,0.0,0.0,0.0,0.0,0.0,0.0,0.0,0.0,0.0,0.0,0.0,0.0,0.0,0.0,0.0,0.0,0.0,0.0,0.0,0.0,0.0,-3.3124,-3.3124,-3.3124,-3.3124,-3.3124,-3.2982,-3.1777,-3.1267,-3.1223,-3.1267,0.0,0.0,0.0,0.0,0.0,0.0,-2.9315,-3.081,-2.8505,-2.9407,-3.1033,-2.9863,-2.9453,-2.9131,-2.8002,-2.7636,-2.7589,-2.7589,-2.89,-2.9986,-2.9172,-2.936,-2.9823,-3.0326,-3.0421,-3.0621,-3.1201,-3.1307,-3.1977,-3.4265,-3.3442,-3.2675,-3.3071,-3.4292,-3.4191,-3.1441,-3.2227,-3.2689,-3.1732,-3.2004,-3.2373,-3.2793,-3.2832,-3.2998,-3.3398,-3.3418,-3.3418,-3.3418,-3.3418,-3.3418,-3.3418,-3.3418,-3.3418,-3.3418,-3.3418,-3.3418,-3.3418,-3.3418,-3.3418,-3.3418,-3.3418,-3.3418,-3.3418,-3.3418,-3.3418,-3.3418,-3.3418,-3.3418,-3.3418,-3.3418,-3.3418,-3.3418,0.0,0.0,0.0,0.0,0.0,0.0,0.0,0.0,0.0,0.0,0.0,0.0,0.0,0.0,0.0,0.0,0.0,0.0,0.0,0.0,0.0,0.0,0.0,0.0,0.0,0.0,0.0,0.0,0.0,0.0,0.0,0.0,0.0,0.0,0.0,-3.3124,-3.3124,-3.3124,-3.3124,-3.3068,0.0,-3.2052,-3.1311,0.0,0.0,0.0,0.0,0.0,0.0,-3.0911,-3.0676,-3.1089,-3.0496,-3.1368,-3.2382,-3.1089,-3.0079,-2.9315,-2.9039,-2.8272,-2.7589,-2.7589,-2.89,-2.9986,-2.9172,-2.936,-3.0117,-3.1484,-3.1785,-3.2396,-3.4383,-3.467,-3.4692,-3.505,-3.4824,-3.4206,-3.3226,-3.3406,-3.38,-3.4146,-3.2829,-3.2362,-3.3546,-3.3084,-3.2812,-3.3232,-3.3262,-3.331,-3.3418,-3.3418,-3.3418,-3.3418,-3.3418,-3.3418,-3.3418,-3.3418,-3.3418,-3.3418,-3.3418,-3.3418,-3.3418,-3.3418,-3.3418,-3.3418,-3.3418,-3.3418,-3.3418,-3.3418,-3.3418,-3.3418,-3.3418,-3.3418,-3.3418,-3.3418,-3.3418,-3.3418,0.0,0.0,0.0,0.0,0.0,0.0,0.0,0.0,0.0,0.0,0.0,0.0,0.0,0.0,0.0,0.0,0.0,0.0,0.0,0.0,0.0,0.0,0.0,0.0,0.0,0.0,0.0,0.0,0.0,0.0,0.0,0.0,0.0,0.0,0.0,-3.3124,-3.3124,0.0,0.0,0.0,0.0,0.0,0.0,0.0,0.0,0.0,0.0,0.0,0.0,-3.2283,-3.1677,-3.1311,-3.1865,-3.2513,-3.284,-3.1589,-3.0721,-3.0181,-3.0181,-2.9681,-2.9233,-2.9502,-3.0905,-3.1833,-3.0504,-3.0998,-3.1867,-3.2236,-3.2794,-3.3746,-3.5358,-3.5753,-3.582,-3.5917,-3.5591,-3.4792,-3.3293,-3.3687,-3.3912,-3.3427,-3.2709,-3.2547,-3.3363,-3.2902,-3.2773,-3.3379,-3.3418,-3.3418,-3.3418,-3.3418,-3.3418,-3.3418,-3.3418,-3.3418,-3.3418,-3.3418,-3.3418,-3.3418,-3.3418,-3.3418,-3.3418,-3.3418,-3.3418,-3.3418,-3.3418,-3.3418,-3.3418,-3.3418,-3.3418,-3.3418,-3.3418,-3.3418,-3.3418,-3.3418,-3.3418,-3.3418,0.0,0.0,0.0,0.0,0.0,0.0,0.0,0.0,0.0,0.0,0.0,0.0,0.0,0.0,0.0,0.0,0.0,0.0,0.0,0.0,0.0,0.0,0.0,0.0,0.0,0.0,0.0,0.0,0.0,0.0,0.0,0.0,0.0,0.0,0.0,0.0,0.0,0.0,0.0,0.0,0.0,0.0,0.0,0.0,0.0,0.0,0.0,0.0,0.0,0.0,-3.2382,-3.1645,-3.2754,-3.3124,-3.284,-3.1589,-3.1223,-3.1223,-3.1223,-3.1223,-3.1354,-3.1946,-3.342,-3.4188,-3.2137,-3.3105,-3.4068,-3.2844,-3.3563,-3.4638,-3.5337,-3.5815,-3.6251,-3.6649,-3.5883,-3.4847,-3.3575,-3.4348,-3.4136,-3.1777,-3.2477,-3.3,-3.2544,-3.2329,-3.2578,-3.3359,-3.3418,-3.3418,-3.3418,-3.3418,-3.3418,-3.3418,-3.3418,-3.3418,-3.3418,-3.3418,-3.3418,-3.3418,-3.3418,-3.3418,-3.3418,-3.3418,-3.3418,-3.3418,-3.3418,-3.3418,-3.3418,-3.3418,-3.3418,-3.3418,-3.3418,-3.3418,-3.3418,-3.3418,-3.3418,-3.3418,0.0,0.0,0.0,0.0,0.0,0.0,0.0,0.0,0.0,0.0,-3.3124,-3.3124,0.0,0.0,0.0,0.0,0.0,0.0,0.0,0.0,0.0,0.0,0.0,0.0,0.0,0.0,0.0,0.0,0.0,0.0,0.0,0.0,0.0,0.0,0.0,0.0,0.0,0.0,0.0,0.0,0.0,0.0,0.0,0.0,0.0,0.0,0.0,0.0,0.0,0.0,-3.2939,-3.2797,-3.3025,-3.3124,-3.284,-3.1589,-3.1223,-3.1223,-3.1223,-3.1223,-3.1354,-3.1946,-3.342,-3.4188,-3.2137,-3.3105,-3.4337,-3.408,-3.4227,-3.4895,-3.6564,-3.727,-3.7404,-3.6817,-3.5883,-3.5233,-3.4958,-3.408,-3.3744,-3.447,-3.3973,-3.3728,-3.3997,-3.3235,-3.2891,-3.3379,-3.3418,-3.3418,-3.3418,-3.3418,-3.3418,-3.3418,-3.3418,-3.3418,-3.3418,-3.3418,-3.3418,-3.3418,-3.3418,-3.3418,-3.3418,-3.3418,-3.3418,-3.3418,-3.3418,-3.3418,-3.3418,-3.3418,-3.3418,-3.3418,-3.3418,-3.3418,-3.3418,-3.3418,-3.3418,-3.3418,0.0,0.0,0.0,0.0,0.0,0.0,0.0,-3.3124,-3.3124,-3.3124,-3.3124,-3.3124,-3.3124,-3.3124,-3.3124,0.0,0.0,0.0,0.0,0.0,0.0,0.0,0.0,0.0,0.0,0.0,-3.3124,-3.3124,0.0,-3.3124,-3.3124,-3.3124,-3.3124,-3.3124,-3.3124,0.0,0.0,0.0,0.0,0.0,0.0,0.0,0.0,0.0,0.0,0.0,0.0,0.0,0.0,0.0,-3.3124,-3.3124,-3.3124,-3.3124,-3.2982,-3.2382,-3.2196,-3.2196,-3.2196,-3.2196,-3.2391,-3.3224,-3.4094,-3.4608,-3.4246,-3.4824,-3.5415,-3.5415,-3.5415,-3.5705,-3.6601,-3.7211,-3.7295,-3.6359,-3.6139,-3.5864,-3.5364,-3.5332,-3.5387,-3.5288,-3.4834,-3.4418,-3.4101,-3.3075,-3.2637,-3.3066,-3.3301,-3.3418,-3.3418,-3.3418,-3.3418,-3.3418,-3.3418,-3.3418,-3.3418,-3.3418,-3.3418,-3.3418,-3.3418,-3.3418,-3.3418,-3.3418,-3.3418,-3.3418,-3.3418,-3.3418,-3.3418,-3.3418,-3.3418,-3.3418,-3.3418,-3.3418,-3.3418,-3.3418,-3.3418,-3.3418,0.0,0.0,0.0,0.0,0.0,0.0,0.0,-3.3124,-3.3124,-3.3124,-3.3124,-3.3124,-3.3124,-3.3124,-3.3124,0.0,0.0,0.0,0.0,0.0,0.0,0.0,0.0,0.0,0.0,0.0,0.0,-3.3124,-3.3124,0.0,0.0,0.0,0.0,0.0,-3.3124,-3.3124,-3.3124,0.0,0.0,0.0,0.0,-3.3124,0.0,0.0,0.0,0.0,0.0,0.0,0.0,0.0,-3.3124,-3.3124,-3.3124,-3.3124,-3.3124,-3.3124,-3.3124,-3.3124,-3.3124,-3.3124,-3.3345,-3.4449,-3.468,-3.5014,-3.6153,-3.6405,-3.6405,-3.6405,-3.6405,-3.6405,-3.6405,-3.6857,-3.7008,-3.6355,-3.6514,-3.6596,-3.6268,-3.6984,-3.7079,-3.589,-3.5508,-3.4868,-3.3812,-3.2764,-3.2344,-3.2764,-3.3184,-3.3418,-3.3418,-3.3418,-3.3418,-3.3418,-3.3418,-3.3418,-3.3418,-3.3418,-3.3418,-3.3418,-3.3418,-3.3418,-3.3418,-3.3418,-3.3418,-3.3418,-3.3418,-3.3418,-3.3418,-3.3418,-3.3418,-3.3418,-3.3418,-3.3418,-3.3418,-3.3418,-3.3418,-3.3418,0.0,0.0,0.0,0.0,0.0,0.0,0.0,-3.3124,-3.3124,-3.3124,-3.3124,-3.3124,-3.3124,-3.3124,-3.3124,0.0,0.0,0.0,0.0,0.0,0.0,0.0,0.0,0.0,0.0,0.0,0.0,-3.3124,-3.3124,0.0,0.0,0.0,0.0,0.0,0.0,-3.3124,-3.3124,-3.3124,0.0,0.0,0.0,0.0,0.0,0.0,0.0,0.0,0.0,-3.3124,-3.3124,-3.3124,-3.3124,-3.3124,-3.3124,-3.3124,-3.3124,-3.3124,-3.3124,-3.3124,-3.3124,-3.3124,-3.3345,-3.4449,-3.468,-3.5014,-3.6153,-3.6405,-3.6405,-3.6405,-3.6405,-3.6405,-3.6405,-3.6857,-3.7313,-3.7704,-3.7193,-3.7312,-3.9067,-3.8243,-3.7465,-3.7305,-3.6108,-3.4868,-3.3812,-3.2764,-3.2344,-3.2764,-3.3184,-3.3418,-3.3418,-3.3418,-3.3418,-3.3418,-3.3418,-3.3418,-3.3418,-3.3418,-3.3418,-3.3418,-3.3418,-3.3418,-3.3418,-3.3418,-3.3418,-3.3418,-3.3418,-3.3418,-3.3418,-3.3418,-3.3418,-3.3418,-3.3418,-3.3418,-3.3418,-3.3418,-3.3418,-3.3418,0.0,0.0,0.0,0.0,0.0,0.0,-3.3124,-3.3124,-3.3124,-3.3124,-3.3124,-3.3124,-3.3124,-3.3124,-3.3124,-3.3124,0.0,0.0,0.0,0.0,0.0,0.0,0.0,0.0,0.0,0.0,-3.3124,-3.3124,-3.3124,0.0,0.0,0.0,0.0,0.0,0.0,-3.3124,-3.3124,-3.3124,0.0,0.0,0.0,0.0,0.0,0.0,0.0,0.0,0.0,0.0,-3.3124,-3.3124,-3.3124,-3.3124,-3.3124,-3.3124,-3.3124,-3.3124,-3.3124,-3.3124,-3.3124,-3.3124,-3.3345,-3.4449,-3.468,-3.5014,-3.6153,-3.6405,-3.6405,-3.6405,-3.6405,-3.6405,-3.6405,-3.6581,-3.6973,-3.7864,-3.7717,-3.8012,-3.9508,-3.9181,-3.8804,-3.8804,-3.753,-3.6122,-3.4778,-3.3712,-3.3024,-3.2806,-3.2949,-3.3154,-3.3408,-3.3418,-3.3418,-3.3418,-3.3418,-3.3418,-3.3418,-3.3418,-3.3418,-3.3418,-3.3418,-3.3418,-3.3418,-3.3418,-3.3418,-3.3418,-3.3418,-3.3418,-3.3418,-3.3418,-3.3418,-3.3418,-3.3418,-3.3418,-3.3418,-3.3418,-3.3418,-3.3418,0.0,0.0,0.0,0.0,0.0,-3.3124,-3.3124,-3.3124,-3.3124,-3.3124,-3.3124,-3.3124,-3.3124,-3.3124,-3.3124,-3.3124,-3.3124,0.0,0.0,0.0,0.0,0.0,0.0,0.0,0.0,0.0,-3.3124,-3.3124,-3.3124,-3.3124,0.0,0.0,-3.3124,-3.3124,0.0,0.0,0.0,0.0,0.0,0.0,0.0,0.0,0.0,0.0,0.0,0.0,0.0,0.0,0.0,0.0,0.0,-3.3124,0.0,0.0,0.0,0.0,-3.3124,-3.3124,-3.3124,-3.3124,-3.3345,-3.4449,-3.468,-3.5014,-3.6153,-3.6405,-3.6405,-3.6405,-3.6405,-3.6405,-3.6405,-3.6405,-3.6719,-3.7613,-3.7902,-3.8341,-3.932,-3.9584,-3.9697,-3.9697,-3.8413,-3.6918,-3.5453,-3.3933,-3.295,-3.2672,-3.2725,-3.292,-3.3223,-3.335,-3.3418,-3.3418,-3.3418,-3.3418,-3.3418,-3.3418,-3.3418,-3.3418,-3.3418,-3.3418,-3.3418,-3.3418,-3.3418,-3.3418,-3.3418,-3.3418,-3.3418,-3.3418,-3.3418,-3.3418,-3.3418,-3.3418,-3.3418,-3.3418,-3.3418,-3.3418,0.0,0.0,0.0,0.0,0.0,0.0,-3.3124,-3.3124,-3.3124,-3.3124,-3.3124,-3.3124,-3.3124,-3.3124,-3.3124,-3.3124,-3.3124,0.0,0.0,0.0,0.0,0.0,0.0,0.0,0.0,0.0,-3.3124,-3.3124,-3.3124,-3.3124,-3.3124,-3.3124,-3.3124,-3.3124,0.0,0.0,0.0,0.0,0.0,0.0,0.0,0.0,0.0,0.0,0.0,0.0,0.0,0.0,0.0,0.0,0.0,0.0,0.0,0.0,0.0,0.0,-3.3124,-3.3124,-3.3124,-3.3124,-3.3345,-3.4449,-3.468,-3.5014,-3.6153,-3.6405,-3.6405,-3.6405,-3.6405,-3.6405,-3.6405,-3.6405,-3.6593,-3.7098,-3.7651,-3.8216,-3.8793,-3.9346,-3.9697,-3.9697,-3.8413,-3.6918,-3.5453,-3.3,-3.1699,-3.2139,-3.2559,-3.2793,-3.2803,-3.3193,-3.3418,-3.3418,-3.3418,-3.3418,-3.3418,-3.3418,-3.3418,-3.3418,-3.3418,-3.3418,-3.3418,-3.3418,-3.3418,-3.3418,-3.3418,-3.3418,-3.3418,-3.3418,-3.3418,-3.3418,-3.3418,-3.3418,-3.3418,-3.3418,-3.3418,-3.3418,0.0,0.0,0.0,0.0,0.0,0.0,0.0,-3.3124,-3.3124,-3.3124,-3.3124,-3.3124,-3.3124,-3.3124,-3.3124,-3.3124,-3.3124,0.0,0.0,0.0,0.0,0.0,0.0,0.0,0.0,0.0,-3.3124,-3.3124,-3.3124,-3.3124,-3.3124,-3.3124,-3.3124,-3.3124,-3.3124,-3.3124,0.0,0.0,0.0,0.0,0.0,0.0,-3.3124,0.0,0.0,0.0,0.0,0.0,0.0,0.0,0.0,0.0,0.0,0.0,0.0,0.0,0.0,-3.3124,-3.3124,-3.3124,-3.3345,-3.4449,-3.468,-3.5014,-3.6153,-3.6405,-3.6405,-3.6405,-3.6405,-3.6405,-3.6405,-3.6405,-3.6593,-3.7098,-3.7651,-3.8203,-3.8844,-3.9346,-3.9697,-3.9697,-3.8413,-3.6918,-3.5453,-3.3657,-3.2373,-3.1749,-3.1846,-3.2051,-3.2353,-3.249,-3.2832,-3.3408,-3.3418,-3.3418,-3.3418,-3.3418,-3.3418,-3.3418,-3.3418,-3.3418,-3.3418,-3.3418,-3.3418,-3.3418,-3.3418,-3.3418,-3.3418,-3.3418,-3.3418,-3.3418,-3.3418,-3.3418,-3.3418,-3.3418,-3.3418,-3.3418,0.0,0.0,0.0,0.0,0.0,0.0,0.0,-3.3124,-3.3124,-3.3124,-3.3124,-3.3124,-3.3124,-3.3124,-3.3124,-3.3124,-3.3124,0.0,0.0,0.0,0.0,0.0,0.0,0.0,0.0,-3.3124,-3.3124,-3.3124,-3.3124,-3.3124,-3.3124,-3.3124,-3.3124,-3.3124,-3.3124,-3.3124,0.0,0.0,0.0,0.0,0.0,0.0,-3.3124,0.0,0.0,0.0,0.0,0.0,0.0,0.0,0.0,0.0,0.0,0.0,0.0,0.0,-3.3533,-3.3608,-3.3194,-3.3275,-3.3608,-3.45,-3.4831,-3.5265,-3.6204,-3.6405,-3.6405,-3.6405,-3.6405,-3.6405,-3.6405,-3.6405,-3.6518,-3.6857,-3.7513,-3.814,-3.8492,-3.9207,-3.9697,-3.9697,-3.8413,-3.7133,-3.6217,-3.4292,-3.2804,-3.215,-3.1702,-3.1641,-3.1904,-3.208,-3.2412,-3.293,-3.3105,-3.3184,-3.3184,-3.334,-3.3418,-3.3418,-3.3418,-3.3418,-3.3418,-3.3418,-3.3418,-3.3418,-3.3418,-3.3418,0.0,-3.3418,-3.3418,-3.3418,-3.3418,-3.3418,-3.3418,-3.3418,-3.3418,-3.3418,0.0,0.0,0.0,0.0,0.0,0.0,0.0,-3.3124,-3.3124,-3.3124,-3.3124,-3.3124,-3.3124,-3.3124,-3.3124,-3.3124,0.0,0.0,0.0,0.0,0.0,0.0,0.0,0.0,-3.3124,-3.3124,-3.3124,-3.3124,-3.3124,-3.3124,-3.3124,-3.3124,-3.3124,-3.3124,-3.3124,-3.3124,0.0,0.0,0.0,0.0,0.0,0.0,0.0,0.0,0.0,0.0,0.0,0.0,0.0,0.0,0.0,0.0,0.0,0.0,0.0,0.0,0.0,0.0,0.0,-3.3571,-3.4085,-3.4638,-3.5119,-3.5646,-3.6279,0.0,0.0,-3.6405,-3.6405,-3.6405,-3.6405,-3.6405,-3.6405,-3.6405,-3.7262,-3.7965,-3.8002,-3.8981,-3.9697,-3.9697,-3.8465,-3.7636,-3.7518,-3.5002,-3.335,-3.3134,-3.2198,-3.1584,-3.1475,-3.1855,-3.2141,-3.2141,-3.249,-3.2715,-3.2754,-3.3135,-3.335,-3.3379,-3.3379,-3.3389,-3.3418,-3.3418,-3.3418,-3.3418,-3.3418,-3.3418,-3.3418,-3.3418,-3.3418,-3.3418,-3.3418,-3.3418,-3.3418,-3.3418,-3.3418,-3.3418,0.0,0.0,0.0,0.0,0.0,0.0,0.0,0.0,0.0,0.0,-3.3124,-3.3124,-3.3124,-3.3124,-3.3124,0.0,0.0,0.0,0.0,0.0,0.0,0.0,0.0,0.0,-3.3124,-3.3124,-3.3124,-3.3124,-3.3124,-3.3124,-3.3124,-3.3124,-3.3124,-3.3124,-3.3124,-3.3124,0.0,0.0,0.0,0.0,0.0,0.0,0.0,0.0,0.0,0.0,-3.3709,-3.406,0.0,0.0,0.0,0.0,0.0,0.0,0.0,0.0,-3.4625,-3.4618,-3.4412,0.0,-3.4618,-3.5169,-3.5408,-3.5646,0.0,0.0,0.0,0.0,0.0,0.0,0.0,-3.6405,-3.6405,-3.6405,-3.6983,-3.7525,-3.7952,-3.8981,-3.9697,-3.9697,-3.9413,-3.8739,-3.7636,-3.6865,-3.554,-3.3293,-3.2841,-3.2245,-3.1094,-3.1133,-3.1191,-3.1191,-3.1601,-3.1982,-3.2314,-3.2412,-3.2627,-3.2939,-3.2939,-3.3105,-3.3418,-3.3418,-3.3418,-3.3418,-3.3418,-3.3418,-3.3418,-3.3418,-3.3418,-3.3418,-3.3418,-3.3418,-3.3418,-3.3418,-3.3418,-3.3418,0.0,0.0,0.0,0.0,0.0,0.0,0.0,0.0,0.0,0.0,0.0,0.0,0.0,0.0,0.0,0.0,0.0,0.0,0.0,0.0,0.0,0.0,0.0,-3.3124,-3.3124,-3.3124,-3.3124,-3.3124,-3.3124,-3.3124,-3.3124,-3.3124,-3.3124,-3.3124,-3.3124,-3.3124,0.0,0.0,0.0,0.0,-3.3124,0.0,0.0,0.0,0.0,0.0,-3.4186,-3.4625,0.0,-3.5056,-3.5265,-3.5479,0.0,0.0,0.0,0.0,-3.5278,-3.5416,-3.5119,-3.5056,-3.5132,-3.542,-3.5683,-3.5994,-3.6342,0.0,0.0,0.0,0.0,0.0,0.0,-3.6405,-3.6405,-3.6405,-3.7036,-3.7852,-3.8668,-3.9308,-3.9697,-3.9697,-3.9697,-3.9413,-3.8582,-3.7914,-3.6865,-3.5211,-3.4504,-3.3473,-3.1988,-3.193,-3.1604,-3.0947,-3.1113,-3.1435,-3.1865,-3.207,-3.2285,-3.251,-3.251,-3.2725,-3.3135,-3.3135,-3.3242,-3.3418,-3.3418,-3.3418,-3.3418,-3.3418,-3.3418,-3.3418,-3.3418,-3.3418,-3.3418,-3.3418,-3.3418,-3.3418,0.0,0.0,0.0,0.0,0.0,0.0,0.0,0.0,0.0,0.0,0.0,0.0,0.0,0.0,0.0,0.0,0.0,0.0,0.0,0.0,0.0,0.0,0.0,-3.3124,-3.3124,-3.3124,-3.3124,-3.3124,-3.3124,-3.3124,-3.3124,-3.3124,-3.3124,-3.3124,-3.3124,-3.3124,0.0,-3.3124,-3.3124,-3.3124,-3.3124,0.0,0.0,0.0,0.0,0.0,0.0,0.0,0.0,-3.5621,-3.5981,-3.6405,-3.6405,0.0,0.0,0.0,0.0,0.0,-3.5805,-3.5621,-3.5621,-3.5621,-3.6019,-3.6405,-3.6405,0.0,0.0,0.0,0.0,0.0,0.0,-3.6405,-3.6405,-3.6405,-3.7287,-3.8341,-3.9295,-3.9584,-3.9697,-3.9697,-3.9697,-3.9697,-3.9697,-3.8582,-3.7743,-3.7518,-3.6325,-3.5013,-3.3519,-3.3247,-3.253,-3.1276,-3.0995,-3.1064,-3.1426,-3.1787,-3.2002,-3.207,-3.207,-3.2295,-3.2695,-3.2695,-3.293,-3.333,-3.333,-3.3359,-3.3418,-3.3418,-3.3418,-3.3418,-3.3418,-3.3418,-3.3418,-3.3418,-3.3418,-3.3418,0.0,0.0,0.0,0.0,0.0,0.0,0.0,0.0,0.0,0.0,0.0,0.0,0.0,0.0,0.0,0.0,0.0,0.0,0.0,0.0,0.0,-3.3124,-3.3124,-3.3124,-3.3124,-3.3124,-3.3124,-3.3124,-3.3124,-3.3124,-3.3124,-3.3124,-3.3124,-3.3124,-3.3124,-3.3124,-3.3124,-3.3124,-3.3124,-3.3124,-3.3124,0.0,0.0,0.0,0.0,0.0,0.0,0.0,0.0,-3.6279,-3.6329,-3.6405,-3.6405,0.0,0.0,0.0,0.0,0.0,-3.6304,-3.6279,-3.6279,-3.6279,-3.6342,-3.6405,-3.6405,0.0,0.0,0.0,0.0,0.0,-3.6405,-3.6405,-3.6405,-3.6405,-3.7287,-3.8065,-3.8241,-3.9082,-3.9697,-3.9697,-3.9697,-3.9697,-3.9697,-3.953,-3.8856,-3.7571,-3.7305,-3.6541,-3.5013,-3.38,-3.3021,-3.2747,-3.1546,-3.0918,-3.0986,-3.1055,-3.1269,-3.1621,-3.1621,-3.1846,-3.2266,-3.2266,-3.249,-3.2891,-3.2891,-3.3096,-3.3418,-3.3418,-3.3418,-3.3418,-3.3418,-3.3418,-3.3418,-3.3418,-3.3418,-3.3418,0.0,0.0,0.0,0.0,0.0,0.0,0.0,0.0,0.0,0.0,0.0,0.0,0.0,0.0,0.0,0.0,0.0,0.0,0.0,0.0,0.0,-3.3124,-3.3124,-3.3124,-3.3124,-3.3124,-3.3124,-3.3124,-3.3124,-3.3124,-3.3124,-3.3124,-3.3124,-3.3124,-3.3124,-3.3124,-3.3124,-3.3124,-3.3124,-3.3149,0.0,0.0,0.0,0.0,0.0,0.0,0.0,0.0,0.0,0.0,-3.6405,-3.6405,-3.6405,0.0,0.0,0.0,0.0,0.0,-3.6405,-3.6405,-3.6405,-3.6405,-3.6405,-3.6405,-3.6405,-3.6405,0.0,0.0,0.0,0.0,-3.6405,-3.6405,-3.6505,-3.6807,-3.7475,-3.8115,-3.8429,-3.9182,-3.9697,-3.9697,-3.9697,-3.9697,-3.9697,-3.9697,-3.9413,-3.8739,-3.8687,-3.7701,-3.5398,-3.4681,-3.3586,-3.1988,-3.1276,-3.0889,-3.0889,-3.0889,-3.0986,-3.1182,-3.1182,-3.1406,-3.1816,-3.1816,-3.2051,-3.2471,-3.2695,-3.29,-3.3105,-3.333,-3.3418,-3.3418,-3.3418,-3.3418,-3.3418,-3.3418,-3.3418,-3.3418,0.0,0.0,0.0,0.0,0.0,0.0,0.0,0.0,0.0,0.0,0.0,0.0,0.0,0.0,0.0,0.0,0.0,0.0,0.0,0.0,-3.3356,-3.3124,-3.3556,-3.3586,-3.3124,-3.3124,-3.3124,-3.3124,-3.3124,-3.3124,-3.3124,-3.3124,-3.3124,-3.3124,-3.3124,-3.3124,-3.3124,-3.3124,-3.3156,-3.3307,0.0,0.0,0.0,0.0,0.0,0.0,0.0,0.0,0.0,0.0,0.0,0.0,0.0,0.0,0.0,-3.6405,-3.6405,-3.6405,-3.6405,-3.6405,-3.6405,-3.6405,-3.6405,-3.6405,-3.6405,-3.6405,-3.6405,0.0,-3.6405,-3.6405,-3.6405,-3.6405,-3.6543,-3.6971,-3.7563,-3.8165,-3.8605,-3.9258,-3.9697,-3.9697,-3.9697,-3.9697,-3.9697,-3.9697,-3.9697,-3.9697,-3.9697,-3.8699,-3.6445,-3.5999,-3.4626,-3.1998,-3.1604,-3.1276,-3.0889,-3.0889,-3.0889,-3.0889,-3.0889,-3.1064,-3.1367,-3.1367,-3.1601,-3.2031,-3.2353,-3.2607,-3.2822,-3.3144,-3.333,-3.3418,-3.3418,-3.3418,-3.3418,-3.3418,-3.3418,-3.3418,0.0,0.0,0.0,0.0,0.0,0.0,0.0,0.0,0.0,0.0,0.0,0.0,0.0,0.0,0.0,0.0,0.0,0.0,0.0,0.0,-3.415,-3.3154,-3.4952,-3.5075,-3.3154,-3.3124,-3.3124,-3.3124,-3.3124,-3.3124,-3.3124,-3.3124,-3.3124,-3.3124,-3.3124,-3.3124,-3.3124,-3.3124,-3.337,-3.3847,-3.3884,0.0,0.0,0.0,0.0,0.0,0.0,0.0,0.0,0.0,0.0,0.0,0.0,0.0,-3.6405,-3.6405,-3.6405,-3.6405,-3.6405,-3.6405,-3.6405,-3.6405,-3.6405,-3.6405,-3.6405,-3.6405,0.0,-3.6405,-3.6405,-3.6405,-3.6405,-3.6405,-3.6417,-3.6455,-3.7312,-3.8027,-3.8065,-3.9007,-3.9697,-3.9697,-3.9697,-3.9697,-3.9697,-3.9697,-3.9697,-3.9697,-3.9697,-3.9594,-3.9362,-3.8084,-3.6595,-3.5024,-3.3631,-3.2254,-3.0889,-3.0889,-3.0889,-3.0889,-3.0889,-3.0908,-3.0937,-3.0937,-3.1162,-3.1562,-3.1601,-3.206,-3.2793,-3.2832,-3.3066,-3.3418,-3.3418,-3.3418,-3.3418,-3.3418,-3.3418,-3.3418,0.0,0.0,0.0,0.0,0.0,0.0,0.0,0.0,0.0,0.0,0.0,0.0,0.0,0.0,0.0,0.0,0.0,0.0,0.0,-3.5426,-3.5467,-3.5034,-3.5774,-3.5547,-3.4108,-3.4066,-3.4066,-3.4066,-3.3441,-3.3124,-3.3124,-3.3124,-3.3124,-3.3124,-3.3124,-3.3124,-3.3106,-3.3445,-3.3709,-3.396,-3.465,-3.5132,0.0,0.0,0.0,0.0,0.0,0.0,0.0,0.0,-3.6405,0.0,0.0,0.0,-3.6405,-3.6405,-3.6405,-3.6405,-3.6405,-3.6405,-3.6405,-3.6405,-3.6405,0.0,0.0,-3.6405,-3.6405,-3.6405,-3.6405,-3.6405,-3.6405,-3.6405,-3.6405,-3.6405,-3.7287,-3.8002,-3.8002,-3.8981,-3.9697,-3.9697,-3.9697,-3.9697,-3.9697,-3.9697,-3.9697,-3.9697,-3.9697,-3.9297,-3.836,-3.693,-3.589,-3.53,-3.2985,-3.1872,-3.2254,-3.1392,-3.0889,-3.0889,-3.0889,-3.0889,-3.0889,-3.0889,-3.0976,-3.1143,-3.1406,-3.1699,-3.2041,-3.2578,-3.2891,-3.3057,-3.332,-3.3418,-3.3418,-3.3418,-3.3418,-3.3418,0.0,0.0,0.0,0.0,0.0,0.0,0.0,0.0,0.0,0.0,0.0,0.0,0.0,0.0,0.0,0.0,0.0,0.0,-3.6237,-3.6526,-3.6565,-3.6198,-3.6838,-3.6735,-3.5695,-3.5695,-3.5346,-3.4705,-3.4262,-3.4095,-3.4053,-3.3755,-3.3784,-3.4066,-3.3964,-3.4097,-3.4419,-3.4615,-3.5048,-3.5517,-3.5489,-3.5814,0.0,0.0,0.0,0.0,0.0,0.0,0.0,0.0,0.0,0.0,0.0,0.0,0.0,0.0,-3.6405,-3.6405,-3.6405,-3.6405,-3.6405,-3.6405,0.0,0.0,-3.6405,-3.6405,-3.6405,-3.6405,-3.6405,-3.6405,-3.6405,-3.6405,-3.6405,-3.6405,-3.7287,-3.8002,-3.8002,-3.8981,-3.9697,-3.9697,-3.9697,-3.9697,-3.9697,-3.9697,-3.9697,-3.9697,-3.9697,-3.9245,-3.8243,-3.7263,-3.6499,-3.5999,-3.3586,-3.254,-3.3067,-3.1662,-3.0889,-3.0889,-3.0889,-3.0889,-3.0889,-3.0889,-3.0889,-3.0908,-3.1191,-3.1396,-3.1562,-3.2148,-3.2549,-3.2832,-3.3252,-3.3418,-3.3418,-3.3418,-3.3418,-3.3418,0.0,0.0,0.0,0.0,0.0,0.0,0.0,0.0,0.0,0.0,0.0,0.0,0.0,0.0,0.0,0.0,0.0,0.0,-3.633,-3.7228,-3.7357,-3.6304,-3.8308,-3.8922,-3.7843,-3.782,-3.6816,-3.4705,-3.5708,-3.6212,-3.6172,-3.5183,-3.5251,-3.62,-3.5801,-3.6194,-3.7206,-3.6739,-3.7475,-3.8776,-3.6438,-3.657,-3.7984,0.0,0.0,0.0,0.0,0.0,0.0,0.0,0.0,0.0,0.0,0.0,0.0,0.0,-3.6405,-3.6405,-3.6405,-3.6405,-3.6405,-3.6405,0.0,0.0,-3.6405,-3.6405,-3.6405,-3.6405,-3.6405,-3.6405,-3.6405,-3.6405,-3.6405,-3.6405,-3.7287,-3.8002,-3.8002,-3.8981,-3.9685,-3.9697,-3.9697,-3.9697,-3.9697,-3.9697,-3.9697,-3.9697,-3.9697,-3.9697,-3.9697,-3.9697,-3.9025,-3.7571,-3.6054,-3.457,-3.3134,-3.1662,-3.0889,-3.0889,-3.0889,-3.0889,-3.0889,-3.0889,-3.0889,-3.0889,-3.0889,-3.1123,-3.1514,-3.1514,-3.2021,-3.2832,-3.3252,-3.3418,-3.3418,-3.3418,-3.3418,-3.3418,0.0,0.0,0.0,0.0,0.0,0.0,0.0,0.0,0.0,0.0,0.0,0.0,0.0,0.0,0.0,0.0,0.0,0.0,-3.9138,-3.946,-3.9704,-3.9865,-4.0456,-4.0305,-3.9232,-3.9192,-3.8054,-3.5734,-3.6533,-3.6901,-3.6915,-3.7071,-3.7305,-3.7591,-3.7483,-3.7607,-3.791,-3.8183,-3.8539,-3.8902,-3.7775,-3.8143,-3.9139,0.0,0.0,0.0,0.0,0.0,0.0,0.0,0.0,0.0,0.0,0.0,0.0,-3.6405,-3.6405,-3.6405,-3.6405,-3.6405,0.0,-3.6405,0.0,0.0,0.0,-3.6405,0.0,-3.6405,-3.6405,-3.6405,-3.6405,-3.6405,-3.6405,-3.6405,-3.696,-3.7563,-3.7952,-3.8642,-3.9258,-3.9647,-3.9697,-3.9697,-3.9697,-3.9697,-3.9697,-3.9697,-3.9697,-3.9697,-3.9697,-3.8739,-3.8413,-3.9025,-3.5606,-3.4013,-3.4626,-3.216,-3.0889,-3.0889,-3.0889,-3.0889,-3.0889,-3.0889,-3.0889,-3.0889,-3.0889,-3.0957,-3.1103,-3.1396,-3.2021,-3.2803,-3.293,-3.3164,-3.3418,-3.3418,-3.3418,-3.3418,0.0,0.0,0.0,0.0,0.0,0.0,0.0,0.0,0.0,0.0,0.0,0.0,0.0,0.0,0.0,0.0,0.0,0.0,0.0,-4.0786,-4.0965,-4.1369,-4.1422,-4.1088,-4.0466,-4.0466,-3.9731,-3.8263,-3.8664,-3.8864,-3.8864,-3.8835,-3.9045,-3.9476,-3.93,-3.9455,-3.9877,-3.9997,-4.0293,-4.0586,-3.9328,-3.9271,-3.9681,0.0,0.0,0.0,0.0,0.0,0.0,0.0,0.0,0.0,0.0,0.0,0.0,-3.6405,-3.6405,-3.6405,-3.6405,-3.6405,0.0,-3.6405,-3.6405,-3.6405,-3.6405,-3.6405,-3.6405,-3.6405,-3.6405,-3.6405,-3.6405,-3.6405,-3.6405,-3.6405,-3.687,-3.7374,-3.7927,-3.8504,-3.9082,-3.9634,-3.9697,-3.9697,-3.9697,-3.9697,-3.9697,-3.9697,-3.9697,-3.9697,-3.9697,-3.8856,-3.8804,-3.9697,-3.6541,-3.5277,-3.6162,-3.381,-3.2654,-3.2654,-3.2045,-3.2102,-3.2607,-3.1441,-3.0889,-3.0889,-3.0889,-3.0889,-3.0928,-3.1348,-3.2157,-3.3186,-3.3598,-3.4248,-3.4923,-3.4489,-3.4373,-3.4258,0.0,0.0,0.0,0.0,0.0,0.0,0.0,0.0,0.0,0.0,0.0,0.0,0.0,0.0,0.0,0.0,0.0,0.0,0.0,0.0,-4.1542,-4.1549,-4.1549,-4.1549,-4.1549,-4.1549,-4.1549,-4.1549,-4.1542,-4.1512,-4.1474,-4.0573,-4.0642,-4.1541,-4.1203,-4.1586,-4.2453,-4.1945,-4.233,-4.3115,-4.093,-4.0116,-4.0073,-3.8783,0.0,0.0,0.0,0.0,0.0,0.0,0.0,0.0,0.0,0.0,-3.6405,-3.6405,-3.6405,-3.6405,-3.6405,-3.6405,-3.6405,-3.6405,-3.6405,-3.6405,-3.6405,-3.6405,-3.6405,-3.6405,-3.6405,-3.6405,-3.6405,-3.6405,-3.6405,-3.6405,-3.6832,-3.7299,-3.7852,-3.8429,-3.8994,-3.9546,-3.9659,-3.9697,-3.9697,-3.9697,-3.9697,-3.9697,-3.9697,-3.9697,-3.9697,-3.9697,-3.9697,-3.9697,-3.8243,-3.7518,-3.7518,-3.6054,-3.5288,-3.5288,-3.3968,-3.4013,-3.5178,-3.2379,-3.116,-3.1276,-3.117,-3.1112,-3.1141,-3.1466,-3.2488,-3.3775,-3.485,-3.6113,-3.7306,-3.6314,-3.6009,-3.5806,0.0,0.0,0.0,0.0,0.0,0.0,0.0,0.0,0.0,0.0,0.0,0.0,0.0,0.0,0.0,0.0,0.0,0.0,0.0,0.0,-4.2387,-4.2895,-4.2871,-4.2871,-4.2871,-4.2871,-4.2871,-4.2871,-4.2402,-4.2186,-4.2201,-4.2421,-4.2659,-4.2886,-4.2808,-4.2907,-4.3095,-4.2976,-4.3076,-4.317,-4.1767,-4.1767,-4.2345,-4.0275,-3.9373,0.0,0.0,0.0,0.0,0.0,0.0,0.0,-3.6405,-3.6405,-3.6405,-3.6405,-3.6405,-3.6405,-3.6405,-3.6405,0.0,-3.6405,-3.6405,-3.6405,-3.6405,-3.6405,-3.6405,-3.6405,-3.6405,-3.6405,-3.6405,-3.6405,-3.6405,-3.6405,-3.6505,-3.6782,-3.7287,-3.7839,-3.8404,-3.8981,-3.9433,-3.9697,-3.9697,-3.9697,-3.9697,-3.9697,-3.9697,-3.9697,-3.9697,-3.9697,-3.9697,-3.9697,-3.8243,-3.7518,-3.7518,-3.6054,-3.5288,-3.5288,-3.4958,-3.5013,-3.5233,-3.3417,-3.3247,-3.4303,-3.3145,-3.2644,-3.2644,-3.2747,-3.3158,-3.3817,-3.5217,-3.6456,-3.7389,-3.7126,-3.7354,-3.7615,0.0,0.0,0.0,0.0,0.0,0.0,0.0,0.0,0.0,0.0,0.0,0.0,0.0,0.0,0.0,0.0,0.0,0.0,0.0,0.0,-4.297,-4.329,-4.329,-4.329,-4.329,-4.329,-4.329,-4.329,-4.2985,-4.2821,-4.2836,-4.3125,-4.329,-4.329,-4.329,-4.329,-4.329,-4.329,-4.329,-4.325,-4.2644,-4.2426,-4.2386,-4.1169,-4.0015,-3.8961,-3.8334,0.0,0.0,0.0,0.0,0.0,0.0,0.0,-3.6405,-3.6405,-3.6405,-3.6405,-3.6405,0.0,0.0,-3.6405,0.0,-3.6405,-3.6405,-3.6405,-3.6405,-3.6405,-3.6405,-3.6405,-3.6405,-3.6405,-3.6405,-3.6405,-3.6405,-3.6606,-3.7111,-3.7663,-3.8216,-3.8856,-3.9358,-3.9697,-3.9697,-3.9697,-3.9697,-3.9697,-3.9697,-3.9697,-3.9697,-3.9697,-3.9697,-3.9697,-3.8961,-3.857,-3.857,-3.782,-3.7382,-3.7382,-3.6715,-3.6379,-3.6325,-3.4847,-3.457,-3.5245,-3.4515,-3.4125,-3.4125,-3.4125,-3.4713,-3.5614,-3.6639,-3.7799,-3.8851,-3.8641,-3.8701,-3.8907,0.0,0.0,0.0,0.0,0.0,0.0,0.0,0.0,0.0,0.0,0.0,0.0,0.0,0.0,0.0,0.0,0.0,0.0,0.0,0.0,0.0,-4.329,-4.329,-4.329,-4.329,-4.329,-4.329,-4.329,-4.329,-4.329,-4.329,-4.329,-4.329,-4.329,-4.329,-4.329,-4.329,-4.329,-4.329,-4.329,-4.329,-4.2725,-4.1891,-4.1891,-4.0462,-3.8424,-3.8635,-3.7723,-3.6452,-3.6628,0.0,0.0,0.0,0.0,-3.6405,-3.6405,-3.6405,-3.6405,-3.6405,0.0,-3.6405,-3.6405,-3.6405,-3.6405,-3.6405,-3.6405,-3.6405,-3.6405,-3.6405,-3.6405,-3.6405,-3.6405,-3.6405,-3.6405,-3.6405,-3.6568,-3.6973,-3.7513,-3.8078,-3.8655,-3.922,-3.9584,-3.9685,-3.9697,-3.9697,-3.9697,-3.9697,-3.9697,-3.9697,-3.9697,-3.9697,-3.9697,-3.9697,-3.9697,-3.9697,-3.9697,-3.9697,-3.9697,-3.8465,-3.7849,-3.7849,-3.6607,-3.6065,-3.6065,-3.5781,-3.5672,-3.5672,-3.5672,-3.6379,-3.7566,-3.8275,-3.9357,-4.0467,-4.0201,-4.0142,-4.0129,0.0,0.0,0.0,0.0,0.0,0.0,0.0,0.0,0.0,0.0,0.0,0.0,0.0,0.0,0.0,0.0,0.0,0.0,-4.329,0.0,0.0,-4.329,-4.329,-4.329,-4.329,-4.329,-4.329,-4.329,-4.329,-4.329,-4.329,-4.329,-4.329,-4.329,-4.329,-4.329,-4.329,-4.329,-4.329,-4.329,-4.329,-4.321,-4.3076,-4.3076,-4.1643,-3.9798,-4.0774,-3.9112,-3.6534,-3.754,-3.7243,0.0,0.0,0.0,-3.6405,-3.6405,-3.6405,-3.6405,-3.6405,0.0,-3.6405,0.0,-3.6405,-3.6405,-3.6405,-3.6405,-3.6405,-3.6405,-3.6405,-3.6405,-3.6405,-3.6405,-3.6405,-3.6405,-3.6405,-3.643,-3.6505,-3.6996,-3.75,-3.8052,-3.863,-3.917,-3.9647,-3.9697,-3.9697,-3.9697,-3.9697,-3.9697,-3.9697,-3.9697,-3.9697,-3.9697,-3.9697,-3.9697,-3.9697,-3.9697,-3.9697,-3.9697,-3.953,-3.9413,-3.9413,-3.9193,-3.9089,-3.9025,-3.7755,-3.7198,-3.7198,-3.7198,-3.7305,-3.7636,-3.8995,-3.993,-4.0536,-4.0935,-4.1459,-4.1933,0.0,0.0,0.0,0.0,0.0,0.0,0.0,0.0,0.0,0.0,0.0,0.0,0.0,0.0,0.0,-4.329,-4.329,-4.329,-4.329,-4.329,-4.329,-4.329,-4.329,-4.329,-4.329,-4.329,-4.329,-4.329,-4.329,-4.329,-4.329,-4.329,-4.329,-4.329,-4.329,-4.329,-4.329,-4.329,-4.329,-4.329,-4.329,-4.329,-4.329,-4.329,-4.1879,-3.9986,-4.0447,-3.8827,-3.6499,-3.6977,-3.6803,-3.6405,-3.6405,0.0,0.0,0.0,-3.687,-3.687,-3.687,-3.687,-3.6795,0.0,-3.6405,-3.6405,-3.6405,-3.6405,-3.6405,-3.6405,-3.6405,-3.6405,-3.6405,-3.6405,-3.6405,-3.6405,-3.6405,-3.6405,-3.6405,-3.6835,-3.7387,-3.7939,-3.8517,-3.9082,-3.9634,-3.9697,-3.9697,-3.9697,-3.9697,-3.9697,-3.9697,-3.9697,-3.9697,-3.9697,-3.9697,-3.9697,-3.9697,-3.9697,-3.9697,-3.9697,-3.9697,-3.9697,-3.9697,-3.9697,-3.9697,-3.9633,-3.9025,-3.8739,-3.8739,-3.8739,-3.8739,-3.8804,-3.9465,-3.9835,-4.0124,-4.0676,-4.1229,-4.1781,0.0,0.0,0.0,0.0,0.0,0.0,0.0,0.0,0.0,0.0,0.0,0.0,0.0,0.0,0.0,0.0,-4.329,-4.329,-4.329,-4.329,-4.329,-4.329,-4.329,-4.329,-4.329,-4.329,-4.329,-4.329,-4.329,-4.329,-4.329,-4.329,-4.329,-4.329,-4.329,-4.329,-4.329,-4.329,-4.329,-4.329,-4.329,-4.329,-4.329,-4.329,-4.2044,-4.0318,-4.0318,-3.8827,-3.6849,-3.6849,-3.6628,-3.643,-3.6568,-3.6619,0.0,0.0,0.0,-3.7387,-3.7387,0.0,-3.7262,-3.6757,-3.6619,-3.6581,-3.6443,-3.6405,-3.6405,-3.6405,-3.6405,-3.6455,-3.6593,-3.6505,-3.6405,-3.6405,-3.6405,-3.6455,-3.6593,-3.6971,-3.745,-3.814,-3.8617,-3.9082,-3.9634,-3.9697,-3.9697,-3.9697,-3.9697,-3.9697,-3.9697,-3.9697,-3.9697,-3.9697,-3.9697,-3.9697,-3.9697,-3.9697,-3.9697,-3.9697,-3.9697,-3.9697,-3.9697,-3.9697,-3.9697,-3.9697,-3.9697,-3.9697,-3.9697,-3.9697,-3.9697,-3.9697,-3.9697,-3.9697,-3.976,-4.0312,-4.0724,-4.1175,0.0,0.0,0.0,0.0,0.0,0.0,0.0,0.0,0.0,0.0,0.0,0.0,-4.329,-4.329,-4.329,-4.329,-4.329,-4.329,-4.329,-4.329,-4.329,-4.329,-4.329,0.0,-4.329,-4.329,-4.329,-4.329,-4.329,-4.329,-4.329,-4.329,-4.329,-4.329,-4.329,-4.329,-4.329,-4.329,-4.329,-4.329,-4.329,-4.329,-4.329,-4.329,-4.2548,-4.1504,-4.1504,-3.9974,-3.803,-3.803,-3.7276,-3.6505,-3.6973,-3.7149,-3.7249,0.0,0.0,0.0,-3.7965,-3.7965,0.0,-3.7274,-3.7149,-3.7059,-3.6531,-3.6405,-3.6405,-3.6405,-3.6405,-3.6568,-3.7048,-3.6757,-3.6405,-3.6405,-3.6405,-3.6593,-3.7073,-3.7161,-3.7588,-3.8743,-3.8906,-3.9082,-3.9634,-3.9697,-3.9697,-3.9697,-3.9697,-3.9697,-3.9697,-3.9697,-3.9697,-3.9697,-3.9697,-3.9697,-3.9697,-3.9697,-3.9697,-3.9697,-3.9697,-3.9697,-3.9697,-3.9697,-3.9697,-3.9697,-3.9697,-3.9697,-3.9697,-3.9697,-3.9697,-3.9697,-3.9697,-3.9697,-3.976,-4.0312,-4.0538,-4.0714,0.0,0.0,0.0,0.0,0.0,0.0,0.0,0.0,0.0,0.0,0.0,0.0,0.0,-4.329,-4.329,-4.329,-4.329,-4.329,-4.329,-4.329,-4.329,-4.329,-4.329,-4.329,-4.329,-4.329,-4.329,-4.329,-4.3708,-4.3958,-4.3932,-4.4392,-4.4362,-4.3902,-4.3484,-4.329,-4.329,-4.329,-4.329,-4.329,-4.329,-4.329,-4.329,-4.329,-4.2589,-4.1587,-4.1587,-4.0604,-3.9139,-3.8379,-3.805,-3.7903,-3.7387,-3.7425,-3.7826,-3.8391,-3.8818,-3.9019,-3.8655,-3.8567,-3.8429,-3.7852,-3.7713,-3.7663,-3.7462,-3.7412,-3.7412,-3.7412,-3.7412,-3.7475,-3.7676,-3.7262,-3.7059,-3.7362,-3.7412,-3.7487,-3.7688,-3.7713,-3.8002,-3.8831,-3.8919,-3.9082,-3.9634,-3.9697,-3.9697,-3.9697,-3.9697,-3.9697,-3.9697,-3.9697,-3.9697,-3.9697,-3.9697,-3.9697,-3.9697,-3.9697,-3.9697,-3.9697,-3.9697,-3.9697,-3.9697,-3.9697,-3.9697,-3.9697,-3.9697,-3.9697,-3.9697,-3.9697,-3.9697,-3.9697,-3.9697,-3.9697,-3.9722,-3.9923,-4.0212,-4.0576,0.0,0.0,0.0,0.0,0.0,0.0,0.0,0.0,0.0,-4.329,0.0,0.0,0.0,0.0,-4.329,-4.329,-4.329,-4.329,-4.329,-4.329,-4.329,-4.329,-4.329,-4.329,-4.329,-4.3514,-4.3618,-4.3618,-4.4332,-4.4646,-4.4661,-4.5095,-4.5065,-4.4616,-4.3917,-4.3499,-4.329,-4.329,-4.329,-4.329,-4.329,-4.329,-4.329,-4.329,-4.282,-4.2111,-4.1726,-4.1127,-4.0275,-3.9081,-3.9068,-3.9361,-3.8359,-3.8296,-3.8655,-3.9032,-3.9408,-3.9609,-3.9245,-3.9145,-3.9007,-3.8442,-3.8304,-3.8253,-3.8052,-3.8002,-3.8002,-3.8002,-3.8002,-3.8065,-3.8253,-3.799,-3.7801,-3.7977,-3.8002,-3.8078,-3.8266,-3.8304,-3.8504,-3.9082,-3.9145,-3.9295,-3.9659,-3.9697,-3.9697,-3.9697,-3.9697,-3.9697,-3.9697,-3.9697,-3.9609,-3.9421,-3.9421,-3.9421,-3.9421,-3.9421,-3.9509,-3.9697,-3.9697,-3.9697,-3.9697,-3.9697,-3.9697,-3.9697,-3.9697,-3.9697,-3.9697,-3.9697,-3.9697,-3.9697,-3.9697,-3.9697,-3.9697,-3.9697,-3.9923,-4.0275,0.0,0.0,0.0,0.0,0.0,0.0,0.0,0.0,-4.329,-4.329,0.0,0.0,0.0,0.0,0.0,-4.329,-4.329,-4.329,-4.329,-4.329,-4.329,-4.329,-4.329,-4.329,-4.329,-4.3947,-4.4317,-4.4317,-4.499,-4.5334,-4.5334,-4.5349,-4.5349,-4.5289,-4.4661,-4.4003,-4.3319,-4.3305,-4.329,-4.329,-4.329,-4.329,-4.329,-4.329,-4.329,-4.3155,-4.207,-4.1629,-4.1476,-4.0346,-4.0343,-4.0715,-4.0,-3.9767,-3.9697,-3.9697,-3.9697,-3.9697,0.0,0.0,0.0,-3.9032,-3.8944,-3.8743,-3.8191,-3.8052,-3.8052,-3.8052,-3.8052,-3.8228,-3.8844,-3.8944,-3.8718,-3.8153,-3.8052,-3.8253,-3.8818,-3.8944,-3.9094,-3.9634,-3.9697,-3.9697,-3.9697,-3.9697,-3.9697,-3.9697,-3.9697,-3.9697,-3.9697,-3.9697,-3.9433,-3.8944,-3.8919,-3.8919,-3.8919,-3.8919,-3.9145,-3.9697,-3.9697,-3.9697,-3.9697,-3.9697,-3.9697,-3.9697,-3.9697,-3.9697,-3.9697,-3.9697,-3.9697,-3.9697,-3.9697,-3.9697,-3.9697,-3.9697,-3.9697,-3.9772,0.0,0.0,0.0,0.0,0.0,-4.329,-4.329,-4.329,-4.329,0.0,0.0,0.0,-4.329,-4.329,-4.329,-4.329,-4.329,-4.329,-4.329,-4.329,-4.329,-4.329,-4.329,-4.329,-4.329,-4.3947,-4.4317,0.0,0.0,0.0,0.0,0.0,-4.6501,-4.6037,-4.5816,-4.5083,-4.4003,-4.3499,-4.329,-4.329,-4.329,-4.329,-4.329,-4.329,-4.329,-4.325,-4.2941,-4.282,-4.2718,-4.2078,-4.1629,-4.1141,-4.0055,-3.974,-3.9697,-3.9697,-3.9697,-3.9697,-3.9697,0.0,0.0,0.0,0.0,0.0,-3.927,-3.9233,-3.9233,-3.9233,-3.9233,-3.927,-3.9433,-3.9471,-3.9408,-3.9258,-3.9233,-3.9283,-3.9446,-3.9471,-3.9521,-3.9672,-3.9697,-3.9697,-3.9697,-3.9697,-3.9697,-3.9697,-3.9697,-3.9697,-3.9697,-3.9697,-3.9433,-3.8944,-3.8919,-3.8919,-3.8919,-3.8919,-3.9145,-3.9697,-3.9697,-3.9697,-3.9697,-3.9697,-3.9697,-3.9697,-3.9697,-3.9697,-3.9697,-3.9697,-3.9697,-3.9697,-3.9697,-3.9697,-3.9697,-3.9697,-3.9697,-3.9722,0.0,0.0,0.0,0.0,0.0,-4.329,-4.329,-4.329,-4.329,0.0,0.0,0.0,-4.329,-4.329,-4.329,-4.329,-4.329,-4.329,-4.329,-4.329,-4.329,-4.329,-4.329,-4.329,-4.329,-4.4242,-4.4721,0.0,0.0,0.0,0.0,0.0,0.0,-4.6711,-4.6399,-4.5888,-4.5095,-4.4097,-4.3544,-4.329,-4.329,-4.329,-4.329,-4.329,-4.329,-4.329,-4.329,-4.3469,-4.3673,-4.3387,-4.3041,-4.254,-4.1595,-4.0932,-4.0415,-3.9839,-3.9697,-3.9697,-3.9697,-3.9697,-3.9697,-3.9697,0.0,0.0,-3.9697,-3.9697,-3.9697,-3.9697,-3.9697,-3.9697,-3.9697,-3.9697,-3.9697,-3.9697,-3.9697,-3.9697,-3.9697,-3.9697,-3.9697,-3.9697,-3.9697,-3.9697,-3.9697,-3.9697,-3.9697,-3.9697,-3.9697,-3.9697,-3.9697,-3.9697,-3.9433,-3.8944,-3.8919,-3.8919,-3.8919,-3.8919,-3.9145,-3.9697,-3.9697,-3.9697,-3.9697,-3.9697,-3.9697,-3.9697,-3.9697,-3.9697,-3.9697,-3.9697,-3.9697,-3.9697,-3.9697,-3.9697,-3.9697,-3.9697,-3.9697,-3.9697,0.0,0.0,-4.329,-4.329,-4.329,-4.329,-4.329,-4.329,-4.329,0.0,-4.329,-4.329,-4.329,-4.329,-4.329,-4.329,-4.329,-4.329,-4.329,-4.329,-4.329,-4.329,-4.329,-4.329,-4.329,-4.4616,-4.5289,0.0,0.0,0.0,0.0,0.0,0.0,0.0,0.0,-4.6354,-4.6204,-4.505,-4.4067,-4.3394,-4.3319,-4.329,-4.329,-4.329,-4.3349,-4.3409,-4.3409,-4.3828,-4.4396,-4.4333,-4.4379,-4.4385,-4.356,-4.2593,-4.1555,-4.0121,-3.9788,-3.989,-3.9736,-3.9697,-3.9697,-3.9697,-3.9697,0.0,-3.9697,-3.9697,-3.9697,-3.9697,-3.9697,-3.9697,-3.9697,-3.9697,-3.9697,-3.9697,-3.9697,-3.9697,-3.9697,-3.9697,-3.9697,-3.9697,-3.9697,-3.9697,-3.9697,-3.9697,-3.9697,-3.9697,-3.9697,-3.9697,-3.9697,-3.9697,-3.9433,-3.8944,-3.8919,-3.8919,-3.8919,-3.8919,-3.9145,-3.9697,-3.9697,-3.9697,-3.9697,-3.9697,-3.9697,-3.9697,-3.9697,-3.9697,-3.9697,-3.9697,-3.9697,-3.9697,-3.9697,-3.9697,-3.9697,-3.9697,-3.9697,-3.9697,0.0,-4.329,-4.329,-4.329,-4.329,-4.329,-4.329,-4.329,-4.329,-4.329,-4.329,-4.329,-4.329,-4.329,-4.329,-4.329,-4.329,-4.329,-4.329,-4.329,-4.329,-4.329,-4.329,-4.329,-4.329,-4.4616,-4.5289,-4.5289,0.0,0.0,0.0,0.0,0.0,0.0,0.0,-4.6815,-4.6264,-4.5995,-4.5188,-4.4077,-4.3499,-4.329,-4.329,-4.329,-4.3618,-4.4122,-4.4122,-4.4541,-4.5045,-4.4544,-4.473,-4.4807,-4.2649,-4.2509,-4.2689,-4.0364,-4.0415,-4.1032,-3.9981,-3.9697,-3.9697,-3.9697,-3.9697,0.0,-3.9697,-3.9697,-3.9697,-3.9697,-3.9697,-3.9697,-3.9697,-3.9697,-3.9697,-3.9697,-3.9697,-3.9697,-3.9697,-3.9697,-3.9697,-3.9697,-3.9697,-3.9697,-3.9697,-3.9697,-3.9697,-3.9697,-3.9697,-3.9697,-3.9697,-3.9697,-3.9433,-3.8944,-3.8919,-3.8919,-3.8919,-3.8919,-3.9145,-3.9697,-3.9697,-3.9697,-3.9697,-3.9697,-3.9697,-3.9697,-3.9697,-3.9697,-3.9697,-3.9697,-3.9697,-3.9697,-3.9697,-3.9697,-3.9697,-3.9697,-3.9697,-3.9697,-4.329,-4.329,-4.329,-4.329,-4.329,-4.329,-4.329,-4.329,-4.329,-4.329,-4.329,-4.329,-4.329,-4.329,-4.329,-4.329,-4.329,-4.329,-4.329,-4.329,-4.329,-4.329,-4.329,-4.329,-4.329,-4.4616,-4.5289,-4.5289,0.0,0.0,0.0,0.0,0.0,0.0,-4.7309,-4.7115,-4.68,-4.6456,-4.5891,-4.5229,-4.4186,-4.3783,-4.3783,-4.3783,-4.4227,-4.4811,-4.4811,-4.5244,-4.5819,-4.5843,-4.6079,-4.6018,-4.4116,-4.3929,-4.3929,-4.1406,-4.1082,-4.1319,-4.0032,-3.9697,-3.9697,-3.9697,-3.9697,0.0,0.0,-3.9697,-3.9697,-3.9697,-3.9697,-3.9697,-3.9697,-3.9697,-3.9697,-3.9697,-3.9697,-3.9697,-3.9697,-3.9697,-3.9697,-3.9697,-3.9697,-3.9697,-3.9697,-3.9697,-3.9697,-3.9697,-3.9697,-3.9697,-3.9697,-3.9697,-3.9572,-3.9295,-3.9283,-3.9283,-3.9283,-3.9283,-3.9421,-3.9697,-3.9697,-3.9697,-3.9697,-3.9697,-3.9697,-3.9697,-3.9697,-3.9697,-3.9697,-3.9697,-3.9697,-3.9697,-3.9697,-3.9697,-3.9697,-3.9697,-3.9697,-3.9697,-4.329,-4.329,-4.329,-4.329,-4.329,-4.329,-4.329,-4.329,-4.329,-4.329,-4.329,-4.329,-4.329,-4.329,-4.329,-4.329,-4.329,-4.329,-4.329,-4.329,-4.329,-4.329,-4.329,-4.329,-4.329,-4.4496,-4.517,-4.5289,0.0,0.0,0.0,0.0,0.0,-4.7309,-4.7309,-4.7309,-4.7264,-4.6741,-4.6441,-4.619,-4.514,-4.4631,-4.4496,-4.4496,-4.4915,-4.5514,-4.5633,-4.6037,-4.6591,-4.713,-4.7309,-4.7019,-4.5494,-4.5358,-4.5161,-4.2119,-4.1604,-4.1654,-4.0121,-3.9697,-3.9697,-3.9697,-3.9697,-3.9697,0.0,0.0,0.0,-3.9697,-3.9697,-3.9697,-3.9697,-3.9697,-3.9697,-3.9697,-3.9697,-3.9697,-3.9697,-3.9697,-3.9697,-3.9697,-3.9697,-3.9697,-3.9697,-3.9697,-3.9697,-3.9697,-3.9697,-3.9697,-3.9697,-3.9697,-3.9697,-3.9697,-3.9697,-3.9697,-3.9697,-3.9697,-3.9697,-3.9697,-3.9697,-3.9697,-3.9697,-3.9697,-3.9697,-3.9697,-3.9697,-3.9697,-3.9697,-3.9697,-3.9697,-3.9697,-3.9697,-3.9697,-3.9697,-3.9697,-3.9697,-3.9697,-4.329,-4.329,-4.329,-4.329,-4.329,-4.329,-4.329,-4.329,-4.329,-4.329,-4.329,-4.329,-4.329,-4.329,-4.329,-4.329,-4.329,-4.329,-4.329,-4.329,-4.329,-4.329,-4.329,-4.329,-4.329,-4.4007,-4.4706,-4.5289,-4.6067,0.0,0.0,0.0,0.0,-4.7309,-4.7309,-4.7309,-4.7309,-4.7219,-4.686,-4.6264,-4.6115,-4.5738,-4.5185,-4.5185,-4.5603,-4.6234,-4.6875,-4.713,-4.7204,-4.7279,-4.7309,-4.6873,-4.4456,-4.5252,-4.6166,-4.1319,-4.1505,-4.2738,-4.0364,-3.9697,-3.9697,-3.9697,-3.9697,-3.9697,-3.9697,0.0,-3.9697,-3.9697,0.0,-3.9697,-3.9697,0.0,0.0,-3.9697,-3.9697,-3.9697,-3.9697,-3.9697,-3.9697,-3.9697,-3.9697,-3.9697,-3.9697,-3.9697,-3.9697,-3.9697,-3.9697,-3.9697,-3.9697,-3.9697,-3.9697,-3.9697,-3.9697,-3.9697,-3.9697,-3.9697,-3.9697,-3.9697,-3.9697,-3.9697,-3.9697,-3.9697,-3.9697,-3.9697,-3.9697,-3.9697,-3.9697,-3.9697,-3.9697,-3.9697,-3.9697,-3.9697,-3.9697,-3.9697,-3.9697,-3.9697,-4.329,-4.329,-4.329,-4.329,-4.329,-4.329,-4.329,-4.329,-4.329,-4.329,-4.329,-4.329,-4.329,-4.329,-4.329,-4.329,-4.329,-4.329,-4.329,-4.329,-4.329,-4.329,-4.329,-4.329,-4.329,-4.3947,-4.4451,-4.4721,-4.5798,0.0,0.0,0.0,0.0,-4.7309,-4.7309,-4.7309,-4.7309,-4.7309,-4.7145,-4.689,-4.689,-4.6711,-4.6426,-4.6037,-4.6307,-4.6935,-4.7204,-4.7309,-4.7309,-4.7309,-4.7309,-4.7121,-4.6018,-4.5928,-4.5644,-4.2738,-4.2119,-4.1985,-4.0173,-4.0224,-4.0655,-3.989,-4.0262,-4.0605,-3.989,-3.9697,-3.9697,-3.9697,0.0,0.0,0.0,0.0,0.0,0.0,-3.9697,-3.9697,-3.9697,-3.9697,-3.9697,-3.9697,-3.9697,-3.9697,-3.9697,-3.9697,-3.9697,-3.9697,-3.9697,-3.9697,-3.9697,-3.9697,-3.9697,-3.9697,-3.9697,-3.9697,-3.9697,-3.9697,-3.9697,-3.9697,-3.9697,-3.9697,-3.9697,-3.9697,-3.9697,-3.9697,-3.9697,-3.9697,-3.9697,-3.9697,-3.9697,-3.9697,-3.9697,-3.9697,-3.9697,-3.9697,-3.9697,-3.9697,-4.329,-4.329,-4.329,-4.329,-4.329,-4.329,-4.329,-4.329,-4.329,-4.329,-4.329,-4.329,-4.329,-4.329,-4.329,-4.329,-4.329,-4.329,-4.329,-4.329,-4.329,-4.329,-4.329,-4.329,-4.329,-4.3768,-4.4227,-4.4586,-4.5559,0.0,0.0,0.0,0.0,0.0,-4.7309,-4.7309,-4.7309,-4.7309,-4.7309,-4.7309,-4.7309,-4.7309,-4.7249,-4.677,-4.689,-4.7309,-4.7309,-4.7309,-4.7309,-4.7309,-4.7309,-4.7251,-4.6873,-4.6403,-4.5584,-4.3975,-4.3074,-4.2315,-4.0642,-4.0882,-4.1269,-4.0032,-4.0415,-4.0844,-3.9929,-3.9697,-3.9697,-3.9697,-3.9697,0.0,0.0,0.0,-3.9697,-3.9697,0.0,-3.9697,-3.9697,-3.9697,-3.9697,-3.9697,-3.9697,-3.9697,-3.9697,-3.9697,-3.9697,-3.9697,-3.9697,-3.9697,-3.9697,-3.9697,-3.9697,-3.9697,-3.9697,-3.9697,-3.9697,-3.9697,-3.9697,-3.9697,-3.9697,-3.9697,-3.9697,-3.9697,-3.9697,-3.9697,-3.9697,-3.9697,-3.9697,-3.9697,-3.9697,-3.9697,-3.9697,-3.9697,-3.9697,-3.9697,-3.9697,-3.9697,-4.329,-4.329,-4.329,-4.329,-4.329,-4.329,-4.329,-4.329,-4.329,-4.329,-4.329,-4.329,-4.329,-4.329,-4.329,-4.329,-4.329,-4.329,-4.329,-4.329,-4.329,-4.329,-4.329,-4.329,-4.329,-4.3319,-4.3988,-4.5259,-4.5304,0.0,0.0,0.0,0.0,0.0,-4.7309,-4.7309,-4.7309,-4.7309,-4.7309,-4.7309,-4.7309,-4.7309,-4.7309,-4.7279,-4.7294,-4.7309,-4.7309,-4.7309,-4.7309,-4.7309,-4.7309,-4.7062,-4.5824,-4.6299,-4.6741,-4.4256,-4.4349,-4.4734,-4.2217,-4.1555,-4.1269,-4.0032,-3.9749,-3.9736,-3.9697,-3.9697,-3.9697,-3.9697,-3.9697,-3.9697,-3.9697,-3.9697,-3.9697,-3.9697,-3.9697,0.0,0.0,-3.9697,-3.9697,-3.9697,-3.9697,-3.9697,-3.9697,-3.9697,-3.9697,-3.9697,-3.9697,-3.9697,-3.9697,-3.9697,-3.9697,-3.9697,-3.9697,-3.9697,-3.9697,-3.9697,-3.9697,-3.9697,-3.9697,-3.9697,-3.9697,-3.9697,-3.9697,-3.9697,-3.9697,-3.9697,-3.9697,-3.9697,-3.9697,-3.9697,-3.9697,-3.9697,-3.9697,-3.9697,-3.9697,-3.9697,-4.329,-4.329,-4.329,-4.329,-4.329,-4.329,-4.329,-4.329,-4.329,-4.329,-4.329,-4.329,-4.329,-4.329,-4.3469,-4.3902,-4.3947,-4.4167,-4.4601,-4.4631,-4.4631,-4.4631,-4.4631,-4.4631,-4.4631,-4.4631,-4.4855,-4.5289,-4.5753,-4.6202,0.0,0.0,0.0,0.0,-4.7309,-4.7309,-4.7309,-4.7309,-4.7309,-4.7309,-4.7309,-4.7309,-4.7309,-4.7309,-4.7309,-4.7309,-4.7309,-4.7309,-4.7309,-4.7309,-4.7309,-4.7207,-4.6785,-4.6358,-4.5869,-4.5024,-4.4456,-4.3929,-4.3074,-4.3456,-4.3598,-4.1505,-4.1604,-4.1789,-4.007,-3.9697,-3.9697,-3.9697,-3.9697,-3.9697,-3.9697,-3.9697,-3.9697,-3.9697,-3.9697,-3.9697,0.0,-3.9697,-3.9697,-3.9697,-3.9697,-3.9697,-3.9697,-3.9697,-3.9697,-3.9697,-3.9697,-3.9697,-3.9697,-3.9697,-3.9697,-3.9697,-3.9697,-3.9697,-3.9697,-3.9697,-3.9697,-3.9697,-3.9697,-3.9697,-3.9697,-3.9697,-3.9697,-3.9697,-3.9697,-3.9697,-3.9697,-3.9697,-3.9697,-3.9697,-3.9697,-3.9697,-3.9697,-3.9697,-3.9697,-3.9697,-4.329,-4.329,-4.329,-4.329,-4.329,-4.329,-4.329,-4.3484,-4.3648,-4.3648,-4.3843,-4.3992,-4.3992,-4.3992,-4.4212,-4.4631,-4.4661,-4.484,-4.5274,-4.5289,-4.5289,-4.5289,-4.5289,-4.5289,-4.5289,-4.5289,-4.5424,-4.5663,-4.6112,-4.6399,0.0,0.0,0.0,0.0,-4.7309,-4.7309,-4.7309,-4.7309,-4.7309,-4.7309,-4.7309,-4.7309,-4.7309,-4.7309,-4.7309,-4.7309,-4.7309,-4.7309,-4.7309,-4.7309,-4.7309,-4.7309,-4.7309,-4.6726,-4.6062,-4.6062,-4.5494,-4.4734,-4.4303,-4.4936,-4.526,-4.3147,-4.3066,-4.3031,-4.1388,-4.0615,-4.0224,-4.0023,-3.9986,-3.9923,-3.9735,-3.9697,-3.9697,-3.9697,-3.9697,-3.9697,0.0,-3.9697,-3.9697,-3.9697,-3.9697,-3.9697,-3.9697,-3.9697,-3.9697,-3.9697,-3.9697,-3.9697,-3.9697,-3.9697,-3.9697,-3.9697,-3.9697,-3.9697,-3.9697,-3.9697,-3.9697,-3.9697,-3.9697,-3.9697,-3.9697,-3.9697,-3.9697,-3.9697,-3.9697,-3.9697,-3.9697,-3.9697,-3.9697,-3.9697,-3.9697,-3.9697,-3.9697,-3.9697,-3.9697,-3.9697,-4.3379,-4.3394,-4.3394,-4.3394,-4.3364,-4.3349,-4.3379,-4.3958,-4.4362,-4.4362,-4.49,-4.5289,-4.5289,-4.5289,-4.5304,-4.5349,-4.5349,-4.5364,-4.5394,-4.5394,-4.5394,-4.5394,-4.5394,-4.5394,-4.5394,-4.5394,-4.5723,-4.6324,-4.6324,-4.6696,0.0,0.0,0.0,0.0,-4.7309,-4.7309,-4.7309,-4.7309,-4.7309,-4.7309,-4.7309,-4.7309,-4.7309,-4.7309,-4.7309,-4.7309,-4.7309,-4.7309,-4.7309,-4.7309,-4.7324,-4.7354,-4.7354,-4.7369,-4.7399,-4.7399,-4.7399,-4.7108,-4.5925,-4.6073,-4.6243,-4.4973,-4.4094,-4.3563,-4.3423,-4.2382,-4.1245,-4.0664,-4.0563,-4.0388,-3.9873,-3.9772,-3.9772,-3.9735,-3.971,-3.9697,-3.9697,-3.9697,-3.9697,-3.9697,-3.9697,-3.9697,-3.9697,-3.9697,-3.9697,-3.9697,-3.9697,-3.9697,-3.9697,-3.9697,-3.9697,-3.9697,-3.9697,-3.9697,-3.9697,-3.9697,-3.9697,-3.9697,-3.9697,-3.9697,-3.9697,-3.9697,-3.9697,-3.9697,-3.9697,-3.9697,-3.9697,-3.9697,-3.9697,-3.9697,-3.9697,-3.9697,-3.9697,-3.9697,-3.9697,-3.9697,-4.4691,-4.4796,-4.4796,-4.4796,-4.4392,-4.4227,-4.4721,-4.493,-4.5035,-4.5035,-4.5185,-4.5289,-4.5289,-4.5289,-4.5499,-4.6022,-4.6052,-4.6262,-4.6756,-4.6785,-4.6785,-4.6785,-4.6785,-4.6785,-4.6785,-4.6785,-4.6875,-4.7055,-4.7055,-4.7145,-4.7309,0.0,0.0,0.0,-4.7309,-4.7309,-4.7309,-4.7309,-4.7309,-4.7309,-4.7309,-4.7309,-4.7309,-4.7309,-4.7309,-4.7309,-4.7309,-4.7309,-4.7309,-4.7309,-4.7623,-4.8027,-4.8027,-4.8371,-4.8805,-4.8805,-4.8805,-4.8716,-4.8372,-4.8431,-4.8276,-4.6983,-4.6514,-4.5839,-4.387,-4.3126,-4.254,-4.1354,-4.1075,-4.1025,-4.0887,-4.0862,-4.0777,-4.0375,-3.9961,-3.9697,-3.9697,-3.9697,-3.9697,-3.9697,-3.9697,-3.9697,-3.9697,-3.9697,-3.9697,-3.9697,-3.9697,-3.9697,-3.9697,-3.9697,-3.9697,-3.9697,-3.9697,-3.9697,-3.9697,-3.9697,-3.9697,-3.9697,-3.9697,-3.9697,-3.9697,-3.9697,-3.9697,-3.9697,-3.9697,-3.9697,-3.9697,-3.9697,-3.9697,-3.9697,-3.9697,-3.9697,-3.9697,-3.9697,-3.9697,-3.9697,-4.5229,-4.5289,-4.5394,-4.5693,-4.5439,-4.5214,-4.5289,-4.5544,-4.5738,-4.5738,-4.5992,-4.6172,-4.6172,-4.6172,-4.6337,-4.6711,-4.6756,-4.692,-4.7279,-4.7309,-4.7309,-4.7309,-4.7309,-4.7309,-4.7309,-4.7309,-4.7309,-4.7309,-4.7309,-4.7309,-4.7309,0.0,0.0,0.0,-4.7309,-4.7309,-4.7309,-4.7309,-4.7309,-4.7309,-4.7309,-4.7474,0.0,-4.7743,-4.7923,-4.8162,-4.8162,-4.7982,-4.7773,-4.8072,-4.8416,-4.876,-4.876,-4.9015,-4.9314,-4.9314,-4.9314,-4.9314,-4.9314,-4.9479,-4.9536,-4.8786,-4.8399,-4.7792,-4.6287,-4.498,-4.3809,-4.2808,-4.21,-4.1618,-4.1326,-4.1288,-4.11,-4.0614,-4.0262,-3.9973,-3.9722,-3.9697,-3.9697,-3.9697,-3.9697,-3.9697,-3.9697,-3.9697,-3.9697,-3.9697,-3.9697,-3.9697,-3.9697,-3.9697,-3.9697,-3.9697,-3.9697,-3.9697,-3.9697,-3.9697,-3.9697,-3.9697,-3.9697,-3.9697,-3.9697,-3.9697,-3.9697,-3.9697,-3.9697,-3.9697,-3.9697,-3.9697,-3.9697,-3.9697,-3.9697,-3.9697,-3.9697,-3.9697,-3.9697,-3.9697,-4.5544,-4.5559,-4.5753,-4.6352,-4.6456,-4.6247,-4.5648,-4.6067,-4.6456,-4.6456,-4.695,-4.7309,-4.7309,-4.7309,-4.7309,-4.7309,-4.7309,-4.7309,-4.7309,-4.7309,-4.7309,-4.7309,-4.7309,-4.7309,-4.7309,-4.7309,-4.7309,-4.7309,-4.7309,-4.7309,0.0,0.0,0.0,0.0,-4.7309,-4.7309,-4.7309,-4.7399,-4.7429,-4.7444,-4.7534,-4.7908,-4.8416,-4.8416,-4.8805,-4.9329,-4.9404,-4.897,-4.8506,-4.912,-4.9359,-4.9434,-4.9434,-4.9494,-4.9569,-4.9569,-4.9569,-4.9569,-4.9569,-4.9942,-5.0315,-5.0315,-4.9875,-4.9357,-4.8999,-4.7043,-4.505,-4.419,-4.3133,-4.212,-4.1643,-4.1438,-4.1291,-4.0802,-4.0676,-4.0438,-3.9885,-3.9798,-3.9772,-3.9697,-3.9697,0.0,-3.9697,-3.9697,-3.9697,-3.9697,-3.9697,-3.9697,-3.9697,-3.9697,-3.9697,-3.9697,-3.9697,-3.9697,-3.9697,-3.9697,-3.9697,-3.9697,-3.9697,-3.9697,-3.9697,-3.9697,-3.9697,-3.9697,-3.9697,-3.9697,-3.9697,-3.9697,-3.9697,-3.9697,-3.9697,-3.9697,-3.9697,-3.9697,-3.9697,-3.9697,-4.6845,-4.695,-4.6995,-4.7115,-4.713,-4.71,-4.698,-4.7055,-4.713,-4.713,-4.7234,-4.7309,-4.7309,-4.7309,-4.7309,-4.7309,-4.7309,-4.7309,-4.7309,-4.7309,-4.7309,-4.7309,-4.7309,-4.7309,-4.7309,-4.7309,-4.7309,-4.7309,-4.7309,-4.7309,-4.7309,0.0,0.0,0.0,-4.7309,-4.7309,-4.7339,-4.7878,-4.8117,-4.8162,-4.8745,-4.9045,-4.9134,-4.9134,-4.9209,-4.9389,-4.9868,-4.9643,-4.9149,-4.9269,-4.9628,-5.0016,-5.0016,-5.0436,-5.087,-5.087,-5.087,-5.087,-5.087,-5.096,-5.1003,-5.1003,-5.0937,-5.0239,-4.7974,-4.7094,-4.6042,-4.3682,-4.3045,-4.2798,-4.271,-4.2321,-4.2037,-4.1936,-4.1492,-4.0949,-4.045,-4.0375,-4.0212,-3.9747,-3.9697,-3.9697,-3.9697,-3.9697,-3.9697,-3.9697,-3.9697,-3.9697,-3.9697,-3.9697,-3.9697,-3.9697,-3.9697,-3.9697,-3.9697,-3.9697,-3.9697,-3.9697,-3.9697,-3.9697,-3.9697,-3.9697,-3.9697,-3.9697,-3.9697,-3.9697,-3.9697,-3.9697,-3.9697,-3.9697,-3.9697,-3.9697,-3.9697,-3.9697,-3.9697,-3.9697,-4.7249,-4.7309,-4.7309,-4.7309,-4.7309,-4.7309,-4.7309,-4.7309,-4.7309,-4.7309,-4.7309,-4.7309,-4.7309,-4.7309,-4.7309,-4.7309,-4.7309,-4.7309,-4.7309,-4.7309,-4.7309,-4.7309,-4.7309,-4.7309,-4.7309,-4.7309,-4.7309,-4.7309,-4.7309,-4.7309,-4.7309,-4.7653,-4.7818,-4.7833,-4.8177,-4.8327,-4.8341,-4.8656,-4.8835,-4.8865,-4.9179,-4.9479,-4.9778,-4.9778,-4.9987,-5.0316,-5.0631,-5.0541,-5.0287,-5.0287,-5.0481,-5.0704,-5.0704,-5.096,-5.1214,-5.1214,-5.1214,-5.1214,-5.1214,-5.1214,-5.1214,-5.1214,-5.0698,-4.9824,-4.8489,-4.7043,-4.5661,-4.4318,-4.3492,-4.2974,-4.2974,-4.276,-4.2539,-4.2263,-4.1932,-4.1467,-4.0639,-4.0513,-4.0312,-3.976,-3.9697,-3.9697,-3.9697,-3.9697,-3.9697,-3.9697,-3.9697,-3.9697,-3.9697,-3.9697,-3.9697,-3.9697,-3.9697,-3.9697,-3.9697,-3.9697,-3.9697,-3.9697,-3.9697,-3.9697,-3.9697,-3.9697,-3.9697,-3.9697,-3.9697,-3.9697,-3.9697,-3.9697,-3.9697,-3.9697,-3.9697,-3.9697,-3.9697,-3.9697,-3.9697,-3.9697,-4.7309,-4.7452,-4.7583,-4.7532,-4.7705,-4.7794,-4.7742,-4.7728,-4.7668,-4.7534,-4.7519,-4.7563,-4.7713,-4.7728,-4.7728,-4.7728,-4.7728,-4.7728,-4.7728,-4.7728,-4.7728,-4.7728,-4.7728,-4.7728,-4.7728,-4.7728,-4.7728,-4.7728,-4.7728,-4.7653,-4.7534,-4.8192,-4.8491,-4.8521,-4.9075,-4.9314,-4.9329,-4.9419,-4.9479,-4.9479,-4.9628,-4.9987,-5.0405,-5.0405,-5.0719,-5.1214,-5.1214,-5.1214,-5.1214,-5.1214,-5.1214,-5.1214,-5.1214,-5.1214,-5.1214,-5.1214,-5.1214,-5.1214,-5.1214,-5.1214,-5.1214,-5.1214,-5.0397,-4.947,-4.8901,-4.7043,-4.5302,-4.4684,-4.3755,-4.2974,-4.2974,-4.2974,-4.2836,-4.2451,-4.2389,-4.2037,-4.1003,-4.0764,-4.0488,-3.9936,-3.9772,-3.9697,-3.9697,-3.9697,-3.9697,-3.9697,-3.9697,-3.9697,-3.9697,-3.9697,-3.9697,-3.9697,-3.9697,-3.9697,-3.9697,-3.9697,-3.9697,-3.9697,-3.9697,-3.9697,-3.9697,-3.9697,-3.9697,-3.9697,-3.9697,-3.9697,-3.9697,-3.9697,-3.9697,-3.9697,-3.9697,-3.9697,-3.9697,-3.9697,-3.9697,-3.9697,-4.7309,-4.803,-4.8561,-4.8248,-4.8971,-4.9438,-4.9149,-4.912,-4.8865,-4.8282,-4.8192,-4.8416,-4.906,-4.912,-4.912,-4.912,-4.912,-4.912,-4.912,-4.912,-4.912,-4.912,-4.912,-4.912,-4.912,-4.912,-4.912,-4.912,-4.912,-4.882,-4.8207,-4.891,-4.9224,-4.9224,-4.9284,-4.9314,-4.9359,-4.9898,-5.0106,-5.0151,-5.0795,-5.1079,-5.1124,-5.1124,-5.1169,-5.1214,-5.1214,-5.1214,-5.1214,-5.1214,-5.1214,-5.1214,-5.1214,-5.1214,-5.1214,-5.1214,-5.1214,-5.1214,-5.1214,-5.1214,-5.1214,-5.1214,-5.112,-5.035,-4.7873,-4.7094,-4.6174,-4.37,-4.3085,-4.2974,-4.2974,-4.2974,-4.2961,-4.2911,-4.2898,-4.274,-4.2137,-4.158,-4.1012,-4.0513,-3.9998,-3.9697,-3.9697,-3.9697,-3.9697,-3.9697,-3.9697,-3.9697,-3.9697,-3.9697,-3.9697,-3.9697,-3.9697,-3.9697,-3.9697,-3.9697,-3.9697,-3.9697,-3.9697,-3.9697,-3.9697,-3.9697,-3.9697,-3.9697,-3.9697,-3.9697,-3.9697,-3.9697,-3.9697,-3.9697,-3.9697,-3.9697,-3.9697,-3.9697,-3.9697,-3.9697,-4.9799,-5.0479,-5.0816,-4.9996,-5.0198,-5.022,-4.9434,-4.9314,-4.9314,-4.9449,-4.9119,-4.9015,-4.9284,-4.9314,-4.9314,-4.9314,-4.9314,-4.9314,-4.9314,-4.9314,-4.9314,-4.9314,-4.9314,-4.9314,-4.9314,-4.9314,-4.9314,-4.9314,-4.9314,-4.9179,-4.8925,-4.9553,-5.0062,-5.0436,-5.0436,-5.0436,-5.0466,-5.072,-5.0779,-5.0808,-5.1109,-5.1214,-5.1214,-5.1214,-5.1214,-5.1214,-5.1214,-5.1214,-5.1214,-5.1214,-5.1214,-5.1214,-5.1214,-5.1214,-5.1214,-5.1214,-5.1214,-5.1214,-5.1214,-5.1214,-5.1214,-5.1214,-5.0603,-4.947,-4.7568,-4.6435,-4.5302,-4.3394,-4.2974,-4.2974,-4.2974,-4.2974,-4.2974,-4.2974,-4.2974,-4.2785,-4.2288,-4.1969,-4.1505,-4.0626,-4.0325,-4.0061,-3.9722,-3.9697,-3.9697,-3.9697,-3.9697,-3.9697,-3.9697,-3.9697,-3.9697,-3.9697,-3.9697,-3.9697,-3.9697,-3.9697,-3.9697,-3.9697,-3.9697,-3.9697,-3.9697,-3.9697,-3.9697,-3.9697,-3.9697,-3.9697,-3.9697,-3.9697,-3.9697,-3.9697,-3.9697,-3.9697,-3.9697,-3.9697,-3.9697,-3.9697,-5.182,-5.2497,-5.2661,-5.1385,-5.1474,-5.127,-5.005,-4.9838,-5.0002,-5.042,-5.0122,-4.9838,-4.9838,-4.9838,-4.9838,-4.9838,-4.9838,-4.9838,-4.9838,-4.9838,-4.9838,-4.9838,-4.9838,-4.9838,-4.9838,-4.9838,-4.9838,-4.9838,-4.9838,-4.9748,-4.9553,-5.0017,-5.0539,-5.1214,-5.1214,-5.1214,-5.1214,-5.1214,-5.1214,-5.1214,-5.1214,-5.1214,-5.1214,-5.1214,-5.1214,-5.1214,-5.1214,-5.1214,-5.1214,-5.1214,-5.1214,-5.1214,-5.1214,-5.1214,-5.1214,-5.1214,-5.1214,-5.1214,-5.1214,-5.1214,-5.1214,-5.1214,-5.0493,-4.9421,-4.8024,-4.694,-4.5872,-4.4481,-4.3852,-4.3602,-4.3602,-4.3295,-4.2974,-4.2974,-4.2974,-4.2891,-4.2502,-4.2313,-4.1923,-4.1091,-4.0714,-4.0362,-3.9973,-3.9785,-3.9697,-3.9697,-3.9697,-3.9697,-3.9697,-3.9697,-3.9697,-3.9697,-3.9697,-3.9697,-3.9697,-3.9697,-3.9697,-3.9697,-3.9697,-3.9697,-3.9697,-3.9697,-3.9697,-3.9697,-3.9697,-3.9697,-3.9697,-3.9697,-3.9697,-3.9697,-3.9697,-3.9697,-3.9697,-3.9697,-3.9697,-3.9697,-5.2597,-5.3382,-5.361,-5.2126,-5.2744,-5.2954,-5.139,-5.1199,-5.1199,-5.1214,-5.1199,-5.1199,-5.1199,-5.1199,-5.1199,-5.1199,-5.1199,-5.1199,-5.1199,-5.1199,-5.1199,-5.1199,-5.1199,-5.1199,-5.1199,-5.1199,-5.1199,-5.1199,-5.1199,-5.0823,-5.0181,-5.0196,-5.0539,-5.1214,-5.1214,-5.1214,-5.1214,-5.1214,-5.1214,-5.1214,-5.1214,-5.1214,-5.1214,-5.1214,-5.1214,-5.1214,-5.1214,-5.1214,-5.1214,-5.1214,-5.1214,-5.1214,-5.1214,-5.1214,-5.1214,-5.1214,-5.1214,-5.1214,-5.1214,-5.1214,-5.1214,-5.1214,-5.1167,-5.0807,-4.947,-4.9161,-4.8738,-4.735,-4.5912,-4.4994,-4.4994,-4.3907,-4.2974,-4.2974,-4.2974,-4.2974,-4.2974,-4.2552,-4.22,-4.2187,-4.1178,-4.0513,-4.0513,-4.0011,-3.9697,-3.9697,-3.9697,-3.9697,-3.9697,-3.9697,-3.9697,-3.9697,-3.9697,-3.9697,-3.9697,-3.9697,-3.9697,-3.9697,-3.9697,-3.9697,-3.9697,-3.9697,-3.9697,-3.9697,-3.9697,-3.9697,-3.9697,-3.9697,-3.9697,-3.9697,-3.9697,-3.9697,-3.9697,-3.9697,-3.9697,-3.9697,-5.5471,-5.6148,-5.6308,-5.5044,-5.5116,-5.4932,-5.371,-5.2856,-5.235,-5.235,-5.1681,-5.1214,-5.1214,-5.1214,-5.1214,-5.1214,-5.1214,-5.1214,-5.1214,-5.1214,-5.1214,-5.1214,-5.1214,-5.1214,-5.1214,-5.1214,-5.1214,-5.1214,-5.1214,-5.1109,-5.0868,-5.0868,-5.102,-5.1214,-5.1214,-5.1214,-5.1214,-5.1214,-5.1214,-5.1214,-5.1214,-5.1214,-5.1214,-5.1214,-5.1214,-5.1214,-5.1214,-5.1214,-5.1214,-5.1214,-5.1214,-5.1214,-5.1214,-5.1214,-5.1214,-5.1214,-5.1214,-5.1214,-5.1214,-5.1214,-5.1214,-5.1214,-5.1214,-5.0855,-4.9518,-4.8439,-4.767,-4.7197,-4.5964,-4.4994,-4.4994,-4.3907,-4.2974,-4.2974,-4.2974,-4.2974,-4.2974,-4.2823,-4.2627,-4.225,-4.1898,-4.1342,-4.0588,-4.0362,-4.0099,-3.9722,-3.9697,-3.9697,-3.9697,-3.9697,-3.9697,-3.9697,-3.9697,-3.9697,-3.9697,-3.9697,-3.9697,-3.9697,-3.9697,-3.9697,-3.9697,-3.9697,-3.9697,-3.9697,-3.9697,-3.9697,-3.9697,-3.9697,-3.9697,-3.9697,-3.9697,-3.9697,-3.9697,-3.9697,-3.9697,-3.9697,-5.7205,-5.7577,-5.7554,-5.6415,-5.6204,-5.5833,-5.4739,-5.3613,-5.29,-5.29,-5.1896,-5.1214,-5.1214,-5.1214,-5.1214,-5.1214,-5.1214,-5.1214,-5.1214,-5.1214,-5.1214,-5.1214,-5.1214,-5.1214,-5.1214,-5.1214,-5.1214,-5.1214,-5.1214,-5.1214,-5.1214,-5.1214,-5.1214,-5.1214,-5.1214,-5.1214,-5.1214,-5.1214,-5.1214,-5.1214,-5.1214,-5.1214,-5.1214,-5.1214,-5.1214,-5.1214,-5.1214,-5.1214,-5.1214,-5.1214,-5.1214,-5.1214,-5.1214,-5.1214,-5.1214,-5.1214,-5.1214,-5.1214,-5.1214,-5.1214,-5.1214,-5.1214,-5.1214,-5.0964,-5.0143,-4.9259,-4.8638,-4.8638,-4.7094,-4.582,-4.582,-4.4277,-4.2974,-4.2974,-4.2974,-4.2974,-4.2974,-4.2974,-4.2904,-4.2564,-4.2338,-4.1936,-4.1204,-4.094,-4.0601,-4.0049,-4.0011,-3.991,-3.9697,-3.9697,-3.9697,-3.9697,-3.9697,-3.9697,-3.9697,-3.9697,-3.9697,-3.9697,-3.9697,-3.9697,-3.9697,-3.9697,-3.9697,-3.9697,-3.9697,-3.9697,-3.9697,-3.9697,-3.9697,-3.9697,-3.9697,-3.9697,-3.9697,-3.9697,-3.9697,-3.9697,-5.7881,-5.7881,-5.7554,-5.6492,-5.6321,-5.5968,-5.4986,-5.3785,-5.3033,-5.3033,-5.1987,-5.1214,-5.1214,-5.1214,-5.1214,-5.1214,-5.1214,-5.1214,-5.1214,-5.1214,-5.1214,-5.1214,-5.1214,-5.1214,-5.1214,-5.1214,-5.1214,-5.1214,-5.1214,-5.1214,-5.1214,-5.1214,-5.1214,-5.1214,-5.1214,-5.1214,-5.1214,-5.1214,-5.1214,-5.1214,-5.1214,-5.1214,-5.1214,-5.1214,-5.1214,-5.1214,-5.1214,-5.1214,-5.1214,-5.1214,-5.1214,-5.1214,-5.1214,-5.1214,-5.1214,-5.1214,-5.1214,-5.1214,-5.1214,-5.1214,-5.1214,-5.1214,-5.1214,-5.1214,-5.1214,-5.1214,-5.1167,-5.1073,-4.895,-4.7043,-4.694,-4.4792,-4.2974,-4.2974,-4.2974,-4.2974,-4.2974,-4.2974,-4.2974,-4.2974,-4.2577,-4.225,-4.2213,-4.1693,-4.1112,-4.0614,-4.0576,-4.035,-3.9835,-3.981,-3.9772,-3.9697,-3.9697,-3.9697,-3.9697,-3.9697,-3.9697,-3.9697,-3.9697,-3.9697,-3.9697,-3.9697,-3.9697,-3.9697,-3.9697,-3.9697,-3.9697,-3.9697,-3.9697,-3.9697,-3.9697,-3.9697,-3.9697,-3.9697,-3.9697,-3.9697,-5.7881,-5.7881,-5.7792,-5.7537,-5.75,-5.7426,-5.7147,-5.545,-5.4211,-5.4211,-5.244,-5.1214,-5.1214,-5.1214,-5.1214,-5.1214,-5.1214,-5.1214,-5.1214,-5.1214,-5.1214,-5.1214,-5.1214,-5.1214,-5.1214,-5.1214,-5.1214,-5.1214,-5.1214,-5.1214,-5.1214,-5.1214,-5.1214,-5.1214,-5.1214,-5.1214,-5.1214,-5.1214,-5.1214,-5.1214,-5.1214,-5.1214,-5.1214,-5.1214,-5.1214,-5.1214,-5.1214,-5.1214,-5.1214,-5.1214,-5.1214,-5.1214,-5.1214,-5.1214,-5.1214,-5.1214,-5.1214,-5.1214,-5.1214,-5.1214,-5.1214,-5.1214,-5.1214,-5.1214,-5.1214,-5.1214,-5.0917,-4.9873,-4.8289,-4.6785,-4.5714,-4.4113,-4.2974,-4.2974,-4.2974,-4.2974,-4.2974,-4.2974,-4.2974,-4.2974,-4.2861,-4.2678,-4.225,-4.2087,-4.1731,-4.1125,-4.1087,-4.1037,-4.0912,-4.0899,-4.0563,-3.9722,-3.9697,-3.9697,-3.9697,-3.9697,-3.9697,-3.9697,-3.9697,-3.9697,-3.9697,-3.9697,-3.9697,-3.9697,-3.9697,-3.9697,-3.9697,-3.9697,-3.9697,-3.9697,-3.9697,-3.9697,-3.9697,-3.9697,-3.9697,-3.9697,-5.7881,-5.7881,-5.7881,-5.7881,-5.7881,-5.7881,-5.7881,-5.6432,-5.5353,-5.5353,-5.3352,-5.1972,-5.1972,-5.1511,-5.1214,-5.1214,-5.1214,-5.1214,-5.1214,-5.1214,-5.1214,-5.1214,-5.1214,-5.1214,-5.1214,-5.1214,-5.1214,-5.1214,-5.1214,-5.1214,-5.1214,-5.1214,-5.1214,-5.1214,-5.1214,-5.1214,-5.1214,-5.1214,-5.1214,-5.1214,-5.1214,-5.1214,-5.1214,-5.1214,-5.1214,-5.1214,-5.1214,-5.1214,-5.1214,-5.1214,-5.1214,-5.1214,-5.1214,-5.1214,-5.1214,-5.1214,-5.1214,-5.1214,-5.1214,-5.1214,-5.1214,-5.1214,-5.1214,-5.1214,-5.1214,-5.1214,-5.1011,-5.0239,-4.8489,-4.6888,-4.6122,-4.4318,-4.2974,-4.2974,-4.2974,-4.2974,-4.2974,-4.2974,-4.2974,-4.2974,-4.2974,-4.2861,-4.2615,-4.259,-4.2351,-4.1756,-4.1706,-4.1605,-4.13,-4.1288,-4.1012,-4.0463,-4.0438,-4.0438,-4.0438,-4.0438,-4.0438,-4.0438,-4.0438,-4.0438,-4.0438,-4.0438,-4.0438,-4.0438,-4.0438,-4.0438,-4.0438,-4.0438,-4.0438,-4.0438,-4.0438,-4.0438,-4.0438,-4.0438,-4.0287,-4.0074,-5.7881,-5.7881,-5.7881,-5.7881,-5.7881,-5.7881,-5.7881,-5.6908,-5.6204,-5.6204,-5.4431,-5.3077,-5.29,-5.2018,-5.1386,-5.1214,-5.1214,-5.1214,-5.1214,-5.1214,-5.1214,-5.1214,-5.1214,-5.1214,-5.1214,-5.1214,-5.1214,-5.1214,-5.1214,-5.1214,-5.1214,-5.1214,-5.1214,-5.1214,-5.1214,-5.1214,-5.1214,-5.1214,-5.1214,-5.1214,-5.1214,-5.1214,-5.1214,-5.1214,-5.1214,-5.1214,-5.1214,-5.1214,-5.1214,-5.1214,-5.1214,-5.1214,-5.1214,-5.1214,-5.1214,-5.1214,-5.1214,-5.1214,-5.1214,-5.1214,-5.1214,-5.1214,-5.1214,-5.1214,-5.1214,-5.1214,-5.112,-5.0964,-4.9049,-4.735,-4.7146,-4.5195,-4.3547,-4.3338,-4.3283,-4.324,-4.303,-4.2974,-4.2974,-4.2974,-4.2974,-4.2974,-4.2974,-4.2974,-4.2841,-4.2363,-4.2338,-4.2082,-4.1551,-4.1539,-4.1539,-4.1539,-4.1376,-4.1288,-4.1288,-4.1288,-4.1288,-4.1288,-4.1288,-4.1288,-4.1288,-4.1288,-4.1288,-4.1288,-4.1288,-4.1288,-4.1288,-4.1288,-4.1288,-4.1288,-4.1288,-4.1288,-4.1288,-4.1288,-4.0987,-4.0639,-5.7881,-5.7881,-5.7881,-5.7881,-5.7881,-5.7881,-5.7881,-5.6908,-5.6204,-5.6204,-5.5109,-5.3956,-5.2989,-5.2738,-5.223,-5.1293,-5.1214,-5.1214,-5.1214,-5.1214,-5.1214,-5.1214,-5.1214,-5.1214,-5.1214,-5.1214,-5.1214,-5.1214,-5.1214,-5.1214,-5.1214,-5.1214,-5.1214,-5.1214,-5.1214,-5.1214,-5.1214,-5.1214,-5.1214,-5.1214,-5.1214,-5.1214,-5.1214,-5.1214,-5.1214,-5.1214,-5.1214,-5.1214,-5.1214,-5.1214,-5.1214,-5.1214,-5.1214,-5.1214,-5.1214,-5.1214,-5.1214,-5.1214,-5.1214,-5.1214,-5.1214,-5.1214,-5.1214,-5.1214,-5.1214,-5.1214,-5.0855,-4.9727,-4.9161,-4.8489,-4.7299,-4.6733,-4.6069,-4.4887,-4.4684,-4.4264,-4.3129,-4.2974,-4.2974,-4.2974,-4.2974,-4.2974,-4.2974,-4.2974,-4.2949,-4.2848,-4.2904,-4.2811,-4.2723,-4.2723,-4.2723,-4.2723,-4.1819,-4.1288,-4.1288,-4.1288,-4.1288,-4.1288,-4.1288,-4.1288,-4.1288,-4.1288,-4.1288,-4.1288,-4.1288,-4.1288,-4.1288,-4.1288,-4.1288,-4.1288,-4.1288,-4.1288,-4.1288,-4.1288,-4.1225,-4.1163,-5.7881,-5.7881,-5.7881,-5.7881,-5.7881,-5.7881,-5.7881,-5.7463,-5.7131,-5.7131,-5.6142,-5.5027,-5.3956,-5.3281,-5.244,-5.1308,-5.1214,-5.1214,-5.1214,-5.1214,-5.1214,-5.1214,-5.1214,-5.1214,-5.1214,-5.1214,-5.1214,-5.1214,-5.1214,-5.1214,-5.1214,-5.1214,-5.1214,-5.1214,-5.1214,-5.1214,-5.1214,-5.1214,-5.1214,-5.1214,-5.1214,-5.1214,-5.1214,-5.1214,-5.1214,-5.1214,-5.1214,-5.1214,-5.1214,-5.1214,-5.1214,-5.1214,-5.1214,-5.1214,-5.1214,-5.1214,-5.1214,-5.1214,-5.1214,-5.1214,-5.1214,-5.1214,-5.1214,-5.1214,-5.1214,-5.1214,-5.1011,-5.0397,-4.9727,-4.8999,-4.8339,-4.7619,-4.6888,-4.6226,-4.6122,-4.5912,-4.5302,-4.5195,-4.4941,-4.4167,-4.4058,-4.381,-4.3085,-4.2974,-4.2974,-4.2974,-4.2974,-4.2974,-4.2974,-4.2974,-4.2974,-4.2974,-4.2484,-4.2221,-4.2221,-4.2221,-4.2221,-4.2221,-4.2221,-4.2221,-4.2221,-4.2221,-4.2221,-4.2221,-4.2221,-4.2221,-4.2221,-4.2221,-4.2221,-4.2221,-4.2221,-4.2221,-4.2221,-4.2221,-4.2032,-4.1769,-5.7881,-5.7881,-5.7881,-5.7881,-5.7881,-5.7881,-5.7881,-5.7881,-5.7881,-5.7881,-5.7131,-5.6165,-5.5068,-5.4195,-5.3221,-5.2109,-5.1972,-5.1896,-5.1588,-5.1603,-5.1479,-5.1214,-5.1214,-5.1214,-5.1214,-5.1214,-5.1214,-5.1214,-5.1214,-5.1214,-5.1214,-5.1214,-5.1214,-5.1214,-5.1214,-5.1214,-5.1214,-5.1214,-5.1214,-5.1214,-5.1214,-5.1214,-5.1214,-5.1214,-5.1214,-5.1214,-5.1214,-5.1214,-5.1214,-5.1214,-5.1214,-5.1214,-5.1214,-5.1214,-5.1214,-5.1214,-5.1214,-5.1214,-5.1214,-5.1214,-5.1214,-5.1214,-5.1214,-5.1214,-5.1214,-5.1214,-5.1214,-5.1214,-5.0397,-4.9664,-4.9664,-4.8802,-4.7974,-4.767,-4.7619,-4.7466,-4.7146,-4.6837,-4.6226,-4.5142,-4.4738,-4.4113,-4.3085,-4.2974,-4.2974,-4.2974,-4.2974,-4.2974,-4.2974,-4.2974,-4.2974,-4.2974,-4.2974,-4.2974,-4.2974,-4.2974,-4.2974,-4.2974,-4.2974,-4.2974,-4.2974,-4.2974,-4.2974,-4.2974,-4.2974,-4.2974,-4.2974,-4.2974,-4.2974,-4.2974,-4.2974,-4.2974,-4.2974,-4.2974,-4.2766,-4.2401,-5.7881,-5.7881,-5.7881,-5.7881,-5.7881,-5.7881,-5.7881,-5.7881,-5.7881,-5.7881,-5.7845,-5.7335,-5.6204,-5.5991,-5.5498,-5.4447,-5.4337,-5.3913,-5.2856,-5.2783,-5.2305,-5.1261,-5.1214,-5.1214,-5.1214,-5.1214,-5.1214,-5.1214,-5.1214,-5.1214,-5.1214,-5.1214,-5.1214,-5.1214,-5.1214,-5.1214,-5.1214,-5.1214,-5.1214,-5.1214,-5.1214,-5.1214,-5.1214,-5.1214,-5.1214,-5.1214,-5.1214,-5.1214,-5.1214,-5.1214,-5.1214,-5.1214,-5.1214,-5.1214,-5.1214,-5.1214,-5.1214,-5.1214,-5.1214,-5.1214,-5.1214,-5.1214,-5.1214,-5.1214,-5.1214,-5.1214,-5.1214,-5.1214,-5.112,-5.1058,-5.1058,-5.0964,-5.0493,-4.9259,-4.9049,-4.8589,-4.7299,-4.5964,-4.5088,-4.4994,-4.3907,-4.3141,-4.303,-4.2974,-4.2974,-4.2974,-4.2974,-4.2974,-4.2974,-4.2974,-4.2974,-4.2974,-4.2974,-4.2974,-4.2974,-4.2974,-4.2974,-4.2974,-4.2974,-4.2974,-4.2974,-4.2974,-4.2974,-4.2974,-4.2974,-4.2974,-4.2974,-4.2974,-4.2974,-4.2974,-4.2974,-4.2974,-4.2974,-4.2974,-4.2949,-4.2924,-5.7881,-5.7881,-5.7881,-5.7881,-5.7881,-5.7881,-5.7881,-5.7881,-5.7881,-5.7881,-5.7881,-5.7463,-5.6321,-5.6204,-5.5754,-5.4697,-5.4589,-5.4421,-5.3999,-5.3281,-5.2395,-5.1261,-5.1214,-5.1214,-5.1214,-5.1214,-5.1214,-5.1214,-5.1214,-5.1214,-5.1214,-5.1214,-5.1214,-5.1214,-5.1214,-5.1214,-5.1214,-5.1214,-5.1214,-5.1214,-5.1214,-5.1214,-5.1214,-5.1214,-5.1214,-5.1214,-5.1214,-5.1214,-5.1214,-5.1214,-5.1214,-5.1214,-5.1214,-5.1214,-5.1214,-5.1214,-5.1214,-5.1214,-5.1214,-5.1214,-5.1214,-5.1214,-5.1214,-5.1214,-5.1214,-5.1214,-5.1214,-5.1214,-5.1214,-5.1214,-5.1214,-5.1214,-5.1011,-5.0493,-5.0445,-5.0239,-4.9727,-4.9161,-4.8225,-4.6487,-4.5872,-4.4887,-4.3184,-4.3755,-4.4222,-4.4222,-4.4222,-4.4222,-4.4222,-4.3449,-4.2974,-4.2974,-4.2974,-4.2974,-4.2974,-4.2974,-4.2974,-4.2974,-4.2974,-4.2974,-4.2974,-4.2974,-4.2974,-4.2974,-4.2974,-4.2974,-4.2974,-4.2974,-4.2974,-4.2974,-4.2974,-4.2974,-4.2974,-4.2974,-4.2974,-4.2974,-5.7881,-5.7881,-5.7881,-5.7881,-5.7881,-5.7881,-5.7881,-5.7881,-5.7881,-5.7881,-5.7881,-5.7591,-5.6832,-5.6739,-5.6432,-5.5691,-5.5651,-5.549,-5.5109,-5.3742,-5.2395,-5.1261,-5.1214,-5.1214,-5.1214,-5.1214,-5.1214,-5.1214,-5.1214,-5.1214,-5.1214,-5.1214,-5.1214,-5.1214,-5.1214,-5.1214,-5.1214,-5.1214,-5.1214,-5.1214,-5.1214,-5.1214,-5.1214,-5.1214,-5.1214,-5.1214,-5.1214,-5.1214,-5.1214,-5.1214,-5.1214,-5.1214,-5.1214,-5.1214,-5.1214,-5.1214,-5.1214,-5.1214,-5.1214,-5.1214,-5.1214,-5.1214,-5.1214,-5.1214,-5.1214,-5.1214,-5.1214,-5.1214,-5.1214,-5.1214,-5.1214,-5.1214,-5.1214,-5.1214,-5.1214,-5.1214,-5.1214,-5.0855,-4.9873,-4.7974,-4.735,-4.6383,-4.4481,-4.5088,-4.5661,-4.5661,-4.5661,-4.5661,-4.5661,-4.4792,-4.4058,-4.3657,-4.3657,-4.3449,-4.2974,-4.2974,-4.2974,-4.2974,-4.2974,-4.2974,-4.2974,-4.2974,-4.2974,-4.2974,-4.2974,-4.2974,-4.2974,-4.2974,-4.2974,-4.2974,-4.2974,-4.2974,-4.2974,-4.2974,-4.2974,-4.2974,-5.7881,-5.7881,-5.7881,-5.7881,-5.7881,-5.7881,-5.7881,-5.7881,-5.7881,-5.7881,-5.7881,-5.7881,-5.7881,-5.7881,-5.7881,-5.7881,-5.7881,-5.7426,-5.6282,-5.4137,-5.2395,-5.1261,-5.1214,-5.1214,-5.1214,-5.1214,-5.1214,-5.1214,-5.1214,-5.1214,-5.1214,-5.1214,-5.1214,-5.1214,-5.1214,-5.1214,-5.1214,-5.1214,-5.1214,-5.1214,-5.1214,-5.1214,-5.1214,-5.1214,-5.1214,-5.1214,-5.1214,-5.1214,-5.1214,-5.1214,-5.1214,-5.1214,-5.1214,-5.1214,-5.1214,-5.1214,-5.1214,-5.1214,-5.1214,-5.1214,-5.1214,-5.1214,-5.1214,-5.1214,-5.1214,-5.1214,-5.1214,-5.1214,-5.1214,-5.1214,-5.1214,-5.1214,-5.1214,-5.1214,-5.1214,-5.1214,-5.1214,-5.0032,-4.921,-4.921,-4.7974,-4.7094,-4.7094,-4.7094,-4.7094,-4.7094,-4.7094,-4.7094,-4.7094,-4.7094,-4.6435,-4.5048,-4.4994,-4.4372,-4.303,-4.2974,-4.2974,-4.2974,-4.2974,-4.2974,-4.2974,-4.2974,-4.2974,-4.2974,-4.2974,-4.2974,-4.2974,-4.2974,-4.2974,-4.2974,-4.2974,-4.2974,-4.2974,-4.2974,-4.2974,-4.2974,-5.7881,-5.7881,-5.7881,-5.7881,-5.7881,-5.7881,-5.7881,-5.7881,-5.7881,-5.7881,-5.7881,-5.7881,-5.7881,-5.7881,-5.7881,-5.7881,-5.7881,-5.7426,-5.6282,-5.5578,-5.4723,-5.3613,-5.2063,-5.1214,-5.1214,-5.1214,-5.1214,-5.1214,-5.1214,-5.1214,-5.1214,-5.1214,-5.1214,-5.1214,-5.1214,-5.1214,-5.1214,-5.1214,-5.1214,-5.1214,-5.1214,-5.1214,-5.1214,-5.1214,-5.1214,-5.1214,-5.1214,-5.1214,-5.1214,-5.1214,-5.1214,-5.1214,-5.1214,-5.1214,-5.1214,-5.1214,-5.1214,-5.1214,-5.1214,-5.1214,-5.1214,-5.1214,-5.1214,-5.1214,-5.1214,-5.1214,-5.1214,-5.1214,-5.1214,-5.1214,-5.1214,-5.1214,-5.1214,-5.1214,-5.1214,-5.1214,-5.1214,-5.0855,-5.0239,-4.9308,-4.8851,-4.8175,-4.7197,-4.7974,-4.8589,-4.8589,-4.8589,-4.8125,-4.7146,-4.7094,-4.6435,-4.5048,-4.4994,-4.4372,-4.303,-4.2974,-4.2974,-4.2974,-4.2974,-4.2974,-4.2974,-4.2974,-4.2974,-4.2974,-4.2974,-4.2974,-4.2974,-4.2974,-4.2974,-4.2974,-4.2974,-4.2974,-4.2974,-4.2974,-4.2974,-4.2974,-5.7881,-5.7881,-5.7881,-5.7881,-5.7881,-5.7881,-5.7881,-5.7881,-5.7881,-5.7881,-5.7881,-5.7881,-5.7881,-5.7881,-5.7881,-5.7881,-5.7881,-5.7591,-5.6925,-5.6454,-5.5913,-5.5272,-5.3526,-5.2305,-5.1896,-5.1896,-5.1635,-5.1214,-5.1214,-5.1214,-5.1214,-5.1214,-5.1214,-5.1214,-5.1214,-5.1214,-5.1214,-5.1214,-5.1214,-5.1214,-5.1214,-5.1214,-5.1214,-5.1214,-5.1214,-5.1214,-5.1214,-5.1214,-5.1214,-5.1214,-5.1214,-5.1214,-5.1214,-5.1214,-5.1214,-5.1214,-5.1214,-5.1214,-5.1214,-5.1214,-5.1214,-5.1214,-5.1214,-5.1214,-5.1214,-5.1214,-5.1214,-5.1214,-5.1214,-5.1214,-5.1214,-5.1214,-5.1214,-5.1214,-5.1214,-5.1214,-5.1214,-5.1214,-5.0902,-5.008,-4.9984,-4.9664,-4.8802,-4.947,-4.9984,-4.9984,-4.9984,-4.9616,-4.8752,-4.8738,-4.7822,-4.5872,-4.582,-4.4941,-4.303,-4.2974,-4.2974,-4.2974,-4.2974,-4.2974,-4.2974,-4.2974,-4.2974,-4.2974,-4.2974,-4.2974,-4.2974,-4.2974,-4.2974,-4.2974,-4.2974,-4.2974,-4.2974,-4.2974,-4.2974,-4.2974,-5.7881,-5.7881,-5.7881,-5.7881,-5.7881,-5.7881,-5.7881,-5.7881,-5.7881,-5.7881,-5.7881,-5.7881,-5.7881,-5.7881,-5.7881,-5.7881,-5.7881,-5.7881,-5.7881,-5.6908,-5.636,-5.636,-5.5393,-5.4363,-5.3237,-5.2989,-5.2395,-5.1339,-5.1261,-5.1214,-5.1214,-5.1214,-5.1214,-5.1214,-5.1214,-5.1214,-5.1214,-5.1214,-5.1214,-5.1214,-5.1214,-5.1214,-5.1214,-5.1214,-5.1214,-5.1214,-5.1214,-5.1214,-5.1214,-5.1214,-5.1214,-5.1214,-5.1214,-5.1214,-5.1214,-5.1214,-5.1214,-5.1214,-5.1214,-5.1214,-5.1214,-5.1214,-5.1214,-5.1214,-5.1214,-5.1214,-5.1214,-5.1214,-5.1214,-5.1214,-5.1214,-5.1214,-5.1214,-5.1214,-5.1214,-5.1214,-5.1214,-5.1214,-5.1214,-5.1214,-5.1214,-5.1214,-5.1214,-5.1214,-5.1214,-5.1214,-5.1214,-5.1214,-5.1214,-5.1214,-4.9936,-4.7197,-4.7094,-4.5767,-4.303,-4.2974,-4.2974,-4.2974,-4.2974,-4.2974,-4.2974,-4.2974,-4.2974,-4.2974,-4.2974,-4.2974,-4.2974,-4.2974,-4.2974,-4.2974,-4.2974,-4.2974,-4.2974,-4.2974,-4.2974,-4.2974,-5.7881,-5.7881,-5.7881,-5.7881,-5.7881,-5.7881,-5.7881,-5.7881,-5.7881,-5.7881,-5.7881,-5.7881,-5.7881,-5.7881,-5.7881,-5.7881,-5.7881,-5.7881,-5.7881,-5.7681,-5.7537,-5.7537,-5.7297,-5.6641,-5.5498,-5.3769,-5.2783,-5.253,-5.1635,-5.1214,-5.1214,-5.1214,-5.1214,-5.1214,-5.1214,-5.1214,-5.1214,-5.1214,-5.1214,-5.1214,-5.1214,-5.1214,-5.1214,-5.1214,-5.1214,-5.1214,-5.1214,-5.1214,-5.1214,-5.1214,-5.1214,-5.1214,-5.1214,-5.1214,-5.1214,-5.1214,-5.1214,-5.1214,-5.1214,-5.1214,-5.1214,-5.1214,-5.1214,-5.1214,-5.1214,-5.1214,-5.1214,-5.1214,-5.1214,-5.1214,-5.1214,-5.1214,-5.1214,-5.1214,-5.1214,-5.1214,-5.1214,-5.1214,-5.1214,-5.1214,-5.1214,-5.1214,-5.1214,-5.1214,-5.1214,-5.1214,-5.1214,-5.1214,-5.1214,-5.1214,-4.9936,-4.7197,-4.7094,-4.5767,-4.303,-4.2974,-4.2974,-4.2974,-4.2974,-4.2974,-4.2974,-4.2974,-4.2974,-4.2974,-4.2974,-4.2974,-4.2974,-4.2974,-4.2974,-4.2974,-4.2974,-4.2974,-4.2974,-4.2974,-4.2974,-4.2974,-5.7881,-5.7881,-5.7881,-5.7881,-5.7881,-5.7881,-5.7881,-5.7881,-5.7881,-5.7881,-5.7881,-5.7881,-5.7881,-5.7881,-5.7881,-5.7881,-5.7881,-5.7881,-5.7881,-5.7881,-5.7881,-5.7881,-5.7881,-5.7628,-5.7039,-5.5337,-5.3983,-5.29,-5.2305,-5.1727,-5.1214,-5.1214,-5.1214,-5.1214,-5.1214,-5.1214,-5.1214,-5.1214,-5.1214,-5.1214,-5.1214,-5.1214,-5.1214,-5.1214,-5.1214,-5.1214,-5.1214,-5.1214,-5.1214,-5.1214,-5.1214,-5.1214,-5.1214,-5.1214,-5.1214,-5.1214,-5.1214,-5.1214,-5.1214,-5.1214,-5.1214,-5.1214,-5.1214,-5.1214,-5.1214,-5.1214,-5.1214,-5.1214,-5.1214,-5.1214,-5.1214,-5.1214,-5.1214,-5.1214,-5.1214,-5.1214,-5.1214,-5.1214,-5.1214,-5.1214,-5.1214,-5.1214,-5.1214,-5.1214,-5.1214,-5.1214,-5.1214,-5.1214,-5.1214,-5.1214,-5.0239,-4.8175,-4.8074,-4.7094,-4.4994,-4.4264,-4.3962,-4.3962,-4.3283,-4.2974,-4.2974,-4.2974,-4.2974,-4.2974,-4.2974,-4.2974,-4.2974,-4.2974,-4.2974,-4.2974,-4.2974,-4.2974,-4.2974,-4.2974,-4.2974,-4.2974,-5.7881,-5.7881,-5.7881,-5.7881,-5.7881,-5.7881,-5.7881,-5.7881,-5.7881,-5.7881,-5.7881,-5.7881,-5.7881,-5.7881,-5.7881,-5.7881,-5.7881,-5.7881,-5.7881,-5.7881,-5.7881,-5.7881,-5.7881,-5.7881,-5.7881,-5.6963,-5.5498,-5.3483,-5.3281,-5.2694,-5.1773,-5.1603,-5.1464,-5.1464,-5.1308,-5.1214,-5.1214,-5.1214,-5.1214,-5.1214,-5.1214,-5.1214,-5.1214,-5.1214,-5.1214,-5.1214,-5.1214,-5.1214,-5.1214,-5.1214,-5.1214,-5.1214,-5.1214,-5.1214,-5.1214,-5.1214,-5.1214,-5.1214,-5.1214,-5.1214,-5.1214,-5.1214,-5.1214,-5.1214,-5.1214,-5.1214,-5.1214,-5.1214,-5.1214,-5.1214,-5.1214,-5.1214,-5.1214,-5.1214,-5.1214,-5.1214,-5.1214,-5.1214,-5.1214,-5.1214,-5.1214,-5.1214,-5.1214,-5.1214,-5.1214,-5.1214,-5.1214,-5.1214,-5.1214,-5.1214,-5.0603,-4.9259,-4.921,-4.8539,-4.7094,-4.5912,-4.5356,-4.5356,-4.4222,-4.3449,-4.2974,-4.2974,-4.2974,-4.2974,-4.2974,-4.2974,-4.2974,-4.2974,-4.2974,-4.2974,-4.2974,-4.2974,-4.2974,-4.2974,-4.2974,-4.2974,-5.7881,-5.7881,-5.7881,-5.7881,-5.7881,-5.7881,-5.7881,-5.7881,-5.7881,-5.7881,-5.7881,-5.7881,-5.7881,-5.7881,-5.7881,-5.7881,-5.7881,-5.7881,-5.7881,-5.7881,-5.7881,-5.7881,-5.7881,-5.7881,-5.7881,-5.7755,-5.7039,-5.5738,-5.4822,-5.4295,-5.4126,-5.3105,-5.2649,-5.262,-5.1635,-5.1214,-5.1214,-5.1214,-5.1214,-5.1214,-5.1214,-5.1214,-5.1214,-5.1214,-5.1214,-5.1214,-5.1214,-5.1214,-5.1214,-5.1214,-5.1214,-5.1214,-5.1214,-5.1214,-5.1214,-5.1214,-5.1214,-5.1214,-5.1214,-5.1214,-5.1214,-5.1214,-5.1214,-5.1214,-5.1214,-5.1214,-5.1214,-5.1214,-5.1214,-5.1214,-5.1214,-5.1214,-5.1214,-5.1214,-5.1214,-5.1214,-5.1214,-5.1214,-5.1214,-5.1214,-5.1214,-5.1214,-5.1214,-5.1214,-5.1214,-5.1214,-5.1214,-5.1214,-5.1214,-5.1214,-5.0603,-4.9259,-4.919,-4.8518,-4.7094,-4.6888,-4.6837,-4.6785,-4.6643,-4.5302,-4.2974,-4.2974,-4.2974,-4.2974,-4.2974,-4.2974,-4.2974,-4.2974,-4.2974,-4.2974,-4.2974,-4.2974,-4.2974,-4.2974,-4.2974,-4.2974,-5.7881,-5.7881,-5.7881,-5.7881,-5.7881,-5.7881,-5.7881,-5.7881,-5.7881,-5.7881,-5.7881,-5.7881,-5.7881,-5.7881,-5.7881,-5.7881,-5.7881,-5.7881,-5.7881,-5.7881,-5.7881,-5.7881,-5.7881,-5.7881,-5.7881,-5.7881,-5.7628,-5.7168,-5.6047,-5.5191,-5.4589,-5.4084,-5.3828,-5.3785,-5.2649,-5.2139,-5.2109,-5.1464,-5.1214,-5.1214,-5.1214,-5.1214,-5.1214,-5.1214,-5.1214,-5.1214,-5.1214,-5.1214,-5.1214,-5.1214,-5.1214,-5.1214,-5.1214,-5.1214,-5.1214,-5.1214,-5.1214,-5.1214,-5.1214,-5.1214,-5.1214,-5.1214,-5.1214,-5.1214,-5.1214,-5.1214,-5.1214,-5.1214,-5.1214,-5.1214,-5.1214,-5.1214,-5.1214,-5.1214,-5.1214,-5.1214,-5.1214,-5.1214,-5.1214,-5.1214,-5.1214,-5.1214,-5.1214,-5.1214,-5.1214,-5.1214,-5.1214,-5.1214,-5.1214,-5.1214,-5.0917,-5.0335,-5.0302,-4.9999,-4.9406,-4.8638,-4.8275,-4.8275,-4.7466,-4.6069,-4.4113,-4.4113,-4.37,-4.2974,-4.2974,-4.2974,-4.2974,-4.2974,-4.2974,-4.2974,-4.2974,-4.2974,-4.2974,-4.2974,-4.2974,-4.2974]},{"header":{"parameterUnit":"m.s-1","parameterCategory":1,"la1":30.6,"la2":28.766,"lo1":-90.7593,"lo2":-88.6598,"dy":0.0162,"dx":0.0183,"nx":116,"ny":114,"refTime":"2023-06-10T18:00:00:Z","depth":0,"parameterNumber":3,"parameterNumberName":"V-component_of_WINDS"},"data":[0.0,0.0,0.0,0.0,0.0,0.0,0.0,0.0,0.0,0.0,0.0,0.0,0.0,0.0,0.0,0.0,0.0,0.0,0.0,0.0,0.0,0.0,0.0,0.0,0.0,0.0,0.0,0.0,0.0,0.0,0.0,0.0,0.0,0.0,0.0,0.0,0.0,0.0,0.0,0.0,0.0,0.0,0.0,0.0,0.0,0.0,0.0,0.0,0.0,0.0,0.0,0.0,0.0,0.0,0.0,0.0,0.0,0.0,0.0,0.0,0.0,0.0,0.0,0.0,0.0,0.0,0.0,0.0,0.0,0.0,0.0,0.0,0.0,0.0,0.0,0.0,0.0,0.0,0.0,0.0,0.0,0.0,0.0,0.0,0.0,0.0,0.0,0.0,0.0,0.0,0.0,0.0,0.0,0.0,0.0,0.0,0.0,0.0,0.0,0.0,0.0,0.0,0.0,0.0,0.0,0.0,0.0,0.0,0.0,0.0,0.0,0.0,0.0,0.0,0.0,0.0,0.0,0.0,0.0,0.0,0.0,0.0,0.0,0.0,0.0,0.0,0.0,0.0,0.0,0.0,0.0,0.0,0.0,0.0,0.0,0.0,0.0,0.0,0.0,0.0,0.0,0.0,0.0,0.0,0.0,0.0,0.0,0.0,0.0,0.0,0.0,0.0,0.0,0.0,0.0,0.0,0.0,0.0,0.0,0.0,0.0,0.0,0.0,0.0,0.0,0.0,0.0,0.0,0.0,0.0,0.0,0.0,0.0,0.0,0.0,0.0,0.0,0.0,0.0,0.0,0.0,0.0,0.0,0.0,0.0,0.0,0.0,0.0,0.0,0.0,0.0,0.0,0.0,0.0,0.0,0.0,0.0,0.0,0.0,0.0,0.0,0.0,0.0,0.0,0.0,0.0,0.0,0.0,0.0,0.0,0.0,0.0,0.0,0.0,0.0,0.0,0.0,0.0,0.0,0.0,0.0,0.0,0.0,0.0,0.0,0.0,0.0,0.0,0.0,0.0,0.0,0.0,0.0,0.0,0.0,0.0,0.0,0.0,0.0,0.0,0.0,0.0,0.0,0.0,0.0,0.0,0.0,0.0,0.0,0.0,0.0,0.0,0.0,0.0,0.0,0.0,0.0,0.0,0.0,0.0,0.0,0.0,0.0,0.0,0.0,0.0,0.0,0.0,0.0,0.0,0.0,0.0,0.0,0.0,0.0,0.0,0.0,0.0,0.0,0.0,0.0,0.0,0.0,0.0,0.0,0.0,0.0,0.0,0.0,0.0,0.0,0.0,0.0,0.0,0.0,0.0,0.0,0.0,0.0,0.0,0.0,0.0,0.0,0.0,0.0,0.0,0.0,0.0,0.0,0.0,0.0,0.0,0.0,0.0,0.0,0.0,0.0,0.0,0.0,0.0,0.0,0.0,0.0,0.0,0.0,0.0,0.0,0.0,0.0,0.0,0.0,0.0,0.0,0.0,0.0,0.0,0.0,0.0,0.0,0.0,0.0,0.0,0.0,0.0,0.0,0.0,0.0,0.0,0.0,0.0,0.0,0.0,0.0,0.0,0.0,0.0,0.0,0.0,0.0,0.0,0.0,0.0,0.0,0.0,0.0,0.0,0.0,0.0,0.0,0.0,0.0,0.0,0.0,0.0,0.0,0.0,0.0,0.0,0.0,0.0,0.0,0.0,0.0,0.0,0.0,0.0,0.0,0.0,0.0,0.0,0.0,0.0,0.0,0.0,0.0,0.0,0.0,0.0,0.0,0.0,0.0,0.0,0.0,0.0,0.0,0.0,0.0,0.0,0.0,0.0,0.0,0.0,0.0,0.0,0.0,0.0,0.0,0.0,0.0,0.0,0.0,0.0,0.0,0.0,0.0,0.0,0.0,0.0,0.0,0.0,0.0,0.0,0.0,0.0,0.0,0.0,0.0,0.0,0.0,0.0,0.0,0.0,0.0,0.0,0.0,0.0,0.0,0.0,0.0,0.0,0.0,0.0,0.0,0.0,0.0,0.0,0.0,0.0,0.0,0.0,0.0,0.0,0.0,0.0,0.0,0.0,0.0,0.0,0.0,0.0,0.0,0.0,0.0,0.0,0.0,0.0,0.0,0.0,0.0,0.0,0.0,0.0,0.0,0.0,0.0,0.0,0.0,0.0,0.0,0.0,0.0,0.0,0.0,0.0,0.0,0.0,0.0,0.0,0.0,0.0,0.0,0.0,0.0,0.0,0.0,0.0,0.0,0.0,0.0,0.0,0.0,0.0,0.0,0.0,0.0,0.0,0.0,0.0,0.0,0.0,0.0,0.0,0.0,0.0,0.0,0.0,0.0,0.0,0.0,0.0,0.0,0.0,0.0,0.0,0.0,0.0,0.0,0.0,0.0,0.0,0.0,0.0,0.0,0.0,0.0,0.0,0.0,0.0,0.0,0.0,0.0,0.0,0.0,0.0,0.0,0.0,0.0,0.0,0.0,0.0,0.0,0.0,0.0,0.0,0.0,0.0,0.0,0.0,0.0,0.0,0.0,0.0,0.0,0.0,0.0,0.0,0.0,0.0,0.0,0.0,0.0,0.0,0.0,0.0,0.0,0.0,0.0,0.0,0.0,0.0,0.0,0.0,0.0,0.0,0.0,0.0,0.0,0.0,0.0,0.0,0.0,0.0,0.0,0.0,0.0,0.0,0.0,0.0,0.0,0.0,0.0,0.0,0.0,0.0,0.0,0.0,0.0,0.0,0.0,0.0,0.0,0.0,0.0,0.0,0.0,0.0,0.0,0.0,0.0,0.0,0.0,0.0,0.0,0.0,0.0,0.0,0.0,0.0,0.0,0.0,0.0,0.0,0.0,0.0,0.0,0.0,0.0,0.0,0.0,0.0,0.0,0.0,0.0,0.0,0.0,0.0,0.0,0.0,0.0,0.0,0.0,0.0,0.0,0.0,0.0,0.0,0.0,0.0,0.0,0.0,0.0,0.0,0.0,0.0,0.0,0.0,0.0,0.0,0.0,0.0,0.0,0.0,0.0,0.0,0.0,0.0,0.0,0.0,0.0,0.0,0.0,0.0,0.0,0.0,0.0,0.0,0.0,0.0,0.0,0.0,0.0,0.0,0.0,0.0,0.0,0.0,0.0,0.0,0.0,0.0,0.0,0.0,0.0,0.0,0.0,0.0,0.0,0.0,0.0,0.0,0.0,0.0,0.0,0.0,0.0,0.0,0.0,0.0,0.0,0.0,0.0,0.0,0.0,0.0,0.0,0.0,0.0,0.0,0.0,0.0,0.0,0.0,0.0,0.0,0.0,0.0,0.0,0.0,0.0,0.0,0.0,0.0,0.0,0.0,0.0,0.0,0.0,0.0,0.0,0.0,0.0,0.0,0.0,0.0,0.0,0.0,0.0,0.0,0.0,0.0,0.0,0.0,0.0,0.0,0.0,0.0,0.0,0.0,0.0,0.0,0.0,0.0,0.0,0.0,0.0,0.0,0.0,0.0,0.0,0.0,0.0,0.0,0.0,0.0,0.0,0.0,0.0,0.0,0.0,0.0,0.0,0.0,0.0,0.0,0.0,0.0,0.0,0.0,0.0,0.0,0.0,0.0,0.0,0.0,0.0,0.0,0.0,0.0,0.0,0.0,0.0,0.0,0.0,0.0,0.0,0.0,0.0,0.0,0.0,0.0,0.0,0.0,0.0,0.0,0.0,0.0,0.0,0.0,0.0,0.0,0.0,0.0,0.0,0.0,0.0,0.0,0.0,0.0,0.0,0.0,0.0,0.0,0.0,0.0,0.0,0.0,0.0,0.0,0.0,0.0,0.0,0.0,0.0,0.0,0.0,0.0,0.0,0.0,0.0,0.0,0.0,0.0,0.0,0.0,0.0,0.0,0.0,0.0,0.0,0.0,0.0,0.0,0.0,0.0,0.0,0.0,0.0,0.0,0.0,0.0,0.0,0.0,0.0,0.0,0.0,0.0,0.0,0.0,0.0,0.0,0.0,0.0,0.0,0.0,0.0,0.0,0.0,0.0,0.0,0.0,0.0,0.0,0.0,0.0,0.0,0.0,0.0,0.0,0.0,0.0,0.0,0.0,0.0,0.0,0.0,0.0,0.0,0.0,0.0,0.0,0.0,0.0,0.0,0.0,0.0,0.0,0.0,0.0,0.0,0.0,0.0,0.0,0.0,0.0,0.0,0.0,0.0,0.0,0.0,0.0,0.0,0.0,0.0,0.0,0.0,0.0,0.0,0.0,0.0,0.0,0.0,0.0,0.0,0.0,0.0,0.0,0.0,0.0,0.0,0.0,0.0,0.0,0.0,0.0,0.0,0.0,0.0,0.0,0.0,0.0,0.0,0.0,0.0,0.0,0.0,0.0,0.0,0.0,0.0,0.0,0.0,0.0,0.0,0.0,0.0,0.0,0.0,0.0,0.0,0.0,0.0,0.0,0.0,0.0,0.0,0.0,0.0,0.0,0.0,0.0,0.0,0.0,0.0,0.0,0.0,0.0,0.0,0.0,0.0,0.0,0.0,0.0,0.0,0.0,0.0,0.0,0.0,0.0,0.0,0.0,0.0,0.0,0.0,0.0,0.0,0.0,0.0,0.0,0.0,0.0,0.0,0.0,0.0,0.0,0.0,0.0,0.0,0.0,0.0,0.0,0.0,0.0,0.0,0.0,0.0,0.0,0.0,0.0,0.0,0.0,0.0,0.0,0.0,0.0,0.0,0.0,0.0,0.0,0.0,0.0,0.0,0.0,0.0,0.0,0.0,0.0,0.0,0.0,0.0,0.0,0.0,0.0,0.0,0.0,0.0,0.0,0.0,0.0,0.0,0.0,0.0,0.0,0.0,0.0,0.0,0.0,0.0,0.0,0.0,0.0,0.0,0.0,0.0,0.0,0.0,0.0,0.0,0.0,0.0,0.0,0.0,0.0,0.0,0.0,0.0,0.0,0.0,0.0,0.0,0.0,0.0,0.0,0.0,0.0,0.0,0.0,0.0,0.0,0.0,0.0,0.0,0.0,0.0,0.0,0.0,0.0,0.0,0.0,0.0,0.0,0.0,0.0,0.0,0.0,0.0,0.0,0.0,0.0,0.0,0.0,0.0,0.0,0.0,0.0,0.0,0.0,0.0,0.0,0.0,0.0,0.0,0.0,0.0,0.0,0.0,0.0,0.0,0.0,0.0,0.0,0.0,0.0,0.0,0.0,0.0,0.0,0.0,0.0,0.0,0.0,0.0,0.0,0.0,0.0,0.0,0.0,0.0,0.0,0.0,0.0,0.0,0.0,0.0,0.0,0.0,0.0,0.0,0.0,0.0,0.0,0.0,0.0,0.0,0.0,0.0,0.0,0.0,0.0,0.0,0.0,0.0,0.0,0.0,0.0,0.0,0.0,0.0,0.0,0.0,0.0,0.0,0.0,0.0,0.0,0.0,0.0,0.0,0.0,0.0,0.0,0.0,0.0,0.0,0.0,0.0,0.0,0.0,0.0,0.0,0.0,0.0,0.0,0.0,0.0,0.0,0.0,0.0,0.0,0.0,0.0,0.0,0.0,0.0,0.0,0.0,0.0,0.0,0.0,0.0,0.0,0.0,0.0,0.0,0.0,0.0,0.0,0.0,0.0,0.0,0.0,0.0,0.0,0.0,0.0,0.0,0.0,0.0,0.0,0.0,0.0,0.0,0.0,0.0,0.0,0.0,0.0,0.0,0.0,0.0,0.0,0.0,0.0,0.0,0.0,0.0,0.0,0.0,0.0,0.0,0.0,0.0,0.0,0.0,0.0,0.0,0.0,0.0,0.0,0.0,0.0,0.0,0.0,0.0,0.0,0.0,0.0,0.0,0.0,0.0,0.0,0.0,0.0,0.0,0.0,0.0,0.0,0.0,0.0,0.0,0.0,0.0,0.0,0.0,0.0,0.0,0.0,0.0,0.0,0.0,0.0,0.0,0.0,0.0,0.0,0.0,0.0,0.0,0.0,0.0,0.0,0.0,0.0,0.0,0.0,0.0,0.0,0.0,0.0,0.0,0.0,0.0,0.0,0.0,0.0,0.0,0.0,0.0,0.0,0.0,0.0,0.0,0.0,0.0,0.0,0.0,0.0,0.0,0.0,0.0,0.0,-4.6622,-4.6806,0.0,0.0,0.0,0.0,0.0,0.0,0.0,0.0,0.0,0.0,0.0,0.0,0.0,0.0,0.0,0.0,0.0,0.0,0.0,0.0,0.0,0.0,0.0,0.0,0.0,0.0,0.0,0.0,0.0,0.0,0.0,0.0,0.0,0.0,0.0,0.0,0.0,0.0,0.0,0.0,0.0,0.0,0.0,0.0,0.0,0.0,0.0,0.0,0.0,0.0,0.0,0.0,0.0,0.0,0.0,0.0,0.0,0.0,0.0,0.0,0.0,0.0,0.0,0.0,0.0,0.0,0.0,0.0,0.0,0.0,0.0,0.0,0.0,0.0,0.0,0.0,0.0,0.0,0.0,0.0,0.0,0.0,0.0,0.0,0.0,0.0,0.0,0.0,0.0,0.0,0.0,0.0,0.0,0.0,0.0,0.0,0.0,0.0,0.0,0.0,0.0,0.0,0.0,0.0,0.0,0.0,0.0,0.0,0.0,0.0,0.0,0.0,0.0,0.0,-4.7151,-4.7365,0.0,0.0,0.0,0.0,0.0,0.0,0.0,0.0,0.0,0.0,0.0,0.0,0.0,0.0,0.0,0.0,0.0,0.0,0.0,0.0,0.0,0.0,0.0,0.0,0.0,0.0,0.0,0.0,0.0,0.0,0.0,0.0,0.0,0.0,0.0,0.0,0.0,0.0,0.0,0.0,0.0,0.0,0.0,0.0,0.0,0.0,0.0,0.0,0.0,0.0,0.0,0.0,0.0,0.0,0.0,0.0,0.0,0.0,0.0,0.0,0.0,0.0,0.0,0.0,0.0,0.0,0.0,0.0,0.0,0.0,0.0,0.0,0.0,0.0,0.0,0.0,0.0,0.0,0.0,0.0,0.0,0.0,0.0,0.0,0.0,0.0,0.0,0.0,0.0,0.0,0.0,0.0,0.0,0.0,0.0,0.0,0.0,0.0,0.0,0.0,0.0,0.0,0.0,0.0,0.0,0.0,0.0,0.0,-4.4793,-4.5893,-4.6813,-4.8339,-4.8909,-4.8685,-4.7511,-4.777,-4.9001,-4.9001,0.0,0.0,0.0,0.0,0.0,0.0,0.0,0.0,0.0,0.0,0.0,0.0,0.0,0.0,0.0,0.0,0.0,0.0,0.0,0.0,0.0,0.0,0.0,0.0,0.0,0.0,0.0,0.0,0.0,0.0,0.0,0.0,0.0,0.0,0.0,0.0,0.0,0.0,-3.9388,-3.9388,-3.9388,-3.9388,0.0,0.0,0.0,0.0,0.0,0.0,0.0,0.0,0.0,0.0,0.0,0.0,0.0,0.0,0.0,0.0,0.0,0.0,0.0,0.0,0.0,0.0,0.0,0.0,0.0,0.0,0.0,0.0,0.0,0.0,0.0,0.0,0.0,0.0,0.0,0.0,0.0,0.0,0.0,0.0,0.0,0.0,0.0,0.0,-4.1674,-4.0811,0.0,0.0,0.0,0.0,0.0,0.0,0.0,0.0,0.0,0.0,0.0,0.0,0.0,-4.1897,-4.1709,-4.3205,-4.4669,-4.6012,-4.6209,-4.6717,-4.7523,-4.8526,-4.8545,-4.7836,-4.8413,0.0,-4.9001,-4.9001,0.0,0.0,0.0,0.0,0.0,0.0,0.0,0.0,0.0,0.0,0.0,0.0,0.0,0.0,0.0,0.0,0.0,0.0,0.0,0.0,0.0,0.0,0.0,0.0,0.0,0.0,0.0,0.0,0.0,0.0,0.0,0.0,0.0,0.0,0.0,0.0,-3.9388,-3.9388,-3.9388,-3.9388,-3.9388,-3.9388,-3.9388,-3.9388,-3.9388,-3.9388,0.0,0.0,0.0,0.0,0.0,0.0,0.0,0.0,0.0,0.0,0.0,0.0,0.0,0.0,0.0,0.0,0.0,0.0,0.0,0.0,0.0,0.0,0.0,0.0,0.0,0.0,0.0,0.0,0.0,0.0,0.0,0.0,0.0,0.0,0.0,0.0,0.0,0.0,0.0,-4.128,-4.0961,-4.008,-3.9955,-3.9955,0.0,0.0,0.0,0.0,0.0,0.0,0.0,0.0,0.0,-4.181,-4.3145,-4.3754,-4.3621,-4.4812,-4.6012,-4.7128,-4.7128,-4.757,-4.8401,-4.8829,-4.8798,-4.8401,-4.8829,-4.9001,-4.9001,-4.9001,-4.9001,-4.9001,0.0,0.0,0.0,0.0,-4.961,-4.9712,0.0,0.0,0.0,0.0,0.0,0.0,0.0,0.0,0.0,0.0,0.0,0.0,0.0,0.0,0.0,-3.9388,0.0,0.0,0.0,0.0,0.0,0.0,0.0,0.0,0.0,0.0,0.0,0.0,-3.9388,-3.9388,-3.9388,-3.9388,-3.9388,-3.9388,-3.9388,-3.9388,-3.9388,-3.9388,-3.9388,0.0,0.0,0.0,0.0,0.0,0.0,0.0,0.0,0.0,0.0,0.0,0.0,0.0,0.0,0.0,0.0,0.0,0.0,0.0,0.0,0.0,0.0,0.0,0.0,0.0,0.0,0.0,0.0,0.0,0.0,0.0,0.0,0.0,0.0,0.0,0.0,0.0,0.0,-4.0569,-4.0466,-3.9793,-3.9553,-3.9481,0.0,0.0,0.0,0.0,0.0,0.0,-3.9994,-4.1264,-4.1972,-4.1972,-4.4397,-4.5391,-4.4767,-4.609,-4.6931,-4.7239,-4.7489,-4.7982,-4.8656,-4.8892,-4.9001,-4.9001,-4.9001,-4.9001,-4.9001,-4.9001,-4.9001,-4.9018,-4.9204,-4.9272,-4.9373,-5.0101,-5.0371,-5.049,0.0,0.0,0.0,0.0,0.0,0.0,0.0,0.0,0.0,0.0,0.0,0.0,0.0,0.0,-3.9388,-3.9388,-3.9388,-3.9388,0.0,0.0,0.0,0.0,0.0,0.0,0.0,0.0,0.0,-3.9388,-3.9388,-3.9388,-3.9388,-3.9388,-3.9388,-3.9388,-3.9388,-3.9388,-3.9388,-3.9388,-3.9388,-3.9388,0.0,0.0,0.0,0.0,0.0,0.0,0.0,0.0,0.0,0.0,0.0,0.0,0.0,0.0,0.0,0.0,0.0,0.0,0.0,0.0,0.0,0.0,0.0,0.0,0.0,0.0,0.0,0.0,0.0,0.0,0.0,0.0,0.0,0.0,0.0,0.0,0.0,0.0,0.0,-4.0622,-3.9884,0.0,0.0,0.0,0.0,-3.9388,-4.0029,-4.0761,-4.1522,-4.2317,-4.2725,-4.2649,-4.5173,-4.5679,-4.3889,-4.6308,-4.7139,-4.6279,-4.7155,-4.7622,-4.7688,-4.8576,-4.9001,-4.9001,-4.9001,-4.9001,-4.9001,-4.9001,-4.9001,-4.9069,-4.9763,-5.0033,-5.0118,-5.0879,-5.115,-5.1268,0.0,0.0,0.0,0.0,0.0,0.0,0.0,0.0,0.0,0.0,0.0,0.0,0.0,-3.9388,-3.9388,-3.9388,-3.9388,-3.9388,-3.9388,0.0,0.0,0.0,0.0,0.0,0.0,0.0,0.0,0.0,0.0,-3.9388,-3.9388,-3.9388,-3.9388,-3.9388,-3.9388,-3.9388,-3.9388,-3.9388,-3.9388,-3.9388,-3.9388,-3.9388,0.0,0.0,0.0,0.0,0.0,0.0,0.0,0.0,0.0,0.0,0.0,0.0,0.0,0.0,0.0,0.0,0.0,0.0,0.0,0.0,0.0,0.0,0.0,0.0,0.0,0.0,0.0,0.0,0.0,0.0,0.0,0.0,0.0,0.0,0.0,0.0,0.0,-4.0622,-3.992,0.0,-4.0622,-4.0812,-4.0659,-4.0089,-4.1158,-4.1794,-4.1516,-4.2756,-4.3423,-4.3402,-4.5884,-4.6913,-4.6255,-4.7752,-4.8321,-4.8015,-4.8338,-4.8513,-4.8513,-4.8861,-4.9001,-4.9035,-4.9492,-4.9712,-4.9729,-5.0219,-5.0152,-4.9779,-5.0524,-5.0811,-5.0913,-5.164,-5.1911,-5.2029,0.0,0.0,0.0,0.0,0.0,0.0,0.0,0.0,0.0,0.0,0.0,-3.9388,-3.9388,-3.9388,-3.9388,-3.9388,-3.9388,-3.9388,-3.9388,0.0,0.0,0.0,0.0,0.0,0.0,0.0,0.0,0.0,0.0,0.0,0.0,0.0,-3.9388,-3.9388,-3.9388,-3.9388,-3.9388,-3.9388,-3.9388,-3.9388,-3.9388,-3.9388,-3.9388,0.0,0.0,0.0,0.0,0.0,0.0,0.0,0.0,0.0,0.0,0.0,0.0,0.0,0.0,0.0,0.0,0.0,0.0,0.0,0.0,0.0,0.0,0.0,0.0,0.0,0.0,0.0,0.0,0.0,0.0,0.0,0.0,0.0,0.0,-3.9574,-3.9737,-4.0588,-4.0117,-3.9977,-4.0541,-4.1219,-4.1343,-4.0763,-4.1893,-4.248,-4.222,-4.3427,-4.4136,-4.4136,-4.6401,-4.7456,-4.7122,-4.8604,-4.92,-4.8899,-4.9453,-4.9571,-4.9283,-4.9603,-4.9746,-4.9779,-5.0253,-5.0473,-5.0524,-5.1285,-5.1285,-5.0879,-5.1386,-5.1589,-5.1674,-5.2418,-5.2706,-5.279,0.0,0.0,0.0,0.0,0.0,0.0,0.0,0.0,0.0,0.0,0.0,-3.9388,-3.9388,-3.9388,-3.9388,-3.9388,-3.9388,-3.9388,-3.9388,-3.9388,0.0,0.0,0.0,0.0,0.0,0.0,0.0,0.0,0.0,0.0,0.0,0.0,0.0,-3.9388,-3.9388,-3.9388,-3.9388,-3.9388,-3.9388,-3.9388,-3.9388,-3.9388,-3.9388,0.0,0.0,0.0,0.0,0.0,0.0,0.0,0.0,0.0,0.0,0.0,0.0,0.0,0.0,0.0,0.0,0.0,0.0,0.0,0.0,0.0,0.0,0.0,0.0,0.0,0.0,0.0,0.0,0.0,0.0,0.0,0.0,0.0,-4.0721,-3.9985,-3.9768,-4.065,-4.0557,-4.0427,-4.0464,-4.11,-4.1437,-4.1452,-4.2089,-4.2917,-4.3789,-4.4493,-4.488,-4.4918,-4.6708,-4.7237,-4.6343,-4.8877,-4.9669,-4.881,-5.044,-5.0726,-4.9885,-5.0775,-5.1185,-5.1185,-5.1202,-5.1219,-5.1269,-5.2046,-5.2334,-5.2334,-5.2334,-5.2334,-5.2435,-5.3213,-5.3501,-5.3501,0.0,0.0,0.0,0.0,0.0,0.0,0.0,0.0,0.0,0.0,-3.9388,-3.9388,-3.9388,-3.9388,-3.9388,-3.9388,-3.9388,-3.9388,-3.9388,0.0,0.0,0.0,0.0,0.0,0.0,0.0,0.0,0.0,0.0,0.0,0.0,0.0,0.0,0.0,-3.9388,-3.9388,-3.9388,-3.9388,-3.9388,-3.9388,-3.9388,-3.9388,-3.9388,0.0,0.0,0.0,0.0,0.0,0.0,0.0,0.0,0.0,0.0,0.0,0.0,0.0,0.0,0.0,0.0,0.0,0.0,0.0,0.0,0.0,0.0,0.0,0.0,0.0,0.0,0.0,0.0,0.0,0.0,0.0,-4.1759,-4.1283,-4.1388,-4.0663,-4.0643,-4.2005,-4.1544,-4.1384,-4.2,-4.2707,-4.2846,-4.2164,-4.4004,-4.4987,-4.4555,-4.5824,-4.6865,-4.761,-4.8617,-4.934,-4.9809,-5.0552,-5.0767,-5.0523,-5.097,-5.1071,-5.0808,-5.1071,-5.1185,-5.1219,-5.1775,-5.2012,-5.2063,-5.2858,-5.3179,-5.3179,-5.3179,-5.3179,-5.3196,-5.3416,-5.3501,-5.3501,0.0,0.0,0.0,0.0,0.0,0.0,0.0,0.0,0.0,0.0,-3.9388,-3.9388,-3.9388,-3.9388,-3.9388,-3.9388,-3.9388,-3.9388,-3.9388,0.0,0.0,0.0,0.0,0.0,0.0,0.0,0.0,0.0,0.0,0.0,0.0,0.0,0.0,0.0,-3.9388,-3.961,-3.9955,-3.9955,-3.9955,-3.9955,-3.9955,-3.9737,-3.9445,-3.9809,-4.0274,-4.069,-4.069,-4.128,-4.2029,-4.2157,0.0,0.0,0.0,0.0,0.0,0.0,0.0,0.0,0.0,0.0,0.0,0.0,0.0,0.0,0.0,0.0,0.0,0.0,0.0,0.0,0.0,0.0,0.0,0.0,-4.3668,-4.3134,-4.311,-4.1805,-4.1293,-4.2541,-4.2181,-4.2002,-4.2535,-4.3189,-4.3548,-4.3427,-4.5058,-4.6003,-4.5813,-4.7018,-4.7983,-4.8516,-4.9325,-5.0004,-5.0593,-5.1292,-5.1674,-5.1674,-5.2012,-5.2164,-5.2164,-5.2164,-5.2164,-5.2198,-5.2621,-5.2807,-5.2841,-5.3315,-5.3501,-5.3501,0.0,0.0,0.0,0.0,-5.3501,-5.3501,0.0,0.0,0.0,0.0,0.0,0.0,0.0,0.0,0.0,0.0,0.0,-3.9388,-3.9388,-3.9388,-3.9388,-3.9388,-3.9388,-3.9388,0.0,0.0,0.0,0.0,0.0,0.0,0.0,0.0,0.0,0.0,0.0,0.0,0.0,0.0,0.0,0.0,0.0,-3.9884,-4.069,-4.069,-4.069,-4.069,-4.069,-4.0185,-3.9517,-4.0378,-4.0758,-4.0844,-4.0946,-4.156,-4.2189,-4.1396,0.0,0.0,0.0,0.0,0.0,0.0,0.0,0.0,0.0,0.0,0.0,0.0,0.0,0.0,0.0,0.0,0.0,0.0,0.0,0.0,0.0,0.0,0.0,0.0,-4.6026,-4.5489,-4.525,-4.3319,-4.2188,-4.2855,-4.2795,-4.2747,-4.2923,-4.3428,-4.4165,-4.5126,-4.5897,-4.6691,-4.7461,-4.8123,0.0,0.0,0.0,-5.0098,-5.0218,-5.1698,-5.2435,-5.2435,-5.3162,-5.3501,-5.3501,-5.3501,-5.3501,-5.3501,-5.3501,-5.3501,-5.3501,-5.3501,-5.3501,-5.3501,-5.3501,-5.3501,-5.3501,-5.3501,-5.3501,-5.3501,0.0,0.0,0.0,0.0,0.0,0.0,0.0,0.0,0.0,-3.9388,-3.9388,-3.9388,-3.9388,-3.9388,-3.9388,-3.9388,-3.9388,-3.9388,0.0,0.0,0.0,0.0,0.0,0.0,0.0,0.0,0.0,0.0,0.0,0.0,0.0,0.0,0.0,0.0,0.0,-3.9884,-4.069,-4.069,-4.069,-4.069,-4.069,-4.0185,-3.9517,-4.0378,-4.1147,-4.1836,-4.2552,-4.3366,-4.4064,-4.3885,-4.4064,-4.4355,-4.4355,0.0,0.0,0.0,0.0,0.0,0.0,0.0,0.0,0.0,0.0,0.0,0.0,0.0,0.0,0.0,0.0,0.0,0.0,0.0,0.0,-4.7259,-4.6627,-4.6065,-4.5984,-4.5571,-4.5043,-4.4446,-4.4346,-4.4849,-4.6202,-4.645,-4.6861,-4.7638,-4.8485,-4.908,-4.929,-4.9192,-4.9872,-5.1497,-5.1531,-5.1933,-5.2792,-5.3095,-5.3264,-5.3281,-5.3433,0.0,-5.3501,-5.3501,-5.3501,-5.3501,-5.3501,-5.3501,-5.3501,-5.3501,-5.3501,-5.3501,-5.3501,-5.3501,-5.3501,-5.3501,-5.3501,-5.3501,0.0,0.0,0.0,0.0,0.0,0.0,0.0,0.0,0.0,0.0,-3.9388,-3.9388,-3.9388,-3.9388,-3.9388,-3.9388,-3.9388,0.0,0.0,0.0,0.0,0.0,0.0,0.0,0.0,0.0,0.0,0.0,0.0,0.0,0.0,0.0,0.0,0.0,0.0,-4.0535,-4.1379,-4.1836,-4.1997,-4.1965,-4.1543,-4.1095,-4.074,-4.118,-4.1901,-4.2724,-4.3139,-4.3844,-4.4542,-4.4109,-4.4224,-4.4615,-4.4615,-4.4615,-4.4615,0.0,0.0,0.0,0.0,0.0,0.0,0.0,0.0,0.0,0.0,0.0,0.0,0.0,0.0,-4.8015,-4.8841,0.0,-4.7754,-4.8225,-4.7901,-4.744,-4.6952,-4.7601,-4.7324,-4.5067,-4.5524,-4.6187,-4.6555,-4.7383,-4.7974,-4.8327,-4.9551,-5.0098,-4.9583,-5.0733,-5.1624,-5.2078,-5.2497,-5.2956,-5.3501,-5.3501,-5.3501,-5.3501,-5.3501,-5.3501,-5.3501,-5.3501,-5.3501,-5.3501,-5.3501,-5.3501,-5.3534,-5.3907,-5.4042,-5.4093,-5.4465,-5.416,-5.3501,-5.3501,-5.3501,-5.3551,0.0,0.0,0.0,0.0,0.0,0.0,0.0,0.0,0.0,0.0,0.0,-3.9388,-3.9388,-3.9388,-3.9388,0.0,0.0,0.0,0.0,0.0,0.0,0.0,0.0,0.0,0.0,0.0,0.0,0.0,0.0,0.0,0.0,0.0,0.0,0.0,0.0,-4.118,-4.2062,-4.2939,-4.3306,-4.3246,-4.252,-4.2252,-4.2252,-4.2252,-4.2693,-4.3306,-4.3502,-4.4006,-4.4485,-4.3785,-4.4006,-4.4615,-4.4615,-4.4485,-4.4355,-4.4355,-4.4355,0.0,0.0,0.0,0.0,0.0,0.0,0.0,0.0,-4.6532,-4.75,-4.7682,-4.8274,-4.8832,-4.8984,-4.9001,-4.9001,-4.9001,-4.9001,-4.8801,-4.8165,-4.9249,-4.9027,-4.6128,-4.6957,-4.7537,-4.6906,-4.7919,-4.8726,-4.8981,-5.0134,-5.0605,-5.0147,-5.2084,-5.2904,-5.2224,-5.321,-5.3721,-5.3721,-5.3873,-5.394,-5.394,-5.394,-5.394,-5.394,-5.394,-5.394,-5.394,-5.394,-5.394,-5.3974,-5.4566,-5.4803,-5.4871,-5.548,-5.4989,-5.394,-5.394,-5.394,-5.4025,0.0,0.0,0.0,0.0,0.0,0.0,0.0,0.0,0.0,0.0,0.0,0.0,0.0,0.0,0.0,0.0,0.0,0.0,0.0,0.0,0.0,0.0,0.0,0.0,0.0,0.0,0.0,0.0,0.0,0.0,0.0,0.0,0.0,0.0,0.0,-4.118,-4.2062,-4.2939,-4.3306,-4.3306,-4.3169,-4.3139,-4.3139,-4.3139,-4.3216,-4.3396,-4.4167,-4.4514,-4.4587,-4.4485,-4.4514,-4.4615,-4.4615,-4.4064,-4.3443,-4.3443,-4.3443,-4.3276,-4.2504,-4.2878,-4.3621,-4.4412,-4.4609,-4.4603,0.0,-4.5348,-4.6143,-4.6786,-4.7513,-4.821,-4.8883,-4.9001,-4.9001,-4.9001,-4.9001,-4.919,-4.9738,-4.997,-4.9869,-4.933,-4.9393,-4.9723,-5.0205,-4.9669,-4.9918,-5.1408,-5.0843,-5.1206,-5.2941,-5.2437,-5.247,-5.3298,-5.4092,-5.4465,-5.4465,-5.5141,-5.5463,-5.5463,-5.5463,-5.5463,-5.5463,-5.5463,-5.5463,-5.5463,-5.5463,-5.5463,-5.548,-5.5547,-5.5598,-5.5598,-5.5683,-5.5615,-5.5463,-5.5463,-5.5463,-5.548,0.0,0.0,0.0,0.0,0.0,0.0,0.0,0.0,0.0,0.0,0.0,0.0,0.0,0.0,0.0,0.0,0.0,0.0,0.0,0.0,0.0,0.0,0.0,0.0,0.0,0.0,0.0,0.0,0.0,0.0,0.0,0.0,0.0,0.0,-4.0309,-4.118,-4.2062,-4.2939,-4.3306,-4.3306,-4.3306,-4.3306,-4.3306,-4.3306,-4.3621,-4.4093,-4.4485,-4.4615,0.0,0.0,-4.4615,-4.4514,-4.4006,-4.3591,-4.3216,-4.2676,-4.2552,-4.2583,-4.2724,-4.3396,-4.4138,-4.4514,-4.4908,-4.5128,-4.4699,-4.5838,-4.6955,-4.6819,-4.7733,-4.8646,-4.8951,-4.9001,-4.9001,-4.9001,-4.9357,-4.9746,-5.005,-5.0828,-5.1127,-5.0479,-5.1324,-5.1643,-5.0923,-5.0857,-5.1161,-5.1852,-5.2098,-5.2511,-5.3192,-5.3367,-5.3847,-5.4735,-5.5091,-5.5243,-5.5243,-5.5564,-5.5681,-5.5681,-5.5681,-5.5681,-5.5681,-5.5681,-5.5681,-5.5681,-5.5681,-5.5681,-5.5715,-5.6173,-5.6342,-5.6393,-5.6816,-5.6985,-5.6884,-5.6038,-5.5681,-5.5784,0.0,0.0,0.0,0.0,0.0,0.0,0.0,0.0,0.0,0.0,0.0,0.0,0.0,0.0,0.0,0.0,0.0,0.0,0.0,0.0,0.0,0.0,0.0,0.0,0.0,0.0,0.0,0.0,0.0,0.0,0.0,0.0,0.0,0.0,-4.0309,-4.1046,-4.1707,-4.2583,-4.2939,-4.2939,-4.3199,-4.3306,-4.3306,-4.3306,-4.368,-4.4253,-4.4514,-4.4457,0.0,0.0,-4.444,-4.4167,-4.3785,-4.3336,-4.2816,-4.2189,-4.1997,-4.2252,-4.3366,-4.4121,-4.4615,-4.4615,-4.4993,-4.524,-4.4639,-4.6102,-4.7436,-4.6824,-4.7936,-4.9001,-4.9001,-4.9001,-4.9069,-4.9272,-4.9746,-5.0236,-5.0642,-5.141,-5.1781,-5.1552,-5.2189,-5.2376,-5.1688,-5.1787,-5.2004,-5.2201,-5.2927,-5.3472,-5.3728,-5.4488,-5.5158,-5.5664,-5.5919,-5.6021,-5.6021,-5.6224,-5.6325,-5.6325,-5.6325,-5.6325,-5.6325,-5.6325,-5.6325,-5.6325,-5.6325,-5.6325,-5.6359,-5.6884,-5.7103,-5.7154,-5.7679,-5.7881,-5.7763,-5.6714,-5.6325,-5.6393,0.0,0.0,0.0,0.0,0.0,0.0,0.0,0.0,0.0,0.0,0.0,0.0,0.0,0.0,0.0,0.0,0.0,0.0,0.0,0.0,0.0,0.0,0.0,0.0,0.0,0.0,0.0,0.0,0.0,0.0,0.0,0.0,0.0,0.0,-4.0309,-4.0709,-4.0792,-4.1674,-4.2029,-4.2125,-4.2939,-4.3306,-4.3306,-4.3306,-4.3306,-4.3456,-4.4298,0.0,0.0,0.0,-4.4035,-4.3486,-4.4281,-4.341,0.0,-4.1997,-4.1997,-4.2379,-4.4093,-4.457,-4.4615,-4.4615,-4.4632,-4.4574,-4.4365,-4.5601,-4.675,-4.6562,-4.7851,-4.9001,-4.9001,-4.9001,-4.9238,-4.9949,-5.0084,-5.0591,-5.2029,-5.1409,-5.1483,-5.323,-5.1704,-5.1283,-5.323,-5.2505,-5.2201,-5.2913,-5.3016,-5.3781,-5.551,-5.5647,-5.5664,-5.5681,-5.6393,-5.6765,-5.6765,-5.7476,-5.7814,-5.7814,-5.7814,-5.7814,-5.7814,-5.7814,-5.7814,-5.7814,-5.7814,-5.7814,-5.7814,-5.7848,-5.7865,-5.7865,-5.7881,-5.7881,-5.7881,-5.7831,-5.7814,-5.7831,0.0,0.0,0.0,0.0,0.0,0.0,0.0,0.0,0.0,0.0,0.0,0.0,0.0,0.0,0.0,0.0,0.0,0.0,0.0,0.0,0.0,0.0,0.0,0.0,0.0,0.0,0.0,0.0,0.0,0.0,0.0,0.0,0.0,0.0,-3.9702,-4.015,-4.0724,-4.1013,-4.1147,-4.1213,-4.2093,-4.2458,-4.2458,-4.2458,-4.2785,-4.3276,0.0,0.0,0.0,0.0,-4.3532,-4.3246,-4.297,-4.2473,-4.1772,-4.0603,-4.1095,-4.2125,-4.2707,-4.3739,-4.4615,-4.4615,-4.4615,-4.454,-4.4351,-4.5601,-4.6733,-4.6531,-4.7339,-4.8197,-4.8646,-4.8779,-4.9028,-4.9709,-5.0258,-5.074,-5.1222,-5.1423,-5.1497,-5.1451,-5.2026,-5.2634,-5.3135,-5.2848,-5.3036,-5.3995,-5.4517,-5.528,-5.6357,-5.6444,-5.6664,-5.7137,-5.7391,-5.7526,-5.7526,-5.7763,-5.7881,-5.7881,-5.7881,-5.7881,-5.7881,-5.7881,-5.7881,-5.7881,-5.7881,-5.7881,-5.7881,-5.7881,-5.7881,-5.7881,-5.7881,-5.7881,-5.7881,-5.7881,-5.7881,-5.7881,0.0,0.0,0.0,0.0,0.0,0.0,0.0,0.0,0.0,0.0,0.0,0.0,0.0,0.0,0.0,0.0,0.0,0.0,0.0,0.0,0.0,0.0,0.0,0.0,0.0,0.0,0.0,0.0,0.0,0.0,0.0,0.0,0.0,0.0,-3.9388,-3.9702,-4.0255,-4.0255,-4.0255,-4.0309,-4.118,-4.1543,-4.1543,-4.1543,-4.1901,0.0,0.0,0.0,0.0,0.0,-4.2878,-4.2379,-4.2442,-4.2029,-4.1379,-4.0585,-4.1129,-4.2062,-4.2379,-4.329,-4.4138,-4.4138,-4.4073,-4.4155,-4.4591,-4.5723,-4.6719,-4.6863,-4.7276,-4.7803,-4.846,-4.8642,-4.8903,-4.9469,-5.0274,-5.0864,-5.118,-5.1283,-5.1394,-5.1484,-5.2329,-5.3119,-5.354,-5.382,-5.4355,-5.5309,-5.5835,-5.6427,-5.7154,-5.7188,-5.7408,-5.7881,-5.7881,-5.7881,-5.7881,-5.7881,-5.7881,-5.7881,-5.7881,-5.7881,-5.7881,-5.7881,-5.7881,-5.7881,-5.7881,-5.7881,-5.7881,-5.7881,-5.7881,-5.7881,-5.7881,-5.7881,-5.7881,-5.7881,-5.7881,-5.7881,0.0,0.0,0.0,0.0,0.0,0.0,0.0,0.0,0.0,0.0,0.0,0.0,0.0,0.0,0.0,0.0,0.0,0.0,0.0,0.0,0.0,0.0,0.0,0.0,0.0,0.0,0.0,0.0,0.0,0.0,0.0,0.0,0.0,0.0,-3.9388,-3.9388,-3.9388,-3.9388,-3.9388,-3.9481,-4.0309,-4.0656,-4.069,-4.0656,0.0,0.0,0.0,0.0,0.0,0.0,-4.2062,-4.0979,-4.2661,-4.1997,-4.0811,-4.1674,-4.1965,-4.2189,-4.3017,-4.3276,-4.3306,-4.3306,-4.315,-4.3427,-4.5028,-4.5976,-4.67,-4.7375,-4.7523,-4.772,-4.8391,-4.8555,-4.8772,-4.9277,-5.0168,-5.1043,-5.1786,-5.108,-5.1171,-5.311,-5.259,-5.2696,-5.4411,-5.5293,-5.6072,-5.6799,-5.6867,-5.7154,-5.7848,-5.7881,-5.7881,-5.7881,-5.7881,-5.7881,-5.7881,-5.7881,-5.7881,-5.7881,-5.7881,-5.7881,-5.7881,-5.7881,-5.7881,-5.7881,-5.7881,-5.7881,-5.7881,-5.7881,-5.7881,-5.7881,-5.7881,-5.7881,-5.7881,-5.7881,-5.7881,-5.7881,0.0,0.0,0.0,0.0,0.0,0.0,0.0,0.0,0.0,0.0,0.0,0.0,0.0,0.0,0.0,0.0,0.0,0.0,0.0,0.0,0.0,0.0,0.0,0.0,0.0,0.0,0.0,0.0,0.0,0.0,0.0,0.0,0.0,0.0,0.0,-3.9388,-3.9388,-3.9388,-3.9388,-3.9409,0.0,-4.0115,-4.0622,0.0,0.0,0.0,0.0,0.0,0.0,-4.0927,-4.108,-4.0792,-4.1213,-4.0603,-3.99,-4.0792,-4.1495,-4.2062,-4.2252,-4.2816,-4.3306,-4.3306,-4.315,-4.3427,-4.5028,-4.5976,-4.6487,-4.6567,-4.6574,-4.6699,-4.7107,-4.7284,-4.7969,-4.9825,-5.0316,-5.0832,-5.178,-5.1687,-5.1431,-5.1225,-5.2793,-5.3993,-5.421,-5.561,-5.6833,-5.756,-5.7611,-5.7695,-5.7881,-5.7881,-5.7881,-5.7881,-5.7881,-5.7881,-5.7881,-5.7881,-5.7881,-5.7881,-5.7881,-5.7881,-5.7881,-5.7881,-5.7881,-5.7881,-5.7881,-5.7881,-5.7881,-5.7881,-5.7881,-5.7881,-5.7881,-5.7881,-5.7881,-5.7881,-5.7881,-5.7881,0.0,0.0,0.0,0.0,0.0,0.0,0.0,0.0,0.0,0.0,0.0,0.0,0.0,0.0,0.0,0.0,0.0,0.0,0.0,0.0,0.0,0.0,0.0,0.0,0.0,0.0,0.0,0.0,0.0,0.0,0.0,0.0,0.0,0.0,0.0,-3.9388,-3.9388,0.0,0.0,0.0,0.0,0.0,0.0,0.0,0.0,0.0,0.0,0.0,0.0,-3.9955,-4.0363,-4.0622,-4.0239,-3.9793,-3.9574,-4.0432,-4.1046,-4.1445,-4.1445,-4.1804,-4.2238,-4.2527,-4.244,-4.2824,-4.48,-4.5527,-4.583,-4.6144,-4.5869,-4.5709,-4.6183,-4.6594,-4.7427,-4.8985,-4.9896,-5.0741,-5.176,-5.1504,-5.1357,-5.172,-5.2729,-5.3768,-5.4712,-5.5717,-5.6765,-5.7814,-5.7881,-5.7881,-5.7881,-5.7881,-5.7881,-5.7881,-5.7881,-5.7881,-5.7881,-5.7881,-5.7881,-5.7881,-5.7881,-5.7881,-5.7881,-5.7881,-5.7881,-5.7881,-5.7881,-5.7881,-5.7881,-5.7881,-5.7881,-5.7881,-5.7881,-5.7881,-5.7881,-5.7881,-5.7881,-5.7881,0.0,0.0,0.0,0.0,0.0,0.0,0.0,0.0,0.0,0.0,0.0,0.0,0.0,0.0,0.0,0.0,0.0,0.0,0.0,0.0,0.0,0.0,0.0,0.0,0.0,0.0,0.0,0.0,0.0,0.0,0.0,0.0,0.0,0.0,0.0,0.0,0.0,0.0,0.0,0.0,0.0,0.0,0.0,0.0,0.0,0.0,0.0,0.0,0.0,0.0,-3.99,-4.0413,-3.9646,-3.9388,-3.9574,-4.0432,-4.069,-4.069,-4.069,-4.069,-4.0861,-4.1539,-4.1547,-4.2031,-4.4538,-4.4944,-4.5005,-4.5834,-4.5358,-4.4938,-4.5434,-4.6151,-4.6925,-4.7654,-4.9276,-5.0703,-5.1578,-5.1043,-5.1208,-5.2886,-5.2483,-5.294,-5.5248,-5.5714,-5.6427,-5.778,-5.7881,-5.7881,-5.7881,-5.7881,-5.7881,-5.7881,-5.7881,-5.7881,-5.7881,-5.7881,-5.7881,-5.7881,-5.7881,-5.7881,-5.7881,-5.7881,-5.7881,-5.7881,-5.7881,-5.7881,-5.7881,-5.7881,-5.7881,-5.7881,-5.7881,-5.7881,-5.7881,-5.7881,-5.7881,-5.7881,0.0,0.0,0.0,0.0,0.0,0.0,0.0,0.0,0.0,0.0,-3.9388,-3.9388,0.0,0.0,0.0,0.0,0.0,0.0,0.0,0.0,0.0,0.0,0.0,0.0,0.0,0.0,0.0,0.0,0.0,0.0,0.0,0.0,0.0,0.0,0.0,0.0,0.0,0.0,0.0,0.0,0.0,0.0,0.0,0.0,0.0,0.0,0.0,0.0,0.0,0.0,-3.9517,-3.961,-3.9445,-3.9388,-3.9574,-4.0432,-4.069,-4.069,-4.069,-4.069,-4.0861,-4.1539,-4.1547,-4.2031,-4.4538,-4.4944,-4.4849,-4.502,-4.4909,-4.4764,-4.4554,-4.5111,-4.6087,-4.7549,-4.9276,-5.0435,-5.0627,-5.1245,-5.1467,-5.0984,-5.2064,-5.3197,-5.4274,-5.5724,-5.6968,-5.7814,-5.7881,-5.7881,-5.7881,-5.7881,-5.7881,-5.7881,-5.7881,-5.7881,-5.7881,-5.7881,-5.7881,-5.7881,-5.7881,-5.7881,-5.7881,-5.7881,-5.7881,-5.7881,-5.7881,-5.7881,-5.7881,-5.7881,-5.7881,-5.7881,-5.7881,-5.7881,-5.7881,-5.7881,-5.7881,-5.7881,0.0,0.0,0.0,0.0,0.0,0.0,0.0,-3.9388,-3.9388,-3.9388,-3.9388,-3.9388,-3.9388,-3.9388,-3.9388,0.0,0.0,0.0,0.0,0.0,0.0,0.0,0.0,0.0,0.0,0.0,-3.9388,-3.9388,0.0,-3.9388,-3.9388,-3.9388,-3.9388,-3.9388,-3.9388,0.0,0.0,0.0,0.0,0.0,0.0,0.0,0.0,0.0,0.0,0.0,0.0,0.0,0.0,0.0,-3.9388,-3.9388,-3.9388,-3.9388,-3.9481,-3.99,-4.0025,-4.0025,-4.0025,-4.0025,-4.0269,-4.1304,-4.1452,-4.1889,-4.3734,-4.4075,-4.4028,-4.4028,-4.4028,-4.3994,-4.3813,-4.4347,-4.5343,-4.7064,-4.8286,-4.9363,-5.0272,-5.0342,-5.0304,-5.0397,-5.1161,-5.2123,-5.3399,-5.5183,-5.6528,-5.7273,-5.7679,-5.7881,-5.7881,-5.7881,-5.7881,-5.7881,-5.7881,-5.7881,-5.7881,-5.7881,-5.7881,-5.7881,-5.7881,-5.7881,-5.7881,-5.7881,-5.7881,-5.7881,-5.7881,-5.7881,-5.7881,-5.7881,-5.7881,-5.7881,-5.7881,-5.7881,-5.7881,-5.7881,-5.7881,-5.7881,0.0,0.0,0.0,0.0,0.0,0.0,0.0,-3.9388,-3.9388,-3.9388,-3.9388,-3.9388,-3.9388,-3.9388,-3.9388,0.0,0.0,0.0,0.0,0.0,0.0,0.0,0.0,0.0,0.0,0.0,0.0,-3.9388,-3.9388,0.0,0.0,0.0,0.0,0.0,-3.9388,-3.9388,-3.9388,0.0,0.0,0.0,0.0,-3.9388,0.0,0.0,0.0,0.0,0.0,0.0,0.0,0.0,-3.9388,-3.9388,-3.9388,-3.9388,-3.9388,-3.9388,-3.9388,-3.9388,-3.9388,-3.9388,-3.9738,-4.1055,-4.1422,-4.1728,-4.2991,-4.329,-4.329,-4.329,-4.329,-4.329,-4.329,-4.3828,-4.4795,-4.6324,-4.7265,-4.8235,-4.9576,-4.9191,-4.9094,-4.997,-5.0242,-5.1091,-5.2819,-5.4663,-5.6021,-5.6748,-5.7476,-5.7881,-5.7881,-5.7881,-5.7881,-5.7881,-5.7881,-5.7881,-5.7881,-5.7881,-5.7881,-5.7881,-5.7881,-5.7881,-5.7881,-5.7881,-5.7881,-5.7881,-5.7881,-5.7881,-5.7881,-5.7881,-5.7881,-5.7881,-5.7881,-5.7881,-5.7881,-5.7881,-5.7881,-5.7881,0.0,0.0,0.0,0.0,0.0,0.0,0.0,-3.9388,-3.9388,-3.9388,-3.9388,-3.9388,-3.9388,-3.9388,-3.9388,0.0,0.0,0.0,0.0,0.0,0.0,0.0,0.0,0.0,0.0,0.0,0.0,-3.9388,-3.9388,0.0,0.0,0.0,0.0,0.0,0.0,-3.9388,-3.9388,-3.9388,0.0,0.0,0.0,0.0,0.0,0.0,0.0,0.0,0.0,-3.9388,-3.9388,-3.9388,-3.9388,-3.9388,-3.9388,-3.9388,-3.9388,-3.9388,-3.9388,-3.9388,-3.9388,-3.9388,-3.9738,-4.1055,-4.1422,-4.1728,-4.2991,-4.329,-4.329,-4.329,-4.329,-4.329,-4.329,-4.3828,-4.4567,-4.5335,-4.6758,-4.7758,-4.7603,-4.8293,-4.8825,-4.8948,-4.9813,-5.1091,-5.2819,-5.4663,-5.6021,-5.6748,-5.7476,-5.7881,-5.7881,-5.7881,-5.7881,-5.7881,-5.7881,-5.7881,-5.7881,-5.7881,-5.7881,-5.7881,-5.7881,-5.7881,-5.7881,-5.7881,-5.7881,-5.7881,-5.7881,-5.7881,-5.7881,-5.7881,-5.7881,-5.7881,-5.7881,-5.7881,-5.7881,-5.7881,-5.7881,-5.7881,0.0,0.0,0.0,0.0,0.0,0.0,-3.9388,-3.9388,-3.9388,-3.9388,-3.9388,-3.9388,-3.9388,-3.9388,-3.9388,-3.9388,0.0,0.0,0.0,0.0,0.0,0.0,0.0,0.0,0.0,0.0,-3.9388,-3.9388,-3.9388,0.0,0.0,0.0,0.0,0.0,0.0,-3.9388,-3.9388,-3.9388,0.0,0.0,0.0,0.0,0.0,0.0,0.0,0.0,0.0,0.0,-3.9388,-3.9388,-3.9388,-3.9388,-3.9388,-3.9388,-3.9388,-3.9388,-3.9388,-3.9388,-3.9388,-3.9388,-3.9738,-4.1055,-4.1422,-4.1728,-4.2991,-4.329,-4.329,-4.329,-4.329,-4.329,-4.329,-4.3499,-4.4062,-4.5125,-4.5856,-4.6524,-4.7188,-4.7636,-4.7919,-4.7919,-4.88,-4.9947,-5.1318,-5.3045,-5.4826,-5.6679,-5.707,-5.7425,-5.7865,-5.7881,-5.7881,-5.7881,-5.7881,-5.7881,-5.7881,-5.7881,-5.7881,-5.7881,-5.7881,-5.7881,-5.7881,-5.7881,-5.7881,-5.7881,-5.7881,-5.7881,-5.7881,-5.7881,-5.7881,-5.7881,-5.7881,-5.7881,-5.7881,-5.7881,-5.7881,-5.7881,0.0,0.0,0.0,0.0,0.0,-3.9388,-3.9388,-3.9388,-3.9388,-3.9388,-3.9388,-3.9388,-3.9388,-3.9388,-3.9388,-3.9388,-3.9388,0.0,0.0,0.0,0.0,0.0,0.0,0.0,0.0,0.0,-3.9388,-3.9388,-3.9388,-3.9388,0.0,0.0,-3.9388,-3.9388,0.0,0.0,0.0,0.0,0.0,0.0,0.0,0.0,0.0,0.0,0.0,0.0,0.0,0.0,0.0,0.0,0.0,-3.9388,0.0,0.0,0.0,0.0,-3.9388,-3.9388,-3.9388,-3.9388,-3.9738,-4.1055,-4.1422,-4.1728,-4.2991,-4.329,-4.329,-4.329,-4.329,-4.329,-4.329,-4.329,-4.3663,-4.4825,-4.517,-4.5693,-4.686,-4.7174,-4.7309,-4.7309,-4.8183,-4.9215,-5.0281,-5.2253,-5.43,-5.6305,-5.6681,-5.7019,-5.7543,-5.7763,-5.7881,-5.7881,-5.7881,-5.7881,-5.7881,-5.7881,-5.7881,-5.7881,-5.7881,-5.7881,-5.7881,-5.7881,-5.7881,-5.7881,-5.7881,-5.7881,-5.7881,-5.7881,-5.7881,-5.7881,-5.7881,-5.7881,-5.7881,-5.7881,-5.7881,-5.7881,0.0,0.0,0.0,0.0,0.0,0.0,-3.9388,-3.9388,-3.9388,-3.9388,-3.9388,-3.9388,-3.9388,-3.9388,-3.9388,-3.9388,-3.9388,0.0,0.0,0.0,0.0,0.0,0.0,0.0,0.0,0.0,-3.9388,-3.9388,-3.9388,-3.9388,-3.9388,-3.9388,-3.9388,-3.9388,0.0,0.0,0.0,0.0,0.0,0.0,0.0,0.0,0.0,0.0,0.0,0.0,0.0,0.0,0.0,0.0,0.0,0.0,0.0,0.0,0.0,0.0,-3.9388,-3.9388,-3.9388,-3.9388,-3.9738,-4.1055,-4.1422,-4.1728,-4.2991,-4.329,-4.329,-4.329,-4.329,-4.329,-4.329,-4.329,-4.3514,-4.4212,-4.487,-4.5544,-4.6232,-4.689,-4.7309,-4.7309,-4.8183,-4.9215,-5.0281,-5.294,-5.4905,-5.5666,-5.6393,-5.6799,-5.6816,-5.7492,-5.7881,-5.7881,-5.7881,-5.7881,-5.7881,-5.7881,-5.7881,-5.7881,-5.7881,-5.7881,-5.7881,-5.7881,-5.7881,-5.7881,-5.7881,-5.7881,-5.7881,-5.7881,-5.7881,-5.7881,-5.7881,-5.7881,-5.7881,-5.7881,-5.7881,-5.7881,0.0,0.0,0.0,0.0,0.0,0.0,0.0,-3.9388,-3.9388,-3.9388,-3.9388,-3.9388,-3.9388,-3.9388,-3.9388,-3.9388,-3.9388,0.0,0.0,0.0,0.0,0.0,0.0,0.0,0.0,0.0,-3.9388,-3.9388,-3.9388,-3.9388,-3.9388,-3.9388,-3.9388,-3.9388,-3.9388,-3.9388,0.0,0.0,0.0,0.0,0.0,0.0,-3.9388,0.0,0.0,0.0,0.0,0.0,0.0,0.0,0.0,0.0,0.0,0.0,0.0,0.0,0.0,-3.9388,-3.9388,-3.9388,-3.9738,-4.1055,-4.1422,-4.1728,-4.2991,-4.329,-4.329,-4.329,-4.329,-4.329,-4.329,-4.329,-4.3514,-4.4212,-4.487,-4.5529,-4.619,-4.689,-4.7309,-4.7309,-4.8183,-4.9215,-5.0281,-5.1827,-5.3348,-5.4853,-5.5158,-5.5513,-5.6038,-5.6275,-5.6867,-5.7865,-5.7881,-5.7881,-5.7881,-5.7881,-5.7881,-5.7881,-5.7881,-5.7881,-5.7881,-5.7881,-5.7881,-5.7881,-5.7881,-5.7881,-5.7881,-5.7881,-5.7881,-5.7881,-5.7881,-5.7881,-5.7881,-5.7881,-5.7881,-5.7881,0.0,0.0,0.0,0.0,0.0,0.0,0.0,-3.9388,-3.9388,-3.9388,-3.9388,-3.9388,-3.9388,-3.9388,-3.9388,-3.9388,-3.9388,0.0,0.0,0.0,0.0,0.0,0.0,0.0,0.0,-3.9388,-3.9388,-3.9388,-3.9388,-3.9388,-3.9388,-3.9388,-3.9388,-3.9388,-3.9388,-3.9388,0.0,0.0,0.0,0.0,0.0,0.0,-3.9388,0.0,0.0,0.0,0.0,0.0,0.0,0.0,0.0,0.0,0.0,0.0,0.0,0.0,-3.9963,-4.0053,-3.9559,-3.9568,-4.0053,-4.1115,-4.1602,-4.2028,-4.305,-4.329,-4.329,-4.329,-4.329,-4.329,-4.329,-4.329,-4.3424,-4.3828,-4.4706,-4.5454,-4.5873,-4.6726,-4.7309,-4.7309,-4.8183,-4.9054,-4.9734,-5.108,-5.2371,-5.3506,-5.4225,-5.4803,-5.526,-5.5564,-5.6139,-5.7036,-5.734,-5.7476,-5.7476,-5.7746,-5.7881,-5.7881,-5.7881,-5.7881,-5.7881,-5.7881,-5.7881,-5.7881,-5.7881,-5.7881,0.0,-5.7881,-5.7881,-5.7881,-5.7881,-5.7881,-5.7881,-5.7881,-5.7881,-5.7881,0.0,0.0,0.0,0.0,0.0,0.0,0.0,-3.9388,-3.9388,-3.9388,-3.9388,-3.9388,-3.9388,-3.9388,-3.9388,-3.9388,0.0,0.0,0.0,0.0,0.0,0.0,0.0,0.0,-3.9388,-3.9388,-3.9388,-3.9388,-3.9388,-3.9388,-3.9388,-3.9388,-3.9388,-3.9388,-3.9388,-3.9388,0.0,0.0,0.0,0.0,0.0,0.0,0.0,0.0,0.0,0.0,0.0,0.0,0.0,0.0,0.0,0.0,0.0,0.0,0.0,0.0,0.0,0.0,0.0,-4.0008,-4.0621,-4.128,-4.1946,-4.2575,-4.314,0.0,0.0,-4.329,-4.329,-4.329,-4.329,-4.329,-4.329,-4.329,-4.4407,-4.5244,-4.5289,-4.6456,-4.7309,-4.7309,-4.8141,-4.8718,-4.8784,-5.0573,-5.1724,-5.1885,-5.3454,-5.443,-5.4515,-5.5175,-5.5529,-5.5529,-5.6275,-5.6664,-5.6731,-5.7391,-5.7763,-5.7814,-5.7814,-5.7831,-5.7881,-5.7881,-5.7881,-5.7881,-5.7881,-5.7881,-5.7881,-5.7881,-5.7881,-5.7881,-5.7881,-5.7881,-5.7881,-5.7881,-5.7881,-5.7881,0.0,0.0,0.0,0.0,0.0,0.0,0.0,0.0,0.0,0.0,-3.9388,-3.9388,-3.9388,-3.9388,-3.9388,0.0,0.0,0.0,0.0,0.0,0.0,0.0,0.0,0.0,-3.9388,-3.9388,-3.9388,-3.9388,-3.9388,-3.9388,-3.9388,-3.9388,-3.9388,-3.9388,-3.9388,-3.9388,0.0,0.0,0.0,0.0,0.0,0.0,0.0,0.0,0.0,0.0,-4.0172,-4.0591,0.0,0.0,0.0,0.0,0.0,0.0,0.0,0.0,-4.1265,-4.1347,-4.101,0.0,-4.1347,-4.2006,-4.2291,-4.2575,0.0,0.0,0.0,0.0,0.0,0.0,0.0,-4.329,-4.329,-4.329,-4.3977,-4.4721,-4.5229,-4.6456,-4.7309,-4.7309,-4.7495,-4.7946,-4.8718,-4.9256,-5.0172,-5.176,-5.2302,-5.2877,-5.372,-5.3923,-5.4025,-5.4025,-5.4735,-5.5395,-5.597,-5.6139,-5.6511,-5.7053,-5.7053,-5.734,-5.7881,-5.7881,-5.7881,-5.7881,-5.7881,-5.7881,-5.7881,-5.7881,-5.7881,-5.7881,-5.7881,-5.7881,-5.7881,-5.7881,-5.7881,-5.7881,0.0,0.0,0.0,0.0,0.0,0.0,0.0,0.0,0.0,0.0,0.0,0.0,0.0,0.0,0.0,0.0,0.0,0.0,0.0,0.0,0.0,0.0,0.0,-3.9388,-3.9388,-3.9388,-3.9388,-3.9388,-3.9388,-3.9388,-3.9388,-3.9388,-3.9388,-3.9388,-3.9388,-3.9388,0.0,0.0,0.0,0.0,-3.9388,0.0,0.0,0.0,0.0,0.0,-4.0741,-4.1265,0.0,-4.1871,-4.2028,-4.2282,0.0,0.0,0.0,0.0,-4.2043,-4.2207,-4.1946,-4.1871,-4.1961,-4.2306,-4.262,-4.2895,-4.3215,0.0,0.0,0.0,0.0,0.0,0.0,-4.329,-4.329,-4.329,-4.4137,-4.511,-4.6082,-4.6845,-4.7309,-4.7309,-4.7309,-4.7495,-4.8072,-4.8527,-4.9256,-5.0403,-5.0914,-5.1667,-5.2714,-5.2749,-5.299,-5.3467,-5.389,-5.4448,-5.5192,-5.5547,-5.5919,-5.6308,-5.6308,-5.6681,-5.7391,-5.7391,-5.7577,-5.7881,-5.7881,-5.7881,-5.7881,-5.7881,-5.7881,-5.7881,-5.7881,-5.7881,-5.7881,-5.7881,-5.7881,-5.7881,0.0,0.0,0.0,0.0,0.0,0.0,0.0,0.0,0.0,0.0,0.0,0.0,0.0,0.0,0.0,0.0,0.0,0.0,0.0,0.0,0.0,0.0,0.0,-3.9388,-3.9388,-3.9388,-3.9388,-3.9388,-3.9388,-3.9388,-3.9388,-3.9388,-3.9388,-3.9388,-3.9388,-3.9388,0.0,-3.9388,-3.9388,-3.9388,-3.9388,0.0,0.0,0.0,0.0,0.0,0.0,0.0,0.0,-4.2545,-4.288,-4.329,-4.329,0.0,0.0,0.0,0.0,0.0,-4.2671,-4.2545,-4.2545,-4.2545,-4.2925,-4.329,-4.329,0.0,0.0,0.0,0.0,0.0,0.0,-4.329,-4.329,-4.329,-4.4436,-4.5693,-4.683,-4.7174,-4.7309,-4.7309,-4.7309,-4.7309,-4.7309,-4.8072,-4.8636,-4.8784,-4.9655,-5.0589,-5.1614,-5.1813,-5.2312,-5.323,-5.3416,-5.3805,-5.4431,-5.5057,-5.5429,-5.5547,-5.5547,-5.5936,-5.663,-5.663,-5.7036,-5.7729,-5.7729,-5.778,-5.7881,-5.7881,-5.7881,-5.7881,-5.7881,-5.7881,-5.7881,-5.7881,-5.7881,-5.7881,0.0,0.0,0.0,0.0,0.0,0.0,0.0,0.0,0.0,0.0,0.0,0.0,0.0,0.0,0.0,0.0,0.0,0.0,0.0,0.0,0.0,-3.9388,-3.9388,-3.9388,-3.9388,-3.9388,-3.9388,-3.9388,-3.9388,-3.9388,-3.9388,-3.9388,-3.9388,-3.9388,-3.9388,-3.9388,-3.9388,-3.9388,-3.9388,-3.9388,-3.9388,0.0,0.0,0.0,0.0,0.0,0.0,0.0,0.0,-4.314,-4.32,-4.329,-4.329,0.0,0.0,0.0,0.0,0.0,-4.317,-4.314,-4.314,-4.314,-4.3215,-4.329,-4.329,0.0,0.0,0.0,0.0,0.0,-4.329,-4.329,-4.329,-4.329,-4.4436,-4.5364,-4.5574,-4.6576,-4.7309,-4.7309,-4.7309,-4.7309,-4.7309,-4.7424,-4.7876,-4.8743,-4.8948,-4.9496,-5.0589,-5.1431,-5.1957,-5.2153,-5.3025,-5.3551,-5.367,-5.3788,-5.416,-5.4769,-5.4769,-5.5158,-5.5886,-5.5886,-5.6275,-5.6968,-5.6968,-5.7323,-5.7881,-5.7881,-5.7881,-5.7881,-5.7881,-5.7881,-5.7881,-5.7881,-5.7881,-5.7881,0.0,0.0,0.0,0.0,0.0,0.0,0.0,0.0,0.0,0.0,0.0,0.0,0.0,0.0,0.0,0.0,0.0,0.0,0.0,0.0,0.0,-3.9388,-3.9388,-3.9388,-3.9388,-3.9388,-3.9388,-3.9388,-3.9388,-3.9388,-3.9388,-3.9388,-3.9388,-3.9388,-3.9388,-3.9388,-3.9388,-3.9388,-3.9388,-3.9418,0.0,0.0,0.0,0.0,0.0,0.0,0.0,0.0,0.0,0.0,-4.329,-4.329,-4.329,0.0,0.0,0.0,0.0,0.0,-4.329,-4.329,-4.329,-4.329,-4.329,-4.329,-4.329,-4.329,0.0,0.0,0.0,0.0,-4.329,-4.329,-4.3409,-4.3768,-4.4661,-4.5424,-4.5798,-4.6696,-4.7309,-4.7309,-4.7309,-4.7309,-4.7309,-4.7309,-4.7495,-4.7946,-4.7988,-4.8692,-5.032,-5.0817,-5.1594,-5.2714,-5.323,-5.3501,-5.3501,-5.3501,-5.367,-5.4008,-5.4008,-5.4397,-5.5108,-5.5108,-5.5513,-5.6241,-5.663,-5.6985,-5.734,-5.7729,-5.7881,-5.7881,-5.7881,-5.7881,-5.7881,-5.7881,-5.7881,-5.7881,0.0,0.0,0.0,0.0,0.0,0.0,0.0,0.0,0.0,0.0,0.0,0.0,0.0,0.0,0.0,0.0,0.0,0.0,0.0,0.0,-3.9141,-3.9388,-3.8943,-3.8892,-3.9388,-3.9388,-3.9388,-3.9388,-3.9388,-3.9388,-3.9388,-3.9388,-3.9388,-3.9388,-3.9388,-3.9388,-3.9388,-3.9388,-3.9514,-3.9694,0.0,0.0,0.0,0.0,0.0,0.0,0.0,0.0,0.0,0.0,0.0,0.0,0.0,0.0,0.0,-4.329,-4.329,-4.329,-4.329,-4.329,-4.329,-4.329,-4.329,-4.329,-4.329,-4.329,-4.329,0.0,-4.329,-4.329,-4.329,-4.329,-4.3454,-4.3962,-4.4766,-4.5484,-4.6007,-4.6785,-4.7309,-4.7309,-4.7309,-4.7309,-4.7309,-4.7309,-4.7309,-4.7309,-4.7309,-4.8003,-4.9591,-4.9891,-5.0855,-5.2731,-5.299,-5.323,-5.3501,-5.3501,-5.3501,-5.3501,-5.3501,-5.3805,-5.4329,-5.4329,-5.4735,-5.548,-5.6038,-5.6478,-5.685,-5.7408,-5.7729,-5.7881,-5.7881,-5.7881,-5.7881,-5.7881,-5.7881,-5.7881,0.0,0.0,0.0,0.0,0.0,0.0,0.0,0.0,0.0,0.0,0.0,0.0,0.0,0.0,0.0,0.0,0.0,0.0,0.0,0.0,-3.8345,-3.9337,-3.7482,-3.7367,-3.9337,-3.9388,-3.9388,-3.9388,-3.9388,-3.9388,-3.9388,-3.9388,-3.9388,-3.9388,-3.9388,-3.9388,-3.9388,-3.9388,-3.9768,-4.0337,-4.0382,0.0,0.0,0.0,0.0,0.0,0.0,0.0,0.0,0.0,0.0,0.0,0.0,0.0,-4.329,-4.329,-4.329,-4.329,-4.329,-4.329,-4.329,-4.329,-4.329,-4.329,-4.329,-4.329,0.0,-4.329,-4.329,-4.329,-4.329,-4.329,-4.3305,-4.3349,-4.4466,-4.5319,-4.5364,-4.6486,-4.7309,-4.7309,-4.7309,-4.7309,-4.7309,-4.7309,-4.7309,-4.7309,-4.7309,-4.7396,-4.7538,-4.8418,-4.9456,-5.0605,-5.1541,-5.2505,-5.3501,-5.3501,-5.3501,-5.3501,-5.3501,-5.3534,-5.3585,-5.3585,-5.3974,-5.4668,-5.4735,-5.553,-5.6799,-5.6867,-5.7273,-5.7881,-5.7881,-5.7881,-5.7881,-5.7881,-5.7881,-5.7881,0.0,0.0,0.0,0.0,0.0,0.0,0.0,0.0,0.0,0.0,0.0,0.0,0.0,0.0,0.0,0.0,0.0,0.0,0.0,-3.7007,-3.6968,-3.7405,-3.6643,-3.6891,-3.8383,-3.842,-3.842,-3.842,-3.9068,-3.9388,-3.9388,-3.9388,-3.9388,-3.9388,-3.9388,-3.9388,-3.9454,-3.9858,-4.0172,-4.0472,-4.1294,-4.1961,0.0,0.0,0.0,0.0,0.0,0.0,0.0,0.0,-4.329,0.0,0.0,0.0,-4.329,-4.329,-4.329,-4.329,-4.329,-4.329,-4.329,-4.329,-4.329,0.0,0.0,-4.329,-4.329,-4.329,-4.329,-4.329,-4.329,-4.329,-4.329,-4.329,-4.4436,-4.5289,-4.5289,-4.6456,-4.7309,-4.7309,-4.7309,-4.7309,-4.7309,-4.7309,-4.7309,-4.7309,-4.7309,-4.7566,-4.8225,-4.9231,-4.997,-5.0413,-5.2026,-5.2784,-5.2505,-5.3161,-5.3501,-5.3501,-5.3501,-5.3501,-5.3501,-5.3501,-5.3653,-5.394,-5.4397,-5.4905,-5.5497,-5.6427,-5.6968,-5.7256,-5.7712,-5.7881,-5.7881,-5.7881,-5.7881,-5.7881,0.0,0.0,0.0,0.0,0.0,0.0,0.0,0.0,0.0,0.0,0.0,0.0,0.0,0.0,0.0,0.0,0.0,0.0,-3.6158,-3.5894,-3.5854,-3.6198,-3.5574,-3.5708,-3.6802,-3.6802,-3.7165,-3.7791,-3.8219,-3.8368,-3.8405,-3.8745,-3.8694,-3.842,-3.89,-3.8965,-3.8733,-3.9732,-4.0053,-4.0057,-4.1736,-4.2306,0.0,0.0,0.0,0.0,0.0,0.0,0.0,0.0,0.0,0.0,0.0,0.0,0.0,0.0,-4.329,-4.329,-4.329,-4.329,-4.329,-4.329,0.0,0.0,-4.329,-4.329,-4.329,-4.329,-4.329,-4.329,-4.329,-4.329,-4.329,-4.329,-4.4436,-4.5289,-4.5289,-4.6456,-4.7309,-4.7309,-4.7309,-4.7309,-4.7309,-4.7309,-4.7309,-4.7309,-4.7309,-4.7609,-4.8293,-4.9004,-4.9551,-4.9891,-5.1594,-5.2329,-5.1905,-5.2956,-5.3501,-5.3501,-5.3501,-5.3501,-5.3501,-5.3501,-5.3501,-5.3534,-5.4025,-5.438,-5.4668,-5.5683,-5.6376,-5.6867,-5.7594,-5.7881,-5.7881,-5.7881,-5.7881,-5.7881,0.0,0.0,0.0,0.0,0.0,0.0,0.0,0.0,0.0,0.0,0.0,0.0,0.0,0.0,0.0,0.0,0.0,0.0,-3.6093,-3.5251,-3.5142,-3.6146,-3.4191,-3.3611,-3.4677,-3.4731,-3.5709,-3.7791,-3.6735,-3.6212,-3.6251,-3.7319,-3.7228,-3.6279,-3.7891,-3.8057,-3.7206,-3.8885,-3.9318,-3.9116,-4.1458,-4.2069,-4.1726,0.0,0.0,0.0,0.0,0.0,0.0,0.0,0.0,0.0,0.0,0.0,0.0,0.0,-4.329,-4.329,-4.329,-4.329,-4.329,-4.329,0.0,0.0,-4.329,-4.329,-4.329,-4.329,-4.329,-4.329,-4.329,-4.329,-4.329,-4.329,-4.4436,-4.5289,-4.5289,-4.6456,-4.7294,-4.7309,-4.7309,-4.7309,-4.7309,-4.7309,-4.7309,-4.7309,-4.7309,-4.7309,-4.7309,-4.7309,-4.7764,-4.8743,-4.9852,-5.0892,-5.1885,-5.2956,-5.3501,-5.3501,-5.3501,-5.3501,-5.3501,-5.3501,-5.3501,-5.3501,-5.3501,-5.3907,-5.4583,-5.4583,-5.5463,-5.6867,-5.7594,-5.7881,-5.7881,-5.7881,-5.7881,-5.7881,0.0,0.0,0.0,0.0,0.0,0.0,0.0,0.0,0.0,0.0,0.0,0.0,0.0,0.0,0.0,0.0,0.0,0.0,-3.4551,-3.4302,-3.4438,-3.5115,-3.4553,-3.4729,-3.5792,-3.5835,-3.6112,-3.6682,-3.6773,-3.682,-3.6834,-3.756,-3.7714,-3.7428,-3.7894,-3.7937,-3.7745,-3.8686,-3.9047,-3.9072,-4.1044,-4.1263,-4.0618,0.0,0.0,0.0,0.0,0.0,0.0,0.0,0.0,0.0,0.0,0.0,0.0,-4.329,-4.329,-4.329,-4.329,-4.329,0.0,-4.329,0.0,0.0,0.0,-4.329,0.0,-4.329,-4.329,-4.329,-4.329,-4.329,-4.329,-4.329,-4.4047,-4.4766,-4.5229,-4.6052,-4.6785,-4.7249,-4.7309,-4.7309,-4.7309,-4.7309,-4.7309,-4.7309,-4.7309,-4.7309,-4.7309,-4.7946,-4.8183,-4.7764,-5.0149,-5.1266,-5.0855,-5.2609,-5.3501,-5.3501,-5.3501,-5.3501,-5.3501,-5.3501,-5.3501,-5.3501,-5.3501,-5.3619,-5.3873,-5.438,-5.5463,-5.6816,-5.7036,-5.7442,-5.7881,-5.7881,-5.7881,-5.7881,0.0,0.0,0.0,0.0,0.0,0.0,0.0,0.0,0.0,0.0,0.0,0.0,0.0,0.0,0.0,0.0,0.0,0.0,0.0,-3.4223,-3.4374,-3.4713,-3.468,-3.5015,-3.5644,-3.5644,-3.5618,-3.5603,-3.5976,-3.6162,-3.6162,-3.6934,-3.7053,-3.6651,-3.7295,-3.7359,-3.7023,-3.8122,-3.832,-3.8096,-4.0107,-4.049,-4.0116,0.0,0.0,0.0,0.0,0.0,0.0,0.0,0.0,0.0,0.0,0.0,0.0,-4.329,-4.329,-4.329,-4.329,-4.329,0.0,-4.329,-4.329,-4.329,-4.329,-4.329,-4.329,-4.329,-4.329,-4.329,-4.329,-4.329,-4.329,-4.329,-4.3843,-4.4541,-4.52,-4.5888,-4.6576,-4.7234,-4.7309,-4.7309,-4.7309,-4.7309,-4.7309,-4.7309,-4.7309,-4.7309,-4.7309,-4.7876,-4.7919,-4.7309,-4.9496,-5.0381,-4.9773,-5.1447,-5.2258,-5.2258,-5.2679,-5.2644,-5.231,-5.311,-5.3501,-5.3501,-5.3501,-5.3501,-5.3568,-5.4296,-5.4864,-5.5367,-5.5917,-5.6162,-5.6298,-5.6976,-5.7206,-5.7297,0.0,0.0,0.0,0.0,0.0,0.0,0.0,0.0,0.0,0.0,0.0,0.0,0.0,0.0,0.0,0.0,0.0,0.0,0.0,0.0,-3.4781,-3.4864,-3.4864,-3.4864,-3.4864,-3.4864,-3.4864,-3.4864,-3.4781,-3.4756,-3.4801,-3.5817,-3.5799,-3.4934,-3.6373,-3.647,-3.5701,-3.7273,-3.7368,-3.6581,-3.8841,-3.9681,-3.9724,-4.0958,0.0,0.0,0.0,0.0,0.0,0.0,0.0,0.0,0.0,0.0,-4.329,-4.329,-4.329,-4.329,-4.329,-4.329,-4.329,-4.329,-4.329,-4.329,-4.329,-4.329,-4.329,-4.329,-4.329,-4.329,-4.329,-4.329,-4.329,-4.329,-4.3798,-4.4451,-4.511,-4.5798,-4.6471,-4.713,-4.7264,-4.7309,-4.7309,-4.7309,-4.7309,-4.7309,-4.7309,-4.7309,-4.7309,-4.7309,-4.7309,-4.7309,-4.8293,-4.8784,-4.8784,-4.9852,-5.0397,-5.0397,-5.132,-5.1266,-5.0474,-5.2451,-5.3298,-5.323,-5.3314,-5.3348,-5.3399,-5.4091,-5.3803,-5.3144,-5.4311,-5.4303,-5.3776,-5.5387,-5.5982,-5.6204,0.0,0.0,0.0,0.0,0.0,0.0,0.0,0.0,0.0,0.0,0.0,0.0,0.0,0.0,0.0,0.0,0.0,0.0,0.0,0.0,-3.5567,-3.5994,-3.6053,-3.6053,-3.6053,-3.6053,-3.6053,-3.6053,-3.5579,-3.532,-3.5332,-3.6071,-3.6273,-3.6065,-3.64,-3.6404,-3.6241,-3.6624,-3.6628,-3.6546,-3.7939,-3.7939,-3.7381,-3.9492,-4.0418,0.0,0.0,0.0,0.0,0.0,0.0,0.0,-4.329,-4.329,-4.329,-4.329,-4.329,-4.329,-4.329,-4.329,0.0,-4.329,-4.329,-4.329,-4.329,-4.329,-4.329,-4.329,-4.329,-4.329,-4.329,-4.329,-4.329,-4.329,-4.3409,-4.3738,-4.4436,-4.5095,-4.5768,-4.6456,-4.6995,-4.7309,-4.7309,-4.7309,-4.7309,-4.7309,-4.7309,-4.7309,-4.7309,-4.7309,-4.7309,-4.7309,-4.8293,-4.8784,-4.8784,-4.9852,-5.0397,-5.0397,-5.0627,-5.0589,-5.0435,-5.1704,-5.1813,-5.1096,-5.1902,-5.2241,-5.2241,-5.2407,-5.2679,-5.2955,-5.2458,-5.2797,-5.3646,-5.4019,-5.4478,-5.4986,0.0,0.0,0.0,0.0,0.0,0.0,0.0,0.0,0.0,0.0,0.0,0.0,0.0,0.0,0.0,0.0,0.0,0.0,0.0,0.0,-3.6056,-3.6405,-3.6405,-3.6405,-3.6405,-3.6405,-3.6405,-3.6405,-3.6069,-3.5931,-3.5943,-3.6267,-3.6405,-3.6405,-3.6405,-3.6405,-3.6405,-3.6405,-3.6405,-3.6452,-3.707,-3.7289,-3.7335,-3.8559,-3.9754,-4.0788,-4.1378,0.0,0.0,0.0,0.0,0.0,0.0,0.0,-4.329,-4.329,-4.329,-4.329,-4.329,0.0,0.0,-4.329,0.0,-4.329,-4.329,-4.329,-4.329,-4.329,-4.329,-4.329,-4.329,-4.329,-4.329,-4.329,-4.329,-4.3529,-4.4227,-4.4885,-4.5544,-4.6204,-4.6905,-4.7309,-4.7309,-4.7309,-4.7309,-4.7309,-4.7309,-4.7309,-4.7309,-4.7309,-4.7309,-4.7309,-4.7792,-4.8057,-4.8057,-4.8625,-4.8938,-4.8938,-4.9392,-4.9615,-4.9655,-5.0703,-5.0892,-5.0451,-5.093,-5.1192,-5.1192,-5.1192,-5.1102,-5.098,-5.0778,-5.0849,-5.1207,-5.234,-5.3023,-5.3428,0.0,0.0,0.0,0.0,0.0,0.0,0.0,0.0,0.0,0.0,0.0,0.0,0.0,0.0,0.0,0.0,0.0,0.0,0.0,0.0,0.0,-3.6405,-3.6405,-3.6405,-3.6405,-3.6405,-3.6405,-3.6405,-3.6405,-3.6405,-3.6405,-3.6405,-3.6405,-3.6405,-3.6405,-3.6405,-3.6405,-3.6405,-3.6405,-3.6405,-3.6405,-3.6977,-3.7802,-3.7802,-3.9244,-4.1295,-4.107,-4.1988,-4.325,-4.3076,0.0,0.0,0.0,0.0,-4.329,-4.329,-4.329,-4.329,-4.329,0.0,-4.329,-4.329,-4.329,-4.329,-4.329,-4.329,-4.329,-4.329,-4.329,-4.329,-4.329,-4.329,-4.329,-4.329,-4.329,-4.3484,-4.4062,-4.4706,-4.5379,-4.6067,-4.6741,-4.7174,-4.7294,-4.7309,-4.7309,-4.7309,-4.7309,-4.7309,-4.7309,-4.7309,-4.7309,-4.7309,-4.7309,-4.7309,-4.7309,-4.7309,-4.7309,-4.7309,-4.8141,-4.8553,-4.8553,-4.9472,-4.9868,-4.9868,-5.0048,-5.0126,-5.0126,-5.0126,-4.9615,-4.8846,-4.9211,-4.8928,-4.8549,-5.0653,-5.1495,-5.1827,0.0,0.0,0.0,0.0,0.0,0.0,0.0,0.0,0.0,0.0,0.0,0.0,0.0,0.0,0.0,0.0,0.0,0.0,-3.6405,0.0,0.0,-3.6405,-3.6405,-3.6405,-3.6405,-3.6405,-3.6405,-3.6405,-3.6405,-3.6405,-3.6405,-3.6405,-3.6405,-3.6405,-3.6405,-3.6405,-3.6405,-3.6405,-3.6405,-3.6405,-3.6405,-3.6499,-3.6628,-3.6628,-3.8075,-3.9972,-3.8948,-4.059,-4.3155,-4.2152,-4.2467,0.0,0.0,0.0,-4.329,-4.329,-4.329,-4.329,-4.329,0.0,-4.329,0.0,-4.329,-4.329,-4.329,-4.329,-4.329,-4.329,-4.329,-4.329,-4.329,-4.329,-4.329,-4.329,-4.329,-4.3319,-4.3409,-4.3992,-4.4691,-4.5349,-4.6037,-4.6681,-4.7249,-4.7309,-4.7309,-4.7309,-4.7309,-4.7309,-4.7309,-4.7309,-4.7309,-4.7309,-4.7309,-4.7309,-4.7309,-4.7309,-4.7309,-4.7309,-4.7424,-4.7495,-4.7495,-4.7651,-4.7737,-4.7764,-4.8651,-4.9029,-4.9029,-4.9029,-4.8948,-4.8718,-4.794,-4.7904,-4.8416,-4.9329,-4.996,-5.0531,0.0,0.0,0.0,0.0,0.0,0.0,0.0,0.0,0.0,0.0,0.0,0.0,0.0,0.0,0.0,-3.6405,-3.6405,-3.6405,-3.6405,-3.6405,-3.6405,-3.6405,-3.6405,-3.6405,-3.6405,-3.6405,-3.6405,-3.6405,-3.6405,-3.6405,-3.6405,-3.6405,-3.6405,-3.6405,-3.6405,-3.6405,-3.6405,-3.6405,-3.6405,-3.6405,-3.6405,-3.6405,-3.6405,-3.6405,-3.7874,-3.9812,-3.9316,-4.0916,-4.321,-4.2725,-4.29,-4.329,-4.329,0.0,0.0,0.0,-4.3843,-4.3843,-4.3843,-4.3843,-4.3753,0.0,-4.329,-4.329,-4.329,-4.329,-4.329,-4.329,-4.329,-4.329,-4.329,-4.329,-4.329,-4.329,-4.329,-4.329,-4.329,-4.3898,-4.4556,-4.5214,-4.5903,-4.6576,-4.7234,-4.7309,-4.7309,-4.7309,-4.7309,-4.7309,-4.7309,-4.7309,-4.7309,-4.7309,-4.7309,-4.7309,-4.7309,-4.7309,-4.7309,-4.7309,-4.7309,-4.7309,-4.7309,-4.7309,-4.7309,-4.7337,-4.7764,-4.7946,-4.7946,-4.7946,-4.7946,-4.7919,-4.7452,-4.7474,-4.7818,-4.8476,-4.9134,-4.9793,0.0,0.0,0.0,0.0,0.0,0.0,0.0,0.0,0.0,0.0,0.0,0.0,0.0,0.0,0.0,0.0,-3.6405,-3.6405,-3.6405,-3.6405,-3.6405,-3.6405,-3.6405,-3.6405,-3.6405,-3.6405,-3.6405,-3.6405,-3.6405,-3.6405,-3.6405,-3.6405,-3.6405,-3.6405,-3.6405,-3.6405,-3.6405,-3.6405,-3.6405,-3.6405,-3.6405,-3.6405,-3.6405,-3.6405,-3.7691,-3.9448,-3.9448,-4.0916,-4.286,-4.286,-4.3076,-4.3319,-4.3484,-4.3544,0.0,0.0,0.0,-4.4556,-4.4556,0.0,-4.4407,-4.3708,-4.3544,-4.3499,-4.3334,-4.329,-4.329,-4.329,-4.329,-4.3349,-4.3514,-4.3409,-4.329,-4.329,-4.329,-4.3349,-4.3514,-4.3962,-4.4631,-4.5454,-4.6022,-4.6576,-4.7234,-4.7309,-4.7309,-4.7309,-4.7309,-4.7309,-4.7309,-4.7309,-4.7309,-4.7309,-4.7309,-4.7309,-4.7309,-4.7309,-4.7309,-4.7309,-4.7309,-4.7309,-4.7309,-4.7309,-4.7309,-4.7309,-4.7309,-4.7309,-4.7309,-4.7309,-4.7309,-4.7309,-4.7309,-4.7309,-4.7384,-4.8042,-4.864,-4.9179,0.0,0.0,0.0,0.0,0.0,0.0,0.0,0.0,0.0,0.0,0.0,0.0,-3.6405,-3.6405,-3.6405,-3.6405,-3.6405,-3.6405,-3.6405,-3.6405,-3.6405,-3.6405,-3.6405,0.0,-3.6405,-3.6405,-3.6405,-3.6405,-3.6405,-3.6405,-3.6405,-3.6405,-3.6405,-3.6405,-3.6405,-3.6405,-3.6405,-3.6405,-3.6405,-3.6405,-3.6405,-3.6405,-3.6405,-3.6405,-3.715,-3.8198,-3.8198,-3.9713,-4.1684,-4.1684,-4.2412,-4.3409,-4.4062,-4.4272,-4.4392,0.0,0.0,0.0,-4.5244,-4.5244,0.0,-4.4421,-4.4272,-4.4067,-4.3439,-4.329,-4.329,-4.329,-4.329,-4.3484,-4.4152,-4.3708,-4.329,-4.329,-4.329,-4.3514,-4.4182,-4.4287,-4.4796,-4.607,-4.6264,-4.6576,-4.7234,-4.7309,-4.7309,-4.7309,-4.7309,-4.7309,-4.7309,-4.7309,-4.7309,-4.7309,-4.7309,-4.7309,-4.7309,-4.7309,-4.7309,-4.7309,-4.7309,-4.7309,-4.7309,-4.7309,-4.7309,-4.7309,-4.7309,-4.7309,-4.7309,-4.7309,-4.7309,-4.7309,-4.7309,-4.7309,-4.7384,-4.8042,-4.8312,-4.8521,0.0,0.0,0.0,0.0,0.0,0.0,0.0,0.0,0.0,0.0,0.0,0.0,0.0,-3.6405,-3.6405,-3.6405,-3.6405,-3.6405,-3.6405,-3.6405,-3.6405,-3.6405,-3.6405,-3.6405,-3.6405,-3.6405,-3.6405,-3.6405,-3.6757,-3.6885,-3.6945,-3.7249,-3.7224,-3.692,-3.6568,-3.6405,-3.6405,-3.6405,-3.6405,-3.6405,-3.6405,-3.6405,-3.6405,-3.6405,-3.7103,-3.8107,-3.8107,-3.9125,-4.0618,-4.1337,-4.2167,-4.3031,-4.3968,-4.4601,-4.508,-4.5753,-4.6262,-4.6501,-4.6067,-4.5963,-4.5798,-4.511,-4.4945,-4.4885,-4.4646,-4.4586,-4.4586,-4.4586,-4.4586,-4.4661,-4.49,-4.4407,-4.4067,-4.4526,-4.4586,-4.4676,-4.4915,-4.4945,-4.5289,-4.6175,-4.6279,-4.6576,-4.7234,-4.7309,-4.7309,-4.7309,-4.7309,-4.7309,-4.7309,-4.7309,-4.7309,-4.7309,-4.7309,-4.7309,-4.7309,-4.7309,-4.7309,-4.7309,-4.7309,-4.7309,-4.7309,-4.7309,-4.7309,-4.7309,-4.7309,-4.7309,-4.7309,-4.7309,-4.7309,-4.7309,-4.7309,-4.7309,-4.7339,-4.7578,-4.7923,-4.8356,0.0,0.0,0.0,0.0,0.0,0.0,0.0,0.0,0.0,-3.6405,0.0,0.0,0.0,0.0,-3.6405,-3.6405,-3.6405,-3.6405,-3.6405,-3.6405,-3.6405,-3.6405,-3.6405,-3.6405,-3.6405,-3.6593,-3.6681,-3.6681,-3.7199,-3.7462,-3.7475,-3.7839,-3.7814,-3.7437,-3.6933,-3.6581,-3.6405,-3.6405,-3.6405,-3.6405,-3.6405,-3.6405,-3.6405,-3.6405,-3.6896,-3.7586,-3.7984,-3.8604,-3.9492,-4.0646,-4.144,-4.221,-4.3644,-4.4938,-4.6067,-4.6516,-4.6965,-4.7204,-4.677,-4.6651,-4.6486,-4.5813,-4.5648,-4.5589,-4.5349,-4.5289,-4.5289,-4.5289,-4.5289,-4.5364,-4.5589,-4.5274,-4.505,-4.5259,-4.5289,-4.5379,-4.5603,-4.5648,-4.5888,-4.6576,-4.6651,-4.683,-4.7264,-4.7309,-4.7309,-4.7309,-4.7309,-4.7309,-4.7309,-4.7309,-4.7204,-4.698,-4.698,-4.698,-4.698,-4.698,-4.7085,-4.7309,-4.7309,-4.7309,-4.7309,-4.7309,-4.7309,-4.7309,-4.7309,-4.7309,-4.7309,-4.7309,-4.7309,-4.7309,-4.7309,-4.7309,-4.7309,-4.7309,-4.7578,-4.7997,0.0,0.0,0.0,0.0,0.0,0.0,0.0,0.0,-3.6405,-3.6405,0.0,0.0,0.0,0.0,0.0,-3.6405,-3.6405,-3.6405,-3.6405,-3.6405,-3.6405,-3.6405,-3.6405,-3.6405,-3.6405,-3.6958,-3.7186,-3.7186,-3.7751,-3.804,-3.804,-3.8052,-3.8052,-3.8002,-3.7475,-3.6923,-3.643,-3.6417,-3.6405,-3.6405,-3.6405,-3.6405,-3.6405,-3.6405,-3.6405,-3.6534,-3.7632,-3.8062,-3.8257,-3.9475,-4.0255,-4.1071,-4.3083,-4.5345,-4.7309,-4.7309,-4.7309,-4.7309,0.0,0.0,0.0,-4.6516,-4.6309,-4.6172,-4.5514,-4.5349,-4.5349,-4.5349,-4.5349,-4.5559,-4.619,-4.6309,-4.6142,-4.5469,-4.5349,-4.5589,-4.6262,-4.6309,-4.6591,-4.7234,-4.7309,-4.7309,-4.7309,-4.7309,-4.7309,-4.7309,-4.7309,-4.7309,-4.7309,-4.7309,-4.6995,-4.6309,-4.6279,-4.6279,-4.6279,-4.6279,-4.6651,-4.7309,-4.7309,-4.7309,-4.7309,-4.7309,-4.7309,-4.7309,-4.7309,-4.7309,-4.7309,-4.7309,-4.7309,-4.7309,-4.7309,-4.7309,-4.7309,-4.7309,-4.7309,-4.7399,0.0,0.0,0.0,0.0,0.0,-3.6405,-3.6405,-3.6405,-3.6405,0.0,0.0,0.0,-3.6405,-3.6405,-3.6405,-3.6405,-3.6405,-3.6405,-3.6405,-3.6405,-3.6405,-3.6405,-3.6405,-3.6405,-3.6405,-3.6958,-3.7186,0.0,0.0,0.0,0.0,0.0,-3.9019,-3.863,-3.8529,-3.7913,-3.6923,-3.6581,-3.6405,-3.6405,-3.6405,-3.6405,-3.6405,-3.6405,-3.6405,-3.6452,-3.6756,-3.6896,-3.7134,-3.8642,-4.0201,-4.2049,-4.5274,-4.6736,-4.7309,-4.7309,-4.7309,-4.7309,-4.7309,0.0,0.0,0.0,0.0,0.0,-4.68,-4.6756,-4.6756,-4.6756,-4.6756,-4.68,-4.6995,-4.704,-4.6965,-4.6785,-4.6756,-4.6815,-4.701,-4.704,-4.71,-4.7279,-4.7309,-4.7309,-4.7309,-4.7309,-4.7309,-4.7309,-4.7309,-4.7309,-4.7309,-4.7309,-4.6995,-4.6309,-4.6279,-4.6279,-4.6279,-4.6279,-4.6651,-4.7309,-4.7309,-4.7309,-4.7309,-4.7309,-4.7309,-4.7309,-4.7309,-4.7309,-4.7309,-4.7309,-4.7309,-4.7309,-4.7309,-4.7309,-4.7309,-4.7309,-4.7309,-4.7339,0.0,0.0,0.0,0.0,0.0,-3.6405,-3.6405,-3.6405,-3.6405,0.0,0.0,0.0,-3.6405,-3.6405,-3.6405,-3.6405,-3.6405,-3.6405,-3.6405,-3.6405,-3.6405,-3.6405,-3.6405,-3.6405,-3.6405,-3.7123,-3.7525,0.0,0.0,0.0,0.0,0.0,0.0,-3.9195,-3.902,-3.8504,-3.7839,-3.7084,-3.6619,-3.6405,-3.6405,-3.6405,-3.6405,-3.6405,-3.6405,-3.6405,-3.6405,-3.6556,-3.689,-3.7882,-3.9613,-4.1896,-4.48,-4.6062,-4.6594,-4.7164,-4.7309,-4.7309,-4.7309,-4.7309,-4.7309,-4.7309,0.0,0.0,-4.7309,-4.7309,-4.7309,-4.7309,-4.7309,-4.7309,-4.7309,-4.7309,-4.7309,-4.7309,-4.7309,-4.7309,-4.7309,-4.7309,-4.7309,-4.7309,-4.7309,-4.7309,-4.7309,-4.7309,-4.7309,-4.7309,-4.7309,-4.7309,-4.7309,-4.7309,-4.6995,-4.6309,-4.6279,-4.6279,-4.6279,-4.6279,-4.6651,-4.7309,-4.7309,-4.7309,-4.7309,-4.7309,-4.7309,-4.7309,-4.7309,-4.7309,-4.7309,-4.7309,-4.7309,-4.7309,-4.7309,-4.7309,-4.7309,-4.7309,-4.7309,-4.7309,0.0,0.0,-3.6405,-3.6405,-3.6405,-3.6405,-3.6405,-3.6405,-3.6405,0.0,-3.6405,-3.6405,-3.6405,-3.6405,-3.6405,-3.6405,-3.6405,-3.6405,-3.6405,-3.6405,-3.6405,-3.6405,-3.6405,-3.6405,-3.6405,-3.7437,-3.8002,0.0,0.0,0.0,0.0,0.0,0.0,0.0,0.0,-3.8982,-3.8856,-3.7801,-3.7059,-3.6493,-3.643,-3.6405,-3.6405,-3.6405,-3.6455,-3.6505,-3.6505,-3.6857,-3.7335,-3.7531,-3.9091,-4.1209,-4.3087,-4.4396,-4.5448,-4.6873,-4.7207,-4.7121,-4.7251,-4.7309,-4.7309,-4.7309,-4.7309,0.0,-4.7309,-4.7309,-4.7309,-4.7309,-4.7309,-4.7309,-4.7309,-4.7309,-4.7309,-4.7309,-4.7309,-4.7309,-4.7309,-4.7309,-4.7309,-4.7309,-4.7309,-4.7309,-4.7309,-4.7309,-4.7309,-4.7309,-4.7309,-4.7309,-4.7309,-4.7309,-4.6995,-4.6309,-4.6279,-4.6279,-4.6279,-4.6279,-4.6651,-4.7309,-4.7309,-4.7309,-4.7309,-4.7309,-4.7309,-4.7309,-4.7309,-4.7309,-4.7309,-4.7309,-4.7309,-4.7309,-4.7309,-4.7309,-4.7309,-4.7309,-4.7309,-4.7309,0.0,-3.6405,-3.6405,-3.6405,-3.6405,-3.6405,-3.6405,-3.6405,-3.6405,-3.6405,-3.6405,-3.6405,-3.6405,-3.6405,-3.6405,-3.6405,-3.6405,-3.6405,-3.6405,-3.6405,-3.6405,-3.6405,-3.6405,-3.6405,-3.6405,-3.7437,-3.8002,-3.8002,0.0,0.0,0.0,0.0,0.0,0.0,0.0,-3.9283,-3.8906,-3.868,-3.8001,-3.6985,-3.6581,-3.6405,-3.6405,-3.6405,-3.6681,-3.7023,-3.7023,-3.7374,-3.8049,-3.9583,-4.0719,-4.1874,-4.4261,-4.4503,-4.4303,-4.6638,-4.6594,-4.5973,-4.7019,-4.7309,-4.7309,-4.7309,-4.7309,0.0,-4.7309,-4.7309,-4.7309,-4.7309,-4.7309,-4.7309,-4.7309,-4.7309,-4.7309,-4.7309,-4.7309,-4.7309,-4.7309,-4.7309,-4.7309,-4.7309,-4.7309,-4.7309,-4.7309,-4.7309,-4.7309,-4.7309,-4.7309,-4.7309,-4.7309,-4.7309,-4.6995,-4.6309,-4.6279,-4.6279,-4.6279,-4.6279,-4.6651,-4.7309,-4.7309,-4.7309,-4.7309,-4.7309,-4.7309,-4.7309,-4.7309,-4.7309,-4.7309,-4.7309,-4.7309,-4.7309,-4.7309,-4.7309,-4.7309,-4.7309,-4.7309,-4.7309,-3.6405,-3.6405,-3.6405,-3.6405,-3.6405,-3.6405,-3.6405,-3.6405,-3.6405,-3.6405,-3.6405,-3.6405,-3.6405,-3.6405,-3.6405,-3.6405,-3.6405,-3.6405,-3.6405,-3.6405,-3.6405,-3.6405,-3.6405,-3.6405,-3.6405,-3.7437,-3.8002,-3.8002,0.0,0.0,0.0,0.0,0.0,0.0,-3.9697,-3.9534,-3.927,-3.8981,-3.8592,-3.7952,-3.7159,-3.682,-3.682,-3.682,-3.7111,-3.76,-3.76,-3.7965,-3.8617,-3.985,-4.0411,-4.0982,-4.2882,-4.3074,-4.3074,-4.5584,-4.5928,-4.5689,-4.6975,-4.7309,-4.7309,-4.7309,-4.7309,0.0,0.0,-4.7309,-4.7309,-4.7309,-4.7309,-4.7309,-4.7309,-4.7309,-4.7309,-4.7309,-4.7309,-4.7309,-4.7309,-4.7309,-4.7309,-4.7309,-4.7309,-4.7309,-4.7309,-4.7309,-4.7309,-4.7309,-4.7309,-4.7309,-4.7309,-4.7309,-4.716,-4.683,-4.6815,-4.6815,-4.6815,-4.6815,-4.698,-4.7309,-4.7309,-4.7309,-4.7309,-4.7309,-4.7309,-4.7309,-4.7309,-4.7309,-4.7309,-4.7309,-4.7309,-4.7309,-4.7309,-4.7309,-4.7309,-4.7309,-4.7309,-4.7309,-3.6405,-3.6405,-3.6405,-3.6405,-3.6405,-3.6405,-3.6405,-3.6405,-3.6405,-3.6405,-3.6405,-3.6405,-3.6405,-3.6405,-3.6405,-3.6405,-3.6405,-3.6405,-3.6405,-3.6405,-3.6405,-3.6405,-3.6405,-3.6405,-3.6405,-3.7337,-3.7902,-3.8002,0.0,0.0,0.0,0.0,0.0,-3.9697,-3.9697,-3.9697,-3.9659,-3.922,-3.8969,-3.8844,-3.7877,-3.745,-3.7337,-3.7337,-3.7688,-3.8191,-3.8291,-3.863,-3.9094,-3.9546,-3.9697,-3.9981,-4.1505,-4.1654,-4.1838,-4.4872,-4.5403,-4.5358,-4.6873,-4.7309,-4.7309,-4.7309,-4.7309,-4.7309,0.0,0.0,0.0,-4.7309,-4.7309,-4.7309,-4.7309,-4.7309,-4.7309,-4.7309,-4.7309,-4.7309,-4.7309,-4.7309,-4.7309,-4.7309,-4.7309,-4.7309,-4.7309,-4.7309,-4.7309,-4.7309,-4.7309,-4.7309,-4.7309,-4.7309,-4.7309,-4.7309,-4.7309,-4.7309,-4.7309,-4.7309,-4.7309,-4.7309,-4.7309,-4.7309,-4.7309,-4.7309,-4.7309,-4.7309,-4.7309,-4.7309,-4.7309,-4.7309,-4.7309,-4.7309,-4.7309,-4.7309,-4.7309,-4.7309,-4.7309,-4.7309,-3.6405,-3.6405,-3.6405,-3.6405,-3.6405,-3.6405,-3.6405,-3.6405,-3.6405,-3.6405,-3.6405,-3.6405,-3.6405,-3.6405,-3.6405,-3.6405,-3.6405,-3.6405,-3.6405,-3.6405,-3.6405,-3.6405,-3.6405,-3.6405,-3.6405,-3.7008,-3.7513,-3.8002,-3.8655,0.0,0.0,0.0,0.0,-3.9697,-3.9697,-3.9697,-3.9697,-3.9622,-3.932,-3.8906,-3.8781,-3.8379,-3.7914,-3.7914,-3.8266,-3.8881,-3.9333,-3.9546,-3.9609,-3.9672,-3.9697,-4.0121,-4.2558,-4.1739,-4.0844,-4.5689,-4.5494,-4.4256,-4.6638,-4.7309,-4.7309,-4.7309,-4.7309,-4.7309,-4.7309,0.0,-4.7309,-4.7309,0.0,-4.7309,-4.7309,0.0,0.0,-4.7309,-4.7309,-4.7309,-4.7309,-4.7309,-4.7309,-4.7309,-4.7309,-4.7309,-4.7309,-4.7309,-4.7309,-4.7309,-4.7309,-4.7309,-4.7309,-4.7309,-4.7309,-4.7309,-4.7309,-4.7309,-4.7309,-4.7309,-4.7309,-4.7309,-4.7309,-4.7309,-4.7309,-4.7309,-4.7309,-4.7309,-4.7309,-4.7309,-4.7309,-4.7309,-4.7309,-4.7309,-4.7309,-4.7309,-4.7309,-4.7309,-4.7309,-4.7309,-3.6405,-3.6405,-3.6405,-3.6405,-3.6405,-3.6405,-3.6405,-3.6405,-3.6405,-3.6405,-3.6405,-3.6405,-3.6405,-3.6405,-3.6405,-3.6405,-3.6405,-3.6405,-3.6405,-3.6405,-3.6405,-3.6405,-3.6405,-3.6405,-3.6405,-3.6958,-3.7299,-3.7525,-3.8429,0.0,0.0,0.0,0.0,-3.9697,-3.9697,-3.9697,-3.9697,-3.9697,-3.9559,-3.9346,-3.9346,-3.9195,-3.8956,-3.863,-3.8856,-3.9383,-3.9609,-3.9697,-3.9697,-3.9697,-3.9697,-3.989,-4.0982,-4.1082,-4.1369,-4.4256,-4.4872,-4.5024,-4.6829,-4.6785,-4.6358,-4.7121,-4.6726,-4.6403,-4.7121,-4.7309,-4.7309,-4.7309,0.0,0.0,0.0,0.0,0.0,0.0,-4.7309,-4.7309,-4.7309,-4.7309,-4.7309,-4.7309,-4.7309,-4.7309,-4.7309,-4.7309,-4.7309,-4.7309,-4.7309,-4.7309,-4.7309,-4.7309,-4.7309,-4.7309,-4.7309,-4.7309,-4.7309,-4.7309,-4.7309,-4.7309,-4.7309,-4.7309,-4.7309,-4.7309,-4.7309,-4.7309,-4.7309,-4.7309,-4.7309,-4.7309,-4.7309,-4.7309,-4.7309,-4.7309,-4.7309,-4.7309,-4.7309,-4.7309,-3.6405,-3.6405,-3.6405,-3.6405,-3.6405,-3.6405,-3.6405,-3.6405,-3.6405,-3.6405,-3.6405,-3.6405,-3.6405,-3.6405,-3.6405,-3.6405,-3.6405,-3.6405,-3.6405,-3.6405,-3.6405,-3.6405,-3.6405,-3.6405,-3.6405,-3.6807,-3.7111,-3.7412,-3.8228,0.0,0.0,0.0,0.0,0.0,-3.9697,-3.9697,-3.9697,-3.9697,-3.9697,-3.9697,-3.9697,-3.9697,-3.9647,-3.9245,-3.9346,-3.9697,-3.9697,-3.9697,-3.9697,-3.9697,-3.9697,-3.9736,-4.0121,-4.0605,-4.1406,-4.3026,-4.3929,-4.4688,-4.6344,-4.6107,-4.5734,-4.6975,-4.6594,-4.6166,-4.7062,-4.7309,-4.7309,-4.7309,-4.7309,0.0,0.0,0.0,-4.7309,-4.7309,0.0,-4.7309,-4.7309,-4.7309,-4.7309,-4.7309,-4.7309,-4.7309,-4.7309,-4.7309,-4.7309,-4.7309,-4.7309,-4.7309,-4.7309,-4.7309,-4.7309,-4.7309,-4.7309,-4.7309,-4.7309,-4.7309,-4.7309,-4.7309,-4.7309,-4.7309,-4.7309,-4.7309,-4.7309,-4.7309,-4.7309,-4.7309,-4.7309,-4.7309,-4.7309,-4.7309,-4.7309,-4.7309,-4.7309,-4.7309,-4.7309,-4.7309,-3.6405,-3.6405,-3.6405,-3.6405,-3.6405,-3.6405,-3.6405,-3.6405,-3.6405,-3.6405,-3.6405,-3.6405,-3.6405,-3.6405,-3.6405,-3.6405,-3.6405,-3.6405,-3.6405,-3.6405,-3.6405,-3.6405,-3.6405,-3.6405,-3.6405,-3.643,-3.691,-3.7977,-3.8015,0.0,0.0,0.0,0.0,0.0,-3.9697,-3.9697,-3.9697,-3.9697,-3.9697,-3.9697,-3.9697,-3.9697,-3.9697,-3.9672,-3.9685,-3.9697,-3.9697,-3.9697,-3.9697,-3.9697,-3.9697,-3.9929,-4.1169,-4.0693,-4.0275,-4.2738,-4.2641,-4.2266,-4.478,-4.5448,-4.5734,-4.6975,-4.7266,-4.7251,-4.7309,-4.7309,-4.7309,-4.7309,-4.7309,-4.7309,-4.7309,-4.7309,-4.7309,-4.7309,-4.7309,0.0,0.0,-4.7309,-4.7309,-4.7309,-4.7309,-4.7309,-4.7309,-4.7309,-4.7309,-4.7309,-4.7309,-4.7309,-4.7309,-4.7309,-4.7309,-4.7309,-4.7309,-4.7309,-4.7309,-4.7309,-4.7309,-4.7309,-4.7309,-4.7309,-4.7309,-4.7309,-4.7309,-4.7309,-4.7309,-4.7309,-4.7309,-4.7309,-4.7309,-4.7309,-4.7309,-4.7309,-4.7309,-4.7309,-4.7309,-4.7309,-3.6405,-3.6405,-3.6405,-3.6405,-3.6405,-3.6405,-3.6405,-3.6405,-3.6405,-3.6405,-3.6405,-3.6405,-3.6405,-3.6405,-3.6556,-3.692,-3.6958,-3.7061,-3.7425,-3.745,-3.745,-3.745,-3.745,-3.745,-3.745,-3.745,-3.7638,-3.8002,-3.8391,-3.8768,0.0,0.0,0.0,0.0,-3.9697,-3.9697,-3.9697,-3.9697,-3.9697,-3.9697,-3.9697,-3.9697,-3.9697,-3.9697,-3.9697,-3.9697,-3.9697,-3.9697,-3.9697,-3.9697,-3.9697,-3.9788,-4.0224,-4.0655,-4.1119,-4.1985,-4.2558,-4.3074,-4.3929,-4.3551,-4.3409,-4.5494,-4.5403,-4.5207,-4.6916,-4.7309,-4.7309,-4.7309,-4.7309,-4.7309,-4.7309,-4.7309,-4.7309,-4.7309,-4.7309,-4.7309,0.0,-4.7309,-4.7309,-4.7309,-4.7309,-4.7309,-4.7309,-4.7309,-4.7309,-4.7309,-4.7309,-4.7309,-4.7309,-4.7309,-4.7309,-4.7309,-4.7309,-4.7309,-4.7309,-4.7309,-4.7309,-4.7309,-4.7309,-4.7309,-4.7309,-4.7309,-4.7309,-4.7309,-4.7309,-4.7309,-4.7309,-4.7309,-4.7309,-4.7309,-4.7309,-4.7309,-4.7309,-4.7309,-4.7309,-4.7309,-3.6405,-3.6405,-3.6405,-3.6405,-3.6405,-3.6405,-3.6405,-3.6568,-3.6707,-3.6707,-3.687,-3.6996,-3.6996,-3.6996,-3.7098,-3.745,-3.7475,-3.7626,-3.799,-3.8002,-3.8002,-3.8002,-3.8002,-3.8002,-3.8002,-3.8002,-3.8115,-3.8316,-3.8693,-3.902,0.0,0.0,0.0,0.0,-3.9697,-3.9697,-3.9697,-3.9697,-3.9697,-3.9697,-3.9697,-3.9697,-3.9697,-3.9697,-3.9697,-3.9697,-3.9697,-3.9697,-3.9697,-3.9697,-3.9697,-3.9697,-3.9697,-4.0262,-4.0932,-4.0932,-4.1505,-4.2266,-4.2689,-4.2364,-4.2391,-4.4485,-4.4889,-4.5246,-4.6884,-4.7659,-4.7938,-4.7698,-4.7653,-4.7578,-4.7354,-4.7309,-4.7309,-4.7309,-4.7309,-4.7309,0.0,-4.7309,-4.7309,-4.7309,-4.7309,-4.7309,-4.7309,-4.7309,-4.7309,-4.7309,-4.7309,-4.7309,-4.7309,-4.7309,-4.7309,-4.7309,-4.7309,-4.7309,-4.7309,-4.7309,-4.7309,-4.7309,-4.7309,-4.7309,-4.7309,-4.7309,-4.7309,-4.7309,-4.7309,-4.7309,-4.7309,-4.7309,-4.7309,-4.7309,-4.7309,-4.7309,-4.7309,-4.7309,-4.7309,-4.7309,-3.648,-3.6493,-3.6493,-3.6493,-3.6468,-3.6455,-3.648,-3.6885,-3.7224,-3.7224,-3.7676,-3.8002,-3.8002,-3.8002,-3.8015,-3.8052,-3.8052,-3.8065,-3.809,-3.809,-3.809,-3.809,-3.809,-3.809,-3.809,-3.809,-3.8366,-3.8957,-3.8957,-3.9182,0.0,0.0,0.0,0.0,-3.9697,-3.9697,-3.9697,-3.9697,-3.9697,-3.9697,-3.9697,-3.9697,-3.9697,-3.9697,-3.9697,-3.9697,-3.9697,-3.9697,-3.9697,-3.9697,-3.971,-3.9735,-3.9735,-3.9747,-3.9772,-3.9772,-3.9772,-4.0056,-4.1261,-4.1942,-4.2653,-4.3906,-4.5661,-4.7024,-4.718,-4.8221,-4.9045,-4.8461,-4.8341,-4.8132,-4.7519,-4.7399,-4.7399,-4.7354,-4.7324,-4.7309,-4.7309,-4.7309,-4.7309,-4.7309,-4.7309,-4.7309,-4.7309,-4.7309,-4.7309,-4.7309,-4.7309,-4.7309,-4.7309,-4.7309,-4.7309,-4.7309,-4.7309,-4.7309,-4.7309,-4.7309,-4.7309,-4.7309,-4.7309,-4.7309,-4.7309,-4.7309,-4.7309,-4.7309,-4.7309,-4.7309,-4.7309,-4.7309,-4.7309,-4.7309,-4.7309,-4.7309,-4.7309,-4.7309,-4.7309,-4.7309,-3.75,-3.7588,-3.7588,-3.7588,-3.7249,-3.7111,-3.7525,-3.7701,-3.7789,-3.7789,-3.7914,-3.8002,-3.8002,-3.8002,-3.8178,-3.8617,-3.8642,-3.8818,-3.9233,-3.9258,-3.9258,-3.9258,-3.9258,-3.9258,-3.9258,-3.9258,-3.9333,-3.9484,-3.9484,-3.9559,-3.9697,0.0,0.0,0.0,-3.9697,-3.9697,-3.9697,-3.9697,-3.9697,-3.9697,-3.9697,-3.9697,-3.9697,-3.9697,-3.9697,-3.9697,-3.9697,-3.9697,-3.9697,-3.9697,-3.9961,-4.03,-4.03,-4.0588,-4.0862,-4.0862,-4.0862,-4.0968,-4.1313,-4.1455,-4.1874,-4.3146,-4.3852,-4.4752,-4.6737,-4.7478,-4.7977,-4.885,-4.906,-4.9,-4.8835,-4.8805,-4.8596,-4.8117,-4.7623,-4.7309,-4.7309,-4.7309,-4.7309,-4.7309,-4.7309,-4.7309,-4.7309,-4.7309,-4.7309,-4.7309,-4.7309,-4.7309,-4.7309,-4.7309,-4.7309,-4.7309,-4.7309,-4.7309,-4.7309,-4.7309,-4.7309,-4.7309,-4.7309,-4.7309,-4.7309,-4.7309,-4.7309,-4.7309,-4.7309,-4.7309,-4.7309,-4.7309,-4.7309,-4.7309,-4.7309,-4.7309,-4.7309,-4.7309,-4.7309,-4.7309,-3.7952,-3.8002,-3.809,-3.8341,-3.8128,-3.7939,-3.8002,-3.8216,-3.8379,-3.8379,-3.8592,-3.8743,-3.8743,-3.8743,-3.8881,-3.9195,-3.9233,-3.9371,-3.9672,-3.9697,-3.9697,-3.9697,-3.9697,-3.9697,-3.9697,-3.9697,-3.9697,-3.9697,-3.9697,-3.9697,-3.9697,0.0,0.0,0.0,-3.9697,-3.9697,-3.9697,-3.9697,-3.9697,-3.9697,-3.9697,-3.9835,0.0,-4.0061,-4.0212,-4.0413,-4.0413,-4.0262,-4.0086,-4.0337,-4.0626,-4.0824,-4.0824,-4.1037,-4.1288,-4.1288,-4.1288,-4.1288,-4.1288,-4.1517,-4.1843,-4.2597,-4.3388,-4.4372,-4.5885,-4.7193,-4.823,-4.8705,-4.9293,-4.9598,-4.9359,-4.9314,-4.909,-4.8401,-4.7982,-4.7638,-4.7339,-4.7309,-4.7309,-4.7309,-4.7309,-4.7309,-4.7309,-4.7309,-4.7309,-4.7309,-4.7309,-4.7309,-4.7309,-4.7309,-4.7309,-4.7309,-4.7309,-4.7309,-4.7309,-4.7309,-4.7309,-4.7309,-4.7309,-4.7309,-4.7309,-4.7309,-4.7309,-4.7309,-4.7309,-4.7309,-4.7309,-4.7309,-4.7309,-4.7309,-4.7309,-4.7309,-4.7309,-4.7309,-4.7309,-4.7309,-3.8216,-3.8228,-3.8391,-3.8894,-3.8981,-3.8806,-3.8304,-3.8655,-3.8981,-3.8981,-3.9396,-3.9697,-3.9697,-3.9697,-3.9697,-3.9697,-3.9697,-3.9697,-3.9697,-3.9697,-3.9697,-3.9697,-3.9697,-3.9697,-3.9697,-3.9697,-3.9697,-3.9697,-3.9697,-3.9697,0.0,0.0,0.0,0.0,-3.9697,-3.9697,-3.9697,-3.9772,-3.9798,-3.981,-3.9885,-4.0199,-4.0626,-4.0626,-4.0862,-4.13,-4.1363,-4.1091,-4.0701,-4.1125,-4.1326,-4.1388,-4.1388,-4.1438,-4.1501,-4.1501,-4.1501,-4.1501,-4.1501,-4.1907,-4.2313,-4.2313,-4.3547,-4.4833,-4.5195,-4.7146,-4.8841,-4.8649,-4.951,-5.0197,-4.9628,-4.9494,-4.9209,-4.8626,-4.8476,-4.8192,-4.7534,-4.7429,-4.7399,-4.7309,-4.7309,0.0,-4.7309,-4.7309,-4.7309,-4.7309,-4.7309,-4.7309,-4.7309,-4.7309,-4.7309,-4.7309,-4.7309,-4.7309,-4.7309,-4.7309,-4.7309,-4.7309,-4.7309,-4.7309,-4.7309,-4.7309,-4.7309,-4.7309,-4.7309,-4.7309,-4.7309,-4.7309,-4.7309,-4.7309,-4.7309,-4.7309,-4.7309,-4.7309,-4.7309,-4.7309,-3.9308,-3.9396,-3.9433,-3.9534,-3.9546,-3.9521,-3.9421,-3.9484,-3.9546,-3.9546,-3.9634,-3.9697,-3.9697,-3.9697,-3.9697,-3.9697,-3.9697,-3.9697,-3.9697,-3.9697,-3.9697,-3.9697,-3.9697,-3.9697,-3.9697,-3.9697,-3.9697,-3.9697,-3.9697,-3.9697,-3.9697,0.0,0.0,0.0,-3.9697,-3.9697,-3.9722,-4.0174,-4.0375,-4.0413,-4.0811,-4.1062,-4.1137,-4.1137,-4.12,-4.1351,-4.1844,-4.1656,-4.115,-4.125,-4.1643,-4.2062,-4.2062,-4.2321,-4.2685,-4.2685,-4.2685,-4.2685,-4.2685,-4.276,-4.2891,-4.2891,-4.3121,-4.3962,-4.6226,-4.7094,-4.8096,-5.025,-5.0847,-5.1005,-5.09,-5.0436,-4.9986,-4.9867,-4.9449,-4.891,-4.8207,-4.8117,-4.7923,-4.7369,-4.7309,-4.7309,-4.7309,-4.7309,-4.7309,-4.7309,-4.7309,-4.7309,-4.7309,-4.7309,-4.7309,-4.7309,-4.7309,-4.7309,-4.7309,-4.7309,-4.7309,-4.7309,-4.7309,-4.7309,-4.7309,-4.7309,-4.7309,-4.7309,-4.7309,-4.7309,-4.7309,-4.7309,-4.7309,-4.7309,-4.7309,-4.7309,-4.7309,-4.7309,-4.7309,-4.7309,-3.9647,-3.9697,-3.9697,-3.9697,-3.9697,-3.9697,-3.9697,-3.9697,-3.9697,-3.9697,-3.9697,-3.9697,-3.9697,-3.9697,-3.9697,-3.9697,-3.9697,-3.9697,-3.9697,-3.9697,-3.9697,-3.9697,-3.9697,-3.9697,-3.9697,-3.9697,-3.9697,-3.9697,-3.9697,-3.9697,-3.9697,-3.9986,-4.0124,-4.0136,-4.0425,-4.0551,-4.0563,-4.0827,-4.0887,-4.0912,-4.1175,-4.1517,-4.1769,-4.1769,-4.1944,-4.2221,-4.2484,-4.2409,-4.2195,-4.2195,-4.2359,-4.264,-4.264,-4.276,-4.2974,-4.2974,-4.2974,-4.2974,-4.2974,-4.2974,-4.2974,-4.2974,-4.3492,-4.4372,-4.5714,-4.7146,-4.8539,-4.9873,-5.0698,-5.1214,-5.1214,-5.096,-5.0584,-5.0255,-4.9972,-4.9419,-4.8431,-4.8282,-4.8042,-4.7384,-4.7309,-4.7309,-4.7309,-4.7309,-4.7309,-4.7309,-4.7309,-4.7309,-4.7309,-4.7309,-4.7309,-4.7309,-4.7309,-4.7309,-4.7309,-4.7309,-4.7309,-4.7309,-4.7309,-4.7309,-4.7309,-4.7309,-4.7309,-4.7309,-4.7309,-4.7309,-4.7309,-4.7309,-4.7309,-4.7309,-4.7309,-4.7309,-4.7309,-4.7309,-4.7309,-4.7309,-3.9697,-3.9465,-3.9399,-3.9796,-3.9588,-3.9573,-3.9971,-4.0049,-3.9998,-3.9885,-3.9873,-3.991,-4.0036,-4.0049,-4.0049,-4.0049,-4.0049,-4.0049,-4.0049,-4.0049,-4.0049,-4.0049,-4.0049,-4.0049,-4.0049,-4.0049,-4.0049,-4.0049,-4.0049,-3.9986,-3.9885,-4.0438,-4.0689,-4.0714,-4.1087,-4.1288,-4.13,-4.1467,-4.1517,-4.1517,-4.1643,-4.1944,-4.2389,-4.2389,-4.2652,-4.2974,-4.2974,-4.2974,-4.2974,-4.2974,-4.2974,-4.2974,-4.2974,-4.2974,-4.2974,-4.2974,-4.2974,-4.2974,-4.2974,-4.2974,-4.2974,-4.2974,-4.381,-4.4738,-4.5302,-4.7146,-4.8901,-4.9518,-5.0445,-5.1214,-5.1214,-5.1214,-5.105,-5.048,-5.0405,-4.9986,-4.8865,-4.8581,-4.8252,-4.7593,-4.7399,-4.7309,-4.7309,-4.7309,-4.7309,-4.7309,-4.7309,-4.7309,-4.7309,-4.7309,-4.7309,-4.7309,-4.7309,-4.7309,-4.7309,-4.7309,-4.7309,-4.7309,-4.7309,-4.7309,-4.7309,-4.7309,-4.7309,-4.7309,-4.7309,-4.7309,-4.7309,-4.7309,-4.7309,-4.7309,-4.7309,-4.7309,-4.7309,-4.7309,-4.7309,-4.7309,-3.9697,-3.8635,-3.8282,-4.0127,-3.9304,-3.9062,-4.0877,-4.1125,-4.1003,-4.0513,-4.0438,-4.0626,-4.1075,-4.1125,-4.1125,-4.1125,-4.1125,-4.1125,-4.1125,-4.1125,-4.1125,-4.1125,-4.1125,-4.1125,-4.1125,-4.1125,-4.1125,-4.1125,-4.1125,-4.0874,-4.045,-4.0949,-4.1213,-4.1213,-4.1263,-4.1288,-4.1326,-4.1869,-4.2137,-4.2175,-4.2622,-4.2861,-4.2898,-4.2898,-4.2936,-4.2974,-4.2974,-4.2974,-4.2974,-4.2974,-4.2974,-4.2974,-4.2974,-4.2974,-4.2974,-4.2974,-4.2974,-4.2974,-4.2974,-4.2974,-4.2974,-4.2974,-4.3085,-4.3865,-4.6331,-4.7094,-4.8024,-5.0493,-5.112,-5.1214,-5.1214,-5.1214,-5.1199,-5.1139,-5.1124,-5.0823,-5.0106,-4.9553,-4.8985,-4.8282,-4.7668,-4.7309,-4.7309,-4.7309,-4.7309,-4.7309,-4.7309,-4.7309,-4.7309,-4.7309,-4.7309,-4.7309,-4.7309,-4.7309,-4.7309,-4.7309,-4.7309,-4.7309,-4.7309,-4.7309,-4.7309,-4.7309,-4.7309,-4.7309,-4.7309,-4.7309,-4.7309,-4.7309,-4.7309,-4.7309,-4.7309,-4.7309,-4.7309,-4.7309,-4.7309,-4.7309,-3.7442,-3.7182,-3.7516,-3.9237,-3.9043,-3.9236,-4.1022,-4.1288,-4.1379,-4.1492,-4.1216,-4.1037,-4.1263,-4.1288,-4.1288,-4.1288,-4.1288,-4.1288,-4.1288,-4.1288,-4.1288,-4.1288,-4.1288,-4.1288,-4.1288,-4.1288,-4.1288,-4.1288,-4.1288,-4.1175,-4.0962,-4.158,-4.2007,-4.2321,-4.2321,-4.2321,-4.2346,-4.2559,-4.2703,-4.2728,-4.2886,-4.2974,-4.2974,-4.2974,-4.2974,-4.2974,-4.2974,-4.2974,-4.2974,-4.2974,-4.2974,-4.2974,-4.2974,-4.2974,-4.2974,-4.2974,-4.2974,-4.2974,-4.2974,-4.2974,-4.2974,-4.2974,-4.3602,-4.4738,-4.6643,-4.7771,-4.8901,-5.0807,-5.1214,-5.1214,-5.1214,-5.1214,-5.1214,-5.1214,-5.1214,-5.099,-5.0285,-5.0017,-4.9464,-4.8416,-4.8057,-4.7743,-4.7339,-4.7309,-4.7309,-4.7309,-4.7309,-4.7309,-4.7309,-4.7309,-4.7309,-4.7309,-4.7309,-4.7309,-4.7309,-4.7309,-4.7309,-4.7309,-4.7309,-4.7309,-4.7309,-4.7309,-4.7309,-4.7309,-4.7309,-4.7309,-4.7309,-4.7309,-4.7309,-4.7309,-4.7309,-4.7309,-4.7309,-4.7309,-4.7309,-4.7309,-3.6116,-3.5996,-3.6617,-3.881,-3.8789,-3.9252,-4.1442,-4.1819,-4.1957,-4.2401,-4.2057,-4.1819,-4.1819,-4.1819,-4.1819,-4.1819,-4.1819,-4.1819,-4.1819,-4.1819,-4.1819,-4.1819,-4.1819,-4.1819,-4.1819,-4.1819,-4.1819,-4.1819,-4.1819,-4.1743,-4.158,-4.1969,-4.2502,-4.2974,-4.2974,-4.2974,-4.2974,-4.2974,-4.2974,-4.2974,-4.2974,-4.2974,-4.2974,-4.2974,-4.2974,-4.2974,-4.2974,-4.2974,-4.2974,-4.2974,-4.2974,-4.2974,-4.2974,-4.2974,-4.2974,-4.2974,-4.2974,-4.2974,-4.2974,-4.2974,-4.2974,-4.2974,-4.37,-4.4792,-4.6174,-4.7248,-4.8339,-4.9727,-5.0335,-5.0603,-5.0603,-5.0917,-5.1214,-5.1214,-5.1214,-5.1003,-5.0539,-5.0315,-4.9852,-4.897,-4.8521,-4.8102,-4.7638,-4.7414,-4.7309,-4.7309,-4.7309,-4.7309,-4.7309,-4.7309,-4.7309,-4.7309,-4.7309,-4.7309,-4.7309,-4.7309,-4.7309,-4.7309,-4.7309,-4.7309,-4.7309,-4.7309,-4.7309,-4.7309,-4.7309,-4.7309,-4.7309,-4.7309,-4.7309,-4.7309,-4.7309,-4.7309,-4.7309,-4.7309,-4.7309,-4.7309,-3.6573,-3.5417,-3.5568,-3.919,-3.8585,-3.8828,-4.2457,-4.2961,-4.2961,-4.2974,-4.2961,-4.2961,-4.2961,-4.2961,-4.2961,-4.2961,-4.2961,-4.2961,-4.2961,-4.2961,-4.2961,-4.2961,-4.2961,-4.2961,-4.2961,-4.2961,-4.2961,-4.2961,-4.2961,-4.274,-4.22,-4.2213,-4.2502,-4.2974,-4.2974,-4.2974,-4.2974,-4.2974,-4.2974,-4.2974,-4.2974,-4.2974,-4.2974,-4.2974,-4.2974,-4.2974,-4.2974,-4.2974,-4.2974,-4.2974,-4.2974,-4.2974,-4.2974,-4.2974,-4.2974,-4.2974,-4.2974,-4.2974,-4.2974,-4.2974,-4.2974,-4.2974,-4.303,-4.3394,-4.4738,-4.5048,-4.5449,-4.6837,-4.8275,-4.921,-4.921,-5.0287,-5.1214,-5.1214,-5.1214,-5.1214,-5.1214,-5.0599,-5.0181,-5.0166,-4.9075,-4.8282,-4.8282,-4.7683,-4.7309,-4.7309,-4.7309,-4.7309,-4.7309,-4.7309,-4.7309,-4.7309,-4.7309,-4.7309,-4.7309,-4.7309,-4.7309,-4.7309,-4.7309,-4.7309,-4.7309,-4.7309,-4.7309,-4.7309,-4.7309,-4.7309,-4.7309,-4.7309,-4.7309,-4.7309,-4.7309,-4.7309,-4.7309,-4.7309,-4.7309,-4.7309,-3.3993,-3.382,-3.4421,-3.6692,-3.6654,-3.7139,-3.9382,-4.065,-4.1362,-4.1362,-4.2319,-4.2974,-4.2974,-4.2974,-4.2974,-4.2974,-4.2974,-4.2974,-4.2974,-4.2974,-4.2974,-4.2974,-4.2974,-4.2974,-4.2974,-4.2974,-4.2974,-4.2974,-4.2974,-4.2886,-4.2778,-4.2778,-4.2811,-4.2974,-4.2974,-4.2974,-4.2974,-4.2974,-4.2974,-4.2974,-4.2974,-4.2974,-4.2974,-4.2974,-4.2974,-4.2974,-4.2974,-4.2974,-4.2974,-4.2974,-4.2974,-4.2974,-4.2974,-4.2974,-4.2974,-4.2974,-4.2974,-4.2974,-4.2974,-4.2974,-4.2974,-4.2974,-4.2974,-4.3338,-4.4684,-4.5767,-4.6539,-4.6991,-4.8225,-4.921,-4.921,-5.0287,-5.1214,-5.1214,-5.1214,-5.1214,-5.1214,-5.1035,-5.0689,-5.024,-4.9822,-4.9269,-4.8371,-4.8102,-4.7788,-4.7339,-4.7309,-4.7309,-4.7309,-4.7309,-4.7309,-4.7309,-4.7309,-4.7309,-4.7309,-4.7309,-4.7309,-4.7309,-4.7309,-4.7309,-4.7309,-4.7309,-4.7309,-4.7309,-4.7309,-4.7309,-4.7309,-4.7309,-4.7309,-4.7309,-4.7309,-4.7309,-4.7309,-4.7309,-4.7309,-4.7309,-3.3027,-3.3242,-3.3902,-3.5509,-3.5806,-3.6345,-3.7974,-3.9581,-4.0592,-4.0592,-4.2024,-4.2974,-4.2974,-4.2974,-4.2974,-4.2974,-4.2974,-4.2974,-4.2974,-4.2974,-4.2974,-4.2974,-4.2974,-4.2974,-4.2974,-4.2974,-4.2974,-4.2974,-4.2974,-4.2974,-4.2974,-4.2974,-4.2974,-4.2974,-4.2974,-4.2974,-4.2974,-4.2974,-4.2974,-4.2974,-4.2974,-4.2974,-4.2974,-4.2974,-4.2974,-4.2974,-4.2974,-4.2974,-4.2974,-4.2974,-4.2974,-4.2974,-4.2974,-4.2974,-4.2974,-4.2974,-4.2974,-4.2974,-4.2974,-4.2974,-4.2974,-4.2974,-4.2974,-4.324,-4.4071,-4.4941,-4.5555,-4.5555,-4.7094,-4.8389,-4.8389,-4.9936,-5.1214,-5.1214,-5.1214,-5.1214,-5.1214,-5.1214,-5.1018,-5.0614,-5.0345,-4.9867,-4.9105,-4.879,-4.8386,-4.7728,-4.7683,-4.7563,-4.7309,-4.7309,-4.7309,-4.7309,-4.7309,-4.7309,-4.7309,-4.7309,-4.7309,-4.7309,-4.7309,-4.7309,-4.7309,-4.7309,-4.7309,-4.7309,-4.7309,-4.7309,-4.7309,-4.7309,-4.7309,-4.7309,-4.7309,-4.7309,-4.7309,-4.7309,-4.7309,-4.7309,-3.3418,-3.3418,-3.3902,-3.5386,-3.5622,-3.6173,-3.7615,-3.9347,-4.0419,-4.0419,-4.1911,-4.2974,-4.2974,-4.2974,-4.2974,-4.2974,-4.2974,-4.2974,-4.2974,-4.2974,-4.2974,-4.2974,-4.2974,-4.2974,-4.2974,-4.2974,-4.2974,-4.2974,-4.2974,-4.2974,-4.2974,-4.2974,-4.2974,-4.2974,-4.2974,-4.2974,-4.2974,-4.2974,-4.2974,-4.2974,-4.2974,-4.2974,-4.2974,-4.2974,-4.2974,-4.2974,-4.2974,-4.2974,-4.2974,-4.2974,-4.2974,-4.2974,-4.2974,-4.2974,-4.2974,-4.2974,-4.2974,-4.2974,-4.2974,-4.2974,-4.2974,-4.2974,-4.2974,-4.2974,-4.2974,-4.2974,-4.303,-4.3141,-4.5249,-4.7146,-4.7248,-4.9421,-5.1214,-5.1214,-5.1214,-5.1214,-5.1214,-5.1214,-5.1214,-5.1214,-5.0629,-5.024,-5.0196,-4.9688,-4.9105,-4.8401,-4.8356,-4.8087,-4.7474,-4.7444,-4.7399,-4.7309,-4.7309,-4.7309,-4.7309,-4.7309,-4.7309,-4.7309,-4.7309,-4.7309,-4.7309,-4.7309,-4.7309,-4.7309,-4.7309,-4.7309,-4.7309,-4.7309,-4.7309,-4.7309,-4.7309,-4.7309,-4.7309,-4.7309,-4.7309,-4.7309,-3.3418,-3.3418,-3.3534,-3.3892,-3.3955,-3.408,-3.4507,-3.6963,-3.8757,-3.8757,-4.1248,-4.2974,-4.2974,-4.2974,-4.2974,-4.2974,-4.2974,-4.2974,-4.2974,-4.2974,-4.2974,-4.2974,-4.2974,-4.2974,-4.2974,-4.2974,-4.2974,-4.2974,-4.2974,-4.2974,-4.2974,-4.2974,-4.2974,-4.2974,-4.2974,-4.2974,-4.2974,-4.2974,-4.2974,-4.2974,-4.2974,-4.2974,-4.2974,-4.2974,-4.2974,-4.2974,-4.2974,-4.2974,-4.2974,-4.2974,-4.2974,-4.2974,-4.2974,-4.2974,-4.2974,-4.2974,-4.2974,-4.2974,-4.2974,-4.2974,-4.2974,-4.2974,-4.2974,-4.2974,-4.2974,-4.2974,-4.3295,-4.4318,-4.5925,-4.7402,-4.8489,-5.008,-5.1214,-5.1214,-5.1214,-5.1214,-5.1214,-5.1214,-5.1214,-5.1214,-5.1079,-5.0749,-5.024,-5.0046,-4.9733,-4.912,-4.9075,-4.9015,-4.8865,-4.885,-4.8341,-4.7339,-4.7309,-4.7309,-4.7309,-4.7309,-4.7309,-4.7309,-4.7309,-4.7309,-4.7309,-4.7309,-4.7309,-4.7309,-4.7309,-4.7309,-4.7309,-4.7309,-4.7309,-4.7309,-4.7309,-4.7309,-4.7309,-4.7309,-4.7309,-4.7309,-3.3418,-3.3418,-3.3418,-3.3418,-3.3418,-3.3418,-3.3418,-3.552,-3.7073,-3.7073,-3.9931,-4.1899,-4.1899,-4.2557,-4.2974,-4.2974,-4.2974,-4.2974,-4.2974,-4.2974,-4.2974,-4.2974,-4.2974,-4.2974,-4.2974,-4.2974,-4.2974,-4.2974,-4.2974,-4.2974,-4.2974,-4.2974,-4.2974,-4.2974,-4.2974,-4.2974,-4.2974,-4.2974,-4.2974,-4.2974,-4.2974,-4.2974,-4.2974,-4.2974,-4.2974,-4.2974,-4.2974,-4.2974,-4.2974,-4.2974,-4.2974,-4.2974,-4.2974,-4.2974,-4.2974,-4.2974,-4.2974,-4.2974,-4.2974,-4.2974,-4.2974,-4.2974,-4.2974,-4.2974,-4.2974,-4.2974,-4.3184,-4.3962,-4.5714,-4.7299,-4.8074,-4.9873,-5.1214,-5.1214,-5.1214,-5.1214,-5.1214,-5.1214,-5.1214,-5.1214,-5.1214,-5.1079,-5.0674,-5.0644,-5.036,-4.9763,-4.9703,-4.9583,-4.9329,-4.9314,-4.8985,-4.8222,-4.8192,-4.8192,-4.8192,-4.8192,-4.8192,-4.8192,-4.8192,-4.8192,-4.8192,-4.8192,-4.8192,-4.8192,-4.8192,-4.8192,-4.8192,-4.8192,-4.8192,-4.8192,-4.8192,-4.8192,-4.8192,-4.8192,-4.8012,-4.7758,-3.3418,-3.3418,-3.3418,-3.3418,-3.3418,-3.3418,-3.3418,-3.4788,-3.5806,-3.5806,-3.8379,-4.0361,-4.0592,-4.1842,-4.2737,-4.2974,-4.2974,-4.2974,-4.2974,-4.2974,-4.2974,-4.2974,-4.2974,-4.2974,-4.2974,-4.2974,-4.2974,-4.2974,-4.2974,-4.2974,-4.2974,-4.2974,-4.2974,-4.2974,-4.2974,-4.2974,-4.2974,-4.2974,-4.2974,-4.2974,-4.2974,-4.2974,-4.2974,-4.2974,-4.2974,-4.2974,-4.2974,-4.2974,-4.2974,-4.2974,-4.2974,-4.2974,-4.2974,-4.2974,-4.2974,-4.2974,-4.2974,-4.2974,-4.2974,-4.2974,-4.2974,-4.2974,-4.2974,-4.2974,-4.2974,-4.2974,-4.3085,-4.324,-4.5142,-4.6837,-4.7043,-4.8999,-5.065,-5.0855,-5.0902,-5.0964,-5.1167,-5.1214,-5.1214,-5.1214,-5.1214,-5.1214,-5.1214,-5.1214,-5.0943,-5.0375,-5.0345,-5.0152,-4.9629,-4.9614,-4.9614,-4.9614,-4.9419,-4.9314,-4.9314,-4.9314,-4.9314,-4.9314,-4.9314,-4.9314,-4.9314,-4.9314,-4.9314,-4.9314,-4.9314,-4.9314,-4.9314,-4.9314,-4.9314,-4.9314,-4.9314,-4.9314,-4.9314,-4.9314,-4.8955,-4.8431,-3.3418,-3.3418,-3.3418,-3.3418,-3.3418,-3.3418,-3.3418,-3.4788,-3.5806,-3.5806,-3.7435,-3.9111,-4.0476,-4.0834,-4.1545,-4.2849,-4.2974,-4.2974,-4.2974,-4.2974,-4.2974,-4.2974,-4.2974,-4.2974,-4.2974,-4.2974,-4.2974,-4.2974,-4.2974,-4.2974,-4.2974,-4.2974,-4.2974,-4.2974,-4.2974,-4.2974,-4.2974,-4.2974,-4.2974,-4.2974,-4.2974,-4.2974,-4.2974,-4.2974,-4.2974,-4.2974,-4.2974,-4.2974,-4.2974,-4.2974,-4.2974,-4.2974,-4.2974,-4.2974,-4.2974,-4.2974,-4.2974,-4.2974,-4.2974,-4.2974,-4.2974,-4.2974,-4.2974,-4.2974,-4.2974,-4.2974,-4.3338,-4.4481,-4.5048,-4.5714,-4.6888,-4.7453,-4.8125,-4.9308,-4.9518,-4.9921,-5.1058,-5.1214,-5.1214,-5.1214,-5.1214,-5.1214,-5.1214,-5.1214,-5.1184,-5.1065,-5.1018,-5.102,-5.0915,-5.0915,-5.0915,-5.0915,-4.9838,-4.9314,-4.9314,-4.9314,-4.9314,-4.9314,-4.9314,-4.9314,-4.9314,-4.9314,-4.9314,-4.9314,-4.9314,-4.9314,-4.9314,-4.9314,-4.9314,-4.9314,-4.9314,-4.9314,-4.9314,-4.9314,-4.9239,-4.9164,-3.3418,-3.3418,-3.3418,-3.3418,-3.3418,-3.3418,-3.3418,-3.4017,-3.4497,-3.4497,-3.5939,-3.7555,-3.9111,-4.0059,-4.1248,-4.2862,-4.2974,-4.2974,-4.2974,-4.2974,-4.2974,-4.2974,-4.2974,-4.2974,-4.2974,-4.2974,-4.2974,-4.2974,-4.2974,-4.2974,-4.2974,-4.2974,-4.2974,-4.2974,-4.2974,-4.2974,-4.2974,-4.2974,-4.2974,-4.2974,-4.2974,-4.2974,-4.2974,-4.2974,-4.2974,-4.2974,-4.2974,-4.2974,-4.2974,-4.2974,-4.2974,-4.2974,-4.2974,-4.2974,-4.2974,-4.2974,-4.2974,-4.2974,-4.2974,-4.2974,-4.2974,-4.2974,-4.2974,-4.2974,-4.2974,-4.2974,-4.3184,-4.381,-4.4481,-4.5195,-4.5872,-4.6591,-4.7299,-4.7974,-4.8074,-4.8275,-4.8901,-4.8999,-4.9259,-5.0032,-5.0128,-5.0397,-5.112,-5.1214,-5.1214,-5.1214,-5.1214,-5.1214,-5.1214,-5.1214,-5.1214,-5.1214,-5.0631,-5.0316,-5.0316,-5.0316,-5.0316,-5.0316,-5.0316,-5.0316,-5.0316,-5.0316,-5.0316,-5.0316,-5.0316,-5.0316,-5.0316,-5.0316,-5.0316,-5.0316,-5.0316,-5.0316,-5.0316,-5.0316,-5.0092,-4.9778,-3.3418,-3.3418,-3.3418,-3.3418,-3.3418,-3.3418,-3.3418,-3.3418,-3.3418,-3.3418,-3.4497,-3.5867,-3.7495,-3.8746,-4.0105,-4.1728,-4.1899,-4.2024,-4.2432,-4.2444,-4.2625,-4.2974,-4.2974,-4.2974,-4.2974,-4.2974,-4.2974,-4.2974,-4.2974,-4.2974,-4.2974,-4.2974,-4.2974,-4.2974,-4.2974,-4.2974,-4.2974,-4.2974,-4.2974,-4.2974,-4.2974,-4.2974,-4.2974,-4.2974,-4.2974,-4.2974,-4.2974,-4.2974,-4.2974,-4.2974,-4.2974,-4.2974,-4.2974,-4.2974,-4.2974,-4.2974,-4.2974,-4.2974,-4.2974,-4.2974,-4.2974,-4.2974,-4.2974,-4.2974,-4.2974,-4.2974,-4.2974,-4.2974,-4.381,-4.4522,-4.4522,-4.5409,-4.6226,-4.6539,-4.6591,-4.6747,-4.7043,-4.735,-4.7974,-4.9049,-4.947,-5.008,-5.112,-5.1214,-5.1214,-5.1214,-5.1214,-5.1214,-5.1214,-5.1214,-5.1214,-5.1214,-5.1214,-5.1214,-5.1214,-5.1214,-5.1214,-5.1214,-5.1214,-5.1214,-5.1214,-5.1214,-5.1214,-5.1214,-5.1214,-5.1214,-5.1214,-5.1214,-5.1214,-5.1214,-5.1214,-5.1214,-5.1214,-5.1214,-5.0853,-5.042,-3.3418,-3.3418,-3.3418,-3.3418,-3.3418,-3.3418,-3.3418,-3.3418,-3.3418,-3.3418,-3.3481,-3.4195,-3.5806,-3.6101,-3.682,-3.8391,-3.858,-3.917,-4.065,-4.0777,-4.1419,-4.2918,-4.2974,-4.2974,-4.2974,-4.2974,-4.2974,-4.2974,-4.2974,-4.2974,-4.2974,-4.2974,-4.2974,-4.2974,-4.2974,-4.2974,-4.2974,-4.2974,-4.2974,-4.2974,-4.2974,-4.2974,-4.2974,-4.2974,-4.2974,-4.2974,-4.2974,-4.2974,-4.2974,-4.2974,-4.2974,-4.2974,-4.2974,-4.2974,-4.2974,-4.2974,-4.2974,-4.2974,-4.2974,-4.2974,-4.2974,-4.2974,-4.2974,-4.2974,-4.2974,-4.2974,-4.2974,-4.2974,-4.3085,-4.3129,-4.3129,-4.324,-4.37,-4.4941,-4.5142,-4.5608,-4.6888,-4.8225,-4.9098,-4.921,-5.0287,-5.1073,-5.1167,-5.1214,-5.1214,-5.1214,-5.1214,-5.1214,-5.1214,-5.1214,-5.1214,-5.1214,-5.1214,-5.1214,-5.1214,-5.1214,-5.1214,-5.1214,-5.1214,-5.1214,-5.1214,-5.1214,-5.1214,-5.1214,-5.1214,-5.1214,-5.1214,-5.1214,-5.1214,-5.1214,-5.1214,-5.1214,-5.1214,-5.1214,-5.1184,-5.1154,-3.3418,-3.3418,-3.3418,-3.3418,-3.3418,-3.3418,-3.3418,-3.3418,-3.3418,-3.3418,-3.3418,-3.4017,-3.5622,-3.5806,-3.6467,-3.8033,-3.8223,-3.8461,-3.9053,-4.0059,-4.1305,-4.2918,-4.2974,-4.2974,-4.2974,-4.2974,-4.2974,-4.2974,-4.2974,-4.2974,-4.2974,-4.2974,-4.2974,-4.2974,-4.2974,-4.2974,-4.2974,-4.2974,-4.2974,-4.2974,-4.2974,-4.2974,-4.2974,-4.2974,-4.2974,-4.2974,-4.2974,-4.2974,-4.2974,-4.2974,-4.2974,-4.2974,-4.2974,-4.2974,-4.2974,-4.2974,-4.2974,-4.2974,-4.2974,-4.2974,-4.2974,-4.2974,-4.2974,-4.2974,-4.2974,-4.2974,-4.2974,-4.2974,-4.2974,-4.2974,-4.2974,-4.2974,-4.3184,-4.37,-4.3755,-4.3962,-4.4481,-4.5048,-4.5964,-4.7721,-4.8339,-4.9308,-5.1011,-5.0445,-4.9984,-4.9984,-4.9984,-4.9984,-4.9984,-5.076,-5.1214,-5.1214,-5.1214,-5.1214,-5.1214,-5.1214,-5.1214,-5.1214,-5.1214,-5.1214,-5.1214,-5.1214,-5.1214,-5.1214,-5.1214,-5.1214,-5.1214,-5.1214,-5.1214,-5.1214,-5.1214,-5.1214,-5.1214,-5.1214,-5.1214,-5.1214,-3.3418,-3.3418,-3.3418,-3.3418,-3.3418,-3.3418,-3.3418,-3.3418,-3.3418,-3.3418,-3.3418,-3.3839,-3.4912,-3.5026,-3.552,-3.6599,-3.666,-3.6902,-3.7435,-3.9405,-4.1305,-4.2918,-4.2974,-4.2974,-4.2974,-4.2974,-4.2974,-4.2974,-4.2974,-4.2974,-4.2974,-4.2974,-4.2974,-4.2974,-4.2974,-4.2974,-4.2974,-4.2974,-4.2974,-4.2974,-4.2974,-4.2974,-4.2974,-4.2974,-4.2974,-4.2974,-4.2974,-4.2974,-4.2974,-4.2974,-4.2974,-4.2974,-4.2974,-4.2974,-4.2974,-4.2974,-4.2974,-4.2974,-4.2974,-4.2974,-4.2974,-4.2974,-4.2974,-4.2974,-4.2974,-4.2974,-4.2974,-4.2974,-4.2974,-4.2974,-4.2974,-4.2974,-4.2974,-4.2974,-4.2974,-4.2974,-4.2974,-4.3338,-4.4318,-4.6226,-4.6837,-4.7822,-4.9727,-4.9098,-4.8539,-4.8539,-4.8539,-4.8539,-4.8539,-4.9421,-5.0128,-5.0555,-5.0555,-5.076,-5.1214,-5.1214,-5.1214,-5.1214,-5.1214,-5.1214,-5.1214,-5.1214,-5.1214,-5.1214,-5.1214,-5.1214,-5.1214,-5.1214,-5.1214,-5.1214,-5.1214,-5.1214,-5.1214,-5.1214,-5.1214,-5.1214,-3.3418,-3.3418,-3.3418,-3.3418,-3.3418,-3.3418,-3.3418,-3.3418,-3.3418,-3.3418,-3.3418,-3.3418,-3.3418,-3.3418,-3.3418,-3.3418,-3.3418,-3.408,-3.5683,-3.8794,-4.1305,-4.2918,-4.2974,-4.2974,-4.2974,-4.2974,-4.2974,-4.2974,-4.2974,-4.2974,-4.2974,-4.2974,-4.2974,-4.2974,-4.2974,-4.2974,-4.2974,-4.2974,-4.2974,-4.2974,-4.2974,-4.2974,-4.2974,-4.2974,-4.2974,-4.2974,-4.2974,-4.2974,-4.2974,-4.2974,-4.2974,-4.2974,-4.2974,-4.2974,-4.2974,-4.2974,-4.2974,-4.2974,-4.2974,-4.2974,-4.2974,-4.2974,-4.2974,-4.2974,-4.2974,-4.2974,-4.2974,-4.2974,-4.2974,-4.2974,-4.2974,-4.2974,-4.2974,-4.2974,-4.2974,-4.2974,-4.2974,-4.4167,-4.4994,-4.4994,-4.6226,-4.7094,-4.7094,-4.7094,-4.7094,-4.7094,-4.7094,-4.7094,-4.7094,-4.7094,-4.7771,-4.9161,-4.921,-4.9824,-5.1167,-5.1214,-5.1214,-5.1214,-5.1214,-5.1214,-5.1214,-5.1214,-5.1214,-5.1214,-5.1214,-5.1214,-5.1214,-5.1214,-5.1214,-5.1214,-5.1214,-5.1214,-5.1214,-5.1214,-5.1214,-5.1214,-3.3418,-3.3418,-3.3418,-3.3418,-3.3418,-3.3418,-3.3418,-3.3418,-3.3418,-3.3418,-3.3418,-3.3418,-3.3418,-3.3418,-3.3418,-3.3418,-3.3418,-3.408,-3.5683,-3.6699,-3.7963,-3.9581,-4.1785,-4.2974,-4.2974,-4.2974,-4.2974,-4.2974,-4.2974,-4.2974,-4.2974,-4.2974,-4.2974,-4.2974,-4.2974,-4.2974,-4.2974,-4.2974,-4.2974,-4.2974,-4.2974,-4.2974,-4.2974,-4.2974,-4.2974,-4.2974,-4.2974,-4.2974,-4.2974,-4.2974,-4.2974,-4.2974,-4.2974,-4.2974,-4.2974,-4.2974,-4.2974,-4.2974,-4.2974,-4.2974,-4.2974,-4.2974,-4.2974,-4.2974,-4.2974,-4.2974,-4.2974,-4.2974,-4.2974,-4.2974,-4.2974,-4.2974,-4.2974,-4.2974,-4.2974,-4.2974,-4.2974,-4.3338,-4.3962,-4.4887,-4.5356,-4.6017,-4.6991,-4.6226,-4.5608,-4.5608,-4.5608,-4.6069,-4.7043,-4.7094,-4.7771,-4.9161,-4.921,-4.9824,-5.1167,-5.1214,-5.1214,-5.1214,-5.1214,-5.1214,-5.1214,-5.1214,-5.1214,-5.1214,-5.1214,-5.1214,-5.1214,-5.1214,-5.1214,-5.1214,-5.1214,-5.1214,-5.1214,-5.1214,-5.1214,-5.1214,-3.3418,-3.3418,-3.3418,-3.3418,-3.3418,-3.3418,-3.3418,-3.3418,-3.3418,-3.3418,-3.3418,-3.3418,-3.3418,-3.3418,-3.3418,-3.3418,-3.3418,-3.3839,-3.4798,-3.5448,-3.6223,-3.7194,-3.9698,-4.1419,-4.2024,-4.2024,-4.2375,-4.2974,-4.2974,-4.2974,-4.2974,-4.2974,-4.2974,-4.2974,-4.2974,-4.2974,-4.2974,-4.2974,-4.2974,-4.2974,-4.2974,-4.2974,-4.2974,-4.2974,-4.2974,-4.2974,-4.2974,-4.2974,-4.2974,-4.2974,-4.2974,-4.2974,-4.2974,-4.2974,-4.2974,-4.2974,-4.2974,-4.2974,-4.2974,-4.2974,-4.2974,-4.2974,-4.2974,-4.2974,-4.2974,-4.2974,-4.2974,-4.2974,-4.2974,-4.2974,-4.2974,-4.2974,-4.2974,-4.2974,-4.2974,-4.2974,-4.2974,-4.2974,-4.3283,-4.4113,-4.4222,-4.4522,-4.5409,-4.4738,-4.4222,-4.4222,-4.4222,-4.4576,-4.5462,-4.5449,-4.6383,-4.8339,-4.8389,-4.9259,-5.1167,-5.1214,-5.1214,-5.1214,-5.1214,-5.1214,-5.1214,-5.1214,-5.1214,-5.1214,-5.1214,-5.1214,-5.1214,-5.1214,-5.1214,-5.1214,-5.1214,-5.1214,-5.1214,-5.1214,-5.1214,-5.1214,-3.3418,-3.3418,-3.3418,-3.3418,-3.3418,-3.3418,-3.3418,-3.3418,-3.3418,-3.3418,-3.3418,-3.3418,-3.3418,-3.3418,-3.3418,-3.3418,-3.3418,-3.3418,-3.3418,-3.4788,-3.556,-3.556,-3.7013,-3.8509,-4.0117,-4.0476,-4.1305,-4.2793,-4.2918,-4.2974,-4.2974,-4.2974,-4.2974,-4.2974,-4.2974,-4.2974,-4.2974,-4.2974,-4.2974,-4.2974,-4.2974,-4.2974,-4.2974,-4.2974,-4.2974,-4.2974,-4.2974,-4.2974,-4.2974,-4.2974,-4.2974,-4.2974,-4.2974,-4.2974,-4.2974,-4.2974,-4.2974,-4.2974,-4.2974,-4.2974,-4.2974,-4.2974,-4.2974,-4.2974,-4.2974,-4.2974,-4.2974,-4.2974,-4.2974,-4.2974,-4.2974,-4.2974,-4.2974,-4.2974,-4.2974,-4.2974,-4.2974,-4.2974,-4.2974,-4.2974,-4.2974,-4.2974,-4.2974,-4.2974,-4.2974,-4.2974,-4.2974,-4.2974,-4.2974,-4.2974,-4.4277,-4.6991,-4.7094,-4.8439,-5.1167,-5.1214,-5.1214,-5.1214,-5.1214,-5.1214,-5.1214,-5.1214,-5.1214,-5.1214,-5.1214,-5.1214,-5.1214,-5.1214,-5.1214,-5.1214,-5.1214,-5.1214,-5.1214,-5.1214,-5.1214,-5.1214,-3.3418,-3.3418,-3.3418,-3.3418,-3.3418,-3.3418,-3.3418,-3.3418,-3.3418,-3.3418,-3.3418,-3.3418,-3.3418,-3.3418,-3.3418,-3.3418,-3.3418,-3.3418,-3.3418,-3.3723,-3.3892,-3.3892,-3.4258,-3.5222,-3.682,-3.9335,-4.0777,-4.1133,-4.2375,-4.2974,-4.2974,-4.2974,-4.2974,-4.2974,-4.2974,-4.2974,-4.2974,-4.2974,-4.2974,-4.2974,-4.2974,-4.2974,-4.2974,-4.2974,-4.2974,-4.2974,-4.2974,-4.2974,-4.2974,-4.2974,-4.2974,-4.2974,-4.2974,-4.2974,-4.2974,-4.2974,-4.2974,-4.2974,-4.2974,-4.2974,-4.2974,-4.2974,-4.2974,-4.2974,-4.2974,-4.2974,-4.2974,-4.2974,-4.2974,-4.2974,-4.2974,-4.2974,-4.2974,-4.2974,-4.2974,-4.2974,-4.2974,-4.2974,-4.2974,-4.2974,-4.2974,-4.2974,-4.2974,-4.2974,-4.2974,-4.2974,-4.2974,-4.2974,-4.2974,-4.2974,-4.4277,-4.6991,-4.7094,-4.8439,-5.1167,-5.1214,-5.1214,-5.1214,-5.1214,-5.1214,-5.1214,-5.1214,-5.1214,-5.1214,-5.1214,-5.1214,-5.1214,-5.1214,-5.1214,-5.1214,-5.1214,-5.1214,-5.1214,-5.1214,-5.1214,-5.1214,-3.3418,-3.3418,-3.3418,-3.3418,-3.3418,-3.3418,-3.3418,-3.3418,-3.3418,-3.3418,-3.3418,-3.3418,-3.3418,-3.3418,-3.3418,-3.3418,-3.3418,-3.3418,-3.3418,-3.3418,-3.3418,-3.3418,-3.3418,-3.3776,-3.4612,-3.7062,-3.9041,-4.0592,-4.1419,-4.2263,-4.2974,-4.2974,-4.2974,-4.2974,-4.2974,-4.2974,-4.2974,-4.2974,-4.2974,-4.2974,-4.2974,-4.2974,-4.2974,-4.2974,-4.2974,-4.2974,-4.2974,-4.2974,-4.2974,-4.2974,-4.2974,-4.2974,-4.2974,-4.2974,-4.2974,-4.2974,-4.2974,-4.2974,-4.2974,-4.2974,-4.2974,-4.2974,-4.2974,-4.2974,-4.2974,-4.2974,-4.2974,-4.2974,-4.2974,-4.2974,-4.2974,-4.2974,-4.2974,-4.2974,-4.2974,-4.2974,-4.2974,-4.2974,-4.2974,-4.2974,-4.2974,-4.2974,-4.2974,-4.2974,-4.2974,-4.2974,-4.2974,-4.2974,-4.2974,-4.2974,-4.3962,-4.6017,-4.6122,-4.7094,-4.921,-4.9921,-5.0239,-5.0239,-5.0902,-5.1214,-5.1214,-5.1214,-5.1214,-5.1214,-5.1214,-5.1214,-5.1214,-5.1214,-5.1214,-5.1214,-5.1214,-5.1214,-5.1214,-5.1214,-5.1214,-5.1214,-3.3418,-3.3418,-3.3418,-3.3418,-3.3418,-3.3418,-3.3418,-3.3418,-3.3418,-3.3418,-3.3418,-3.3418,-3.3418,-3.3418,-3.3418,-3.3418,-3.3418,-3.3418,-3.3418,-3.3418,-3.3418,-3.3418,-3.3418,-3.3418,-3.3418,-3.4736,-3.682,-3.9756,-4.0059,-4.0892,-4.2206,-4.2444,-4.2613,-4.2613,-4.2862,-4.2974,-4.2974,-4.2974,-4.2974,-4.2974,-4.2974,-4.2974,-4.2974,-4.2974,-4.2974,-4.2974,-4.2974,-4.2974,-4.2974,-4.2974,-4.2974,-4.2974,-4.2974,-4.2974,-4.2974,-4.2974,-4.2974,-4.2974,-4.2974,-4.2974,-4.2974,-4.2974,-4.2974,-4.2974,-4.2974,-4.2974,-4.2974,-4.2974,-4.2974,-4.2974,-4.2974,-4.2974,-4.2974,-4.2974,-4.2974,-4.2974,-4.2974,-4.2974,-4.2974,-4.2974,-4.2974,-4.2974,-4.2974,-4.2974,-4.2974,-4.2974,-4.2974,-4.2974,-4.2974,-4.2974,-4.3602,-4.4941,-4.4994,-4.5661,-4.7094,-4.8275,-4.8851,-4.8851,-4.9984,-5.076,-5.1214,-5.1214,-5.1214,-5.1214,-5.1214,-5.1214,-5.1214,-5.1214,-5.1214,-5.1214,-5.1214,-5.1214,-5.1214,-5.1214,-5.1214,-5.1214,-3.3418,-3.3418,-3.3418,-3.3418,-3.3418,-3.3418,-3.3418,-3.3418,-3.3418,-3.3418,-3.3418,-3.3418,-3.3418,-3.3418,-3.3418,-3.3418,-3.3418,-3.3418,-3.3418,-3.3418,-3.3418,-3.3418,-3.3418,-3.3418,-3.3418,-3.3597,-3.4612,-3.6456,-3.7854,-3.8639,-3.8876,-4.0291,-4.0949,-4.1019,-4.2375,-4.2974,-4.2974,-4.2974,-4.2974,-4.2974,-4.2974,-4.2974,-4.2974,-4.2974,-4.2974,-4.2974,-4.2974,-4.2974,-4.2974,-4.2974,-4.2974,-4.2974,-4.2974,-4.2974,-4.2974,-4.2974,-4.2974,-4.2974,-4.2974,-4.2974,-4.2974,-4.2974,-4.2974,-4.2974,-4.2974,-4.2974,-4.2974,-4.2974,-4.2974,-4.2974,-4.2974,-4.2974,-4.2974,-4.2974,-4.2974,-4.2974,-4.2974,-4.2974,-4.2974,-4.2974,-4.2974,-4.2974,-4.2974,-4.2974,-4.2974,-4.2974,-4.2974,-4.2974,-4.2974,-4.2974,-4.3602,-4.4941,-4.5074,-4.5741,-4.7094,-4.7299,-4.735,-4.7402,-4.7568,-4.8901,-5.1214,-5.1214,-5.1214,-5.1214,-5.1214,-5.1214,-5.1214,-5.1214,-5.1214,-5.1214,-5.1214,-5.1214,-5.1214,-5.1214,-5.1214,-5.1214,-3.3418,-3.3418,-3.3418,-3.3418,-3.3418,-3.3418,-3.3418,-3.3418,-3.3418,-3.3418,-3.3418,-3.3418,-3.3418,-3.3418,-3.3418,-3.3418,-3.3418,-3.3418,-3.3418,-3.3418,-3.3418,-3.3418,-3.3418,-3.3418,-3.3418,-3.3418,-3.3776,-3.4435,-3.6051,-3.7314,-3.8223,-3.8935,-3.9288,-3.9347,-4.0949,-4.1659,-4.1728,-4.2613,-4.2974,-4.2974,-4.2974,-4.2974,-4.2974,-4.2974,-4.2974,-4.2974,-4.2974,-4.2974,-4.2974,-4.2974,-4.2974,-4.2974,-4.2974,-4.2974,-4.2974,-4.2974,-4.2974,-4.2974,-4.2974,-4.2974,-4.2974,-4.2974,-4.2974,-4.2974,-4.2974,-4.2974,-4.2974,-4.2974,-4.2974,-4.2974,-4.2974,-4.2974,-4.2974,-4.2974,-4.2974,-4.2974,-4.2974,-4.2974,-4.2974,-4.2974,-4.2974,-4.2974,-4.2974,-4.2974,-4.2974,-4.2974,-4.2974,-4.2974,-4.2974,-4.2974,-4.3295,-4.3852,-4.392,-4.4235,-4.4779,-4.5555,-4.5912,-4.5912,-4.6747,-4.8125,-5.008,-5.008,-5.0493,-5.1214,-5.1214,-5.1214,-5.1214,-5.1214,-5.1214,-5.1214,-5.1214,-5.1214,-5.1214,-5.1214,-5.1214,-5.1214]}]]